[[{"header":{"parameterUnit":"m.s-1","parameterCategory":1,"la1":31.0,"la2":29.5877,"lo1":-88.7671,"lo2":-86.6584,"dy":0.0162,"dx":0.0185,"nx":115,"ny":88,"refTime":"2026-04-17T12:00:00:Z","depth":0,"parameterNumber":2,"parameterNumberName":"U-component_of_WINDS"},"data":[0.0,0.0,0.0,0.0,0.0,0.0,0.0,0.0,0.0,0.0,0.0,0.0,0.0,0.0,0.0,0.0,0.0,0.0,0.0,0.0,0.0,0.0,0.0,0.0,0.0,0.0,0.0,0.0,0.0,0.0,0.0,0.0,0.0,0.0,0.0,0.0,0.0,0.0,0.0,0.0,0.0,0.0,0.0,0.0,0.0,0.0,0.0,0.0,0.0,0.0,0.0,0.0,0.0,0.0,0.0,0.0,0.0,0.0,0.0,0.0,0.0,0.0,0.0,0.0,0.0,0.0,0.0,0.0,0.0,0.0,0.0,0.0,0.0,0.0,0.0,0.0,0.0,0.0,0.0,0.0,0.0,0.0,0.0,0.0,0.0,0.0,0.0,0.0,0.0,0.0,0.0,0.0,0.0,0.0,0.0,0.0,0.0,0.0,0.0,0.0,0.0,0.0,0.0,0.0,0.0,0.0,0.0,0.0,0.0,0.0,0.0,0.0,0.0,0.0,0.0,0.0,0.0,0.0,0.0,0.0,0.0,0.0,0.0,0.0,0.0,0.0,0.0,0.0,0.0,0.0,0.0,0.0,0.0,0.0,0.0,0.0,0.0,0.0,0.0,0.0,0.0,0.0,0.0,0.0,0.0,0.0,0.0,0.0,0.0,0.0,0.0,0.0,0.0,0.0,0.0,0.0,0.0,0.0,0.0,0.0,0.0,0.0,0.0,0.0,0.0,0.0,0.0,0.0,0.0,0.0,0.0,0.0,0.0,0.0,0.0,0.0,0.0,0.0,0.0,0.0,0.0,0.0,0.0,0.0,0.0,0.0,0.0,0.0,0.0,0.0,0.0,0.0,0.0,0.0,0.0,0.0,0.0,0.0,0.0,0.0,0.0,0.0,0.0,0.0,0.0,0.0,0.0,0.0,0.0,0.0,0.0,0.0,0.0,0.0,0.0,0.0,0.0,0.0,0.0,0.0,0.0,0.0,0.0,0.0,0.0,0.0,0.0,0.0,0.0,0.0,0.0,0.0,0.0,0.0,0.0,0.0,0.0,0.0,0.0,0.0,0.0,0.0,0.0,0.0,0.0,0.0,0.0,0.0,0.0,0.0,0.0,0.0,0.0,0.0,0.0,0.0,0.0,0.0,0.0,0.0,0.0,0.0,0.0,0.0,0.0,0.0,0.0,0.0,0.0,0.0,0.0,0.0,0.0,0.0,0.0,0.0,0.0,0.0,0.0,0.0,0.0,0.0,0.0,0.0,0.0,0.0,0.0,0.0,0.0,0.0,0.0,0.0,0.0,0.0,0.0,0.0,0.0,0.0,0.0,0.0,0.0,0.0,0.0,0.0,0.0,0.0,0.0,0.0,0.0,0.0,0.0,0.0,0.0,0.0,0.0,0.0,0.0,0.0,0.0,0.0,0.0,0.0,0.0,0.0,0.0,0.0,0.0,0.0,0.0,0.0,0.0,0.0,0.0,0.0,0.0,0.0,0.0,0.0,0.0,0.0,0.0,0.0,0.0,0.0,0.0,0.0,0.0,0.0,0.0,0.0,0.0,0.0,0.0,0.0,0.0,0.0,0.0,0.0,0.0,0.0,0.0,0.0,0.0,0.0,0.0,0.0,0.0,0.0,0.0,0.0,0.0,0.0,0.0,0.0,0.0,0.0,0.0,0.0,0.0,0.0,0.0,0.0,0.0,0.0,0.0,0.0,0.0,0.0,0.0,0.0,0.0,0.0,0.0,0.0,0.0,0.0,0.0,0.0,0.0,0.0,0.0,0.0,0.0,0.0,0.0,0.0,0.0,0.0,0.0,0.0,0.0,0.0,0.0,0.0,0.0,0.0,0.0,0.0,0.0,0.0,0.0,0.0,0.0,0.0,0.0,0.0,0.0,0.0,0.0,0.0,0.0,0.0,0.0,0.0,0.0,0.0,0.0,0.0,0.0,0.0,0.0,0.0,0.0,0.0,0.0,0.0,0.0,0.0,0.0,0.0,0.0,0.0,0.0,0.0,0.0,0.0,0.0,0.0,0.0,0.0,0.0,0.0,0.0,0.0,0.0,0.0,0.0,0.0,0.0,0.0,0.0,0.0,0.0,0.0,0.0,0.0,0.0,0.0,0.0,0.0,0.0,0.0,0.0,0.0,0.0,0.0,0.0,0.0,0.0,0.0,0.0,0.0,0.0,0.0,0.0,0.0,0.0,0.0,0.0,0.0,0.0,0.0,0.0,0.0,0.0,0.0,0.0,0.0,0.0,0.0,0.0,0.0,0.0,0.0,0.0,0.0,0.0,0.0,0.0,0.0,0.0,0.0,0.0,0.0,0.0,0.0,0.0,0.0,0.0,0.0,0.0,0.0,0.0,0.0,0.0,0.0,0.0,0.0,0.0,0.0,0.0,0.0,0.0,0.0,0.0,0.0,0.0,0.0,0.0,0.0,0.0,0.0,0.0,0.0,0.0,0.0,0.0,0.0,0.0,0.0,0.0,0.0,0.0,0.0,0.0,0.0,0.0,0.0,0.0,0.0,0.0,0.0,0.0,0.0,0.0,0.0,0.0,0.0,0.0,0.0,0.0,0.0,0.0,0.0,0.0,0.0,0.0,0.0,0.0,0.0,0.0,0.0,0.0,0.0,0.0,0.0,0.0,0.0,0.0,0.0,0.0,0.0,0.0,0.0,0.0,0.0,0.0,0.0,0.0,0.0,0.0,0.0,0.0,0.0,0.0,0.0,0.0,0.0,0.0,0.0,0.0,0.0,0.0,0.0,0.0,0.0,0.0,0.0,0.0,0.0,0.0,0.0,0.0,0.0,0.0,0.0,0.0,0.0,0.0,0.0,0.0,0.0,0.0,0.0,0.0,0.0,0.0,0.0,0.0,0.0,0.0,0.0,0.0,0.0,0.0,0.0,0.0,0.0,0.0,0.0,0.0,0.0,0.0,0.0,0.0,0.0,0.0,0.0,0.0,0.0,0.0,0.0,0.0,0.0,0.0,0.0,0.0,0.0,0.0,0.0,0.0,0.0,0.0,0.0,0.0,0.0,0.0,0.0,0.0,0.0,0.0,0.0,0.0,0.0,0.0,0.0,0.0,0.0,0.0,0.0,0.0,0.0,0.0,0.0,0.0,0.0,0.0,0.0,0.0,0.0,0.0,0.0,0.0,0.0,0.0,0.0,0.0,0.0,0.0,0.0,0.0,0.0,0.0,0.0,0.0,0.0,0.0,0.0,0.0,0.0,0.0,0.0,0.0,0.0,0.0,0.0,0.0,0.0,0.0,0.0,0.0,0.0,0.0,0.0,0.0,0.0,0.0,0.0,0.0,0.0,0.0,0.0,0.0,0.0,0.0,0.0,0.0,0.0,0.0,0.0,0.0,0.0,0.0,0.0,0.0,0.0,0.0,0.0,0.0,0.0,0.0,0.0,0.0,0.0,0.0,0.0,0.0,0.0,0.0,0.0,0.0,0.0,0.0,0.0,0.0,0.0,0.0,0.0,0.0,0.0,0.0,0.0,0.0,0.0,0.0,0.0,0.0,0.0,0.0,0.0,0.0,0.0,0.0,0.0,0.0,0.0,0.0,0.0,0.0,0.0,0.0,0.0,0.0,0.0,0.0,0.0,0.0,0.0,0.0,0.0,0.0,0.0,0.0,0.0,0.0,0.0,0.0,0.0,0.0,0.0,0.0,0.0,0.0,0.0,0.0,0.0,0.0,0.0,0.0,0.0,0.0,0.0,0.0,0.0,0.0,0.0,0.0,0.0,0.0,0.0,0.0,0.0,0.0,0.0,0.0,0.0,0.0,0.0,0.0,0.0,0.0,0.0,0.0,0.0,0.0,0.0,0.0,0.0,0.0,0.0,0.0,0.0,0.0,0.0,0.0,0.0,0.0,0.0,0.0,0.0,0.0,0.0,0.0,0.0,0.0,0.0,0.0,0.0,0.0,0.0,0.0,0.0,0.0,0.0,0.0,0.0,0.0,0.0,0.0,0.0,0.0,0.0,0.0,0.0,0.0,0.0,0.0,0.0,0.0,0.0,0.0,0.0,0.0,0.0,0.0,0.0,0.0,0.0,0.0,0.0,0.0,0.0,0.0,0.0,0.0,0.0,0.0,0.0,0.0,0.0,0.0,0.0,0.0,0.0,0.0,0.0,0.0,0.0,0.0,0.0,0.0,0.0,0.0,0.0,0.0,0.0,0.0,0.0,0.0,0.0,0.0,0.0,0.0,0.0,0.0,0.0,0.0,0.0,0.0,0.0,0.0,0.0,0.0,0.0,0.0,0.0,-0.8234,0.0,0.0,0.0,0.0,0.0,0.0,0.0,0.0,0.0,0.0,0.0,0.0,0.0,0.0,0.0,0.0,0.0,0.0,0.0,0.0,0.0,0.0,0.0,0.0,0.0,0.0,0.0,0.0,0.0,0.0,0.0,0.0,0.0,0.0,0.0,0.0,0.0,0.0,0.0,0.0,0.0,0.0,0.0,0.0,0.0,0.0,0.0,0.0,0.0,0.0,0.0,0.0,0.0,0.0,0.0,0.0,0.0,0.0,0.0,0.0,0.0,0.0,0.0,0.0,0.0,0.0,0.0,0.0,0.0,0.0,0.0,0.0,0.0,0.0,0.0,0.0,0.0,0.0,0.0,0.0,0.0,0.0,0.0,0.0,0.0,0.0,0.0,0.0,0.0,0.0,0.0,0.0,0.0,0.0,0.0,0.0,0.0,0.0,0.0,0.0,0.0,0.0,0.0,0.0,0.0,0.0,0.0,0.0,0.0,0.0,-0.7949,-0.7926,-0.7992,-0.8005,-0.8041,0.0,0.0,0.0,0.0,0.0,0.0,0.0,0.0,0.0,0.0,0.0,0.0,0.0,0.0,0.0,0.0,0.0,0.0,0.0,0.0,0.0,0.0,0.0,0.0,0.0,0.0,0.0,0.0,0.0,0.0,0.0,0.0,0.0,0.0,0.0,0.0,0.0,0.0,0.0,0.0,0.0,0.0,0.0,0.0,0.0,0.0,0.0,0.0,0.0,0.0,0.0,0.0,0.0,0.0,0.0,0.0,0.0,0.0,0.0,0.0,0.0,0.0,0.0,0.0,0.0,0.0,0.0,0.0,0.0,0.0,0.0,0.0,0.0,0.0,0.0,0.0,0.0,0.0,0.0,0.0,0.0,0.0,0.0,0.0,0.0,0.0,0.0,0.0,0.0,0.0,0.0,0.0,0.0,0.0,0.0,0.0,0.0,0.0,0.0,0.0,0.0,0.0,0.0,0.0,0.0,0.0,0.0,0.0,0.0,0.0,0.0,0.0,-0.7824,-0.7906,-0.7906,0.0,0.0,0.0,0.0,0.0,0.0,0.0,0.0,0.0,0.0,0.0,0.0,0.0,0.0,0.0,0.0,0.0,0.0,0.0,0.0,0.0,0.0,0.0,0.0,0.0,0.0,0.0,0.0,0.0,0.0,0.0,0.0,0.0,0.0,0.0,0.0,0.0,0.0,0.0,0.0,0.0,0.0,0.0,0.0,0.0,0.0,0.0,0.0,0.0,0.0,0.0,0.0,0.0,0.0,0.0,0.0,0.0,0.0,0.0,0.0,0.0,0.0,0.0,0.0,0.0,0.0,0.0,0.0,0.0,0.0,0.0,0.0,0.0,0.0,0.0,0.0,0.0,0.0,0.0,0.0,0.0,0.0,0.0,0.0,0.0,0.0,0.0,0.0,0.0,0.0,0.0,0.0,0.0,0.0,0.0,0.0,0.0,0.0,0.0,0.0,0.0,0.0,0.0,0.0,0.0,0.0,0.0,0.0,0.0,0.0,-0.6981,-0.7002,-0.7593,0.0,-0.7906,0.0,0.0,0.0,0.0,0.0,0.0,0.0,0.0,0.0,0.0,0.0,0.0,0.0,0.0,0.0,0.0,0.0,0.0,0.0,0.0,0.0,0.0,0.0,0.0,0.0,0.0,0.0,0.0,0.0,0.0,0.0,0.0,0.0,0.0,0.0,0.0,0.0,0.0,0.0,0.0,0.0,0.0,0.0,0.0,0.0,0.0,0.0,0.0,0.0,0.0,0.0,0.0,0.0,0.0,0.0,0.0,0.0,0.0,0.0,0.0,0.0,0.0,0.0,0.0,0.0,0.0,0.0,0.0,0.0,0.0,0.0,0.0,0.0,0.0,0.0,0.0,0.0,0.0,0.0,0.0,0.0,0.0,0.0,0.0,0.0,0.0,0.0,0.0,0.0,0.0,0.0,0.0,0.0,0.0,0.0,0.0,0.0,0.0,0.0,0.0,0.0,0.0,0.0,0.0,0.0,0.0,0.0,0.0,0.0,0.0,-0.7098,-0.7481,-0.8147,-0.8312,0.0,0.0,0.0,0.0,0.0,0.0,0.0,0.0,0.0,0.0,0.0,0.0,0.0,0.0,0.0,0.0,0.0,0.0,0.0,0.0,0.0,0.0,0.0,0.0,0.0,0.0,0.0,0.0,0.0,0.0,0.0,0.0,0.0,0.0,0.0,0.0,0.0,0.0,0.0,0.0,0.0,0.0,0.0,0.0,0.0,0.0,0.0,0.0,0.0,0.0,0.0,0.0,0.0,0.0,0.0,0.0,0.0,0.0,0.0,0.0,0.0,0.0,0.0,0.0,0.0,0.0,0.0,0.0,0.0,0.0,0.0,0.0,0.0,0.0,0.0,0.0,0.0,0.0,0.0,0.0,0.0,0.0,0.0,0.0,0.0,0.0,0.0,0.0,0.0,0.0,0.0,0.0,0.0,0.0,0.0,0.0,0.0,0.0,0.0,0.0,0.0,0.0,0.0,0.0,0.0,0.0,0.0,0.0,0.0,0.0,-0.6637,-0.7026,-0.7869,-0.8364,-0.8402,-0.7921,0.0,0.0,0.0,0.0,0.0,0.0,0.0,0.0,0.0,0.0,0.0,0.0,0.0,0.0,0.0,0.0,0.0,0.0,0.0,0.0,0.0,0.0,0.0,0.0,0.0,0.0,0.0,0.0,0.0,0.0,0.0,0.0,0.0,0.0,0.0,0.0,0.0,0.0,0.0,0.0,0.0,0.0,0.0,0.0,0.0,0.0,0.0,0.0,0.0,0.0,0.0,0.0,0.0,0.0,0.0,0.0,0.0,0.0,0.0,0.0,0.0,0.0,0.0,0.0,0.0,0.0,0.0,0.0,0.0,0.0,0.0,0.0,0.0,0.0,0.0,0.0,0.0,0.0,0.0,0.0,0.0,0.0,0.0,0.0,0.0,0.0,0.0,0.0,0.0,0.0,0.0,0.0,0.0,0.0,0.0,0.0,0.0,0.0,0.0,0.0,0.0,0.0,0.0,0.0,0.0,0.0,0.0,0.0,0.0,-0.5978,-0.6586,-0.7854,-0.7929,-0.7944,0.0,0.0,0.0,0.0,0.0,0.0,0.0,0.0,0.0,0.0,0.0,0.0,0.0,0.0,0.0,0.0,0.0,0.0,0.0,0.0,0.0,0.0,0.0,0.0,0.0,0.0,0.0,0.0,0.0,0.0,0.0,0.0,0.0,0.0,0.0,0.0,0.0,0.0,0.0,0.0,0.0,0.0,0.0,0.0,0.0,0.0,0.0,0.0,0.0,0.0,0.0,0.0,0.0,0.0,0.0,0.0,0.0,0.0,0.0,0.0,0.0,0.0,0.0,0.0,0.0,0.0,0.0,0.0,0.0,0.0,0.0,0.0,0.0,0.0,0.0,0.0,0.0,0.0,0.0,0.0,0.0,0.0,0.0,0.0,0.0,0.0,0.0,0.0,0.0,0.0,0.0,0.0,0.0,0.0,0.0,0.0,0.0,0.0,0.0,0.0,0.0,0.0,0.0,0.0,0.0,0.0,0.0,0.0,0.0,-0.655,-0.6972,-0.7406,-0.7877,-0.8304,-0.8342,0.0,0.0,0.0,0.0,0.0,0.0,0.0,0.0,0.0,0.0,0.0,0.0,0.0,0.0,0.0,0.0,0.0,0.0,0.0,0.0,0.0,0.0,0.0,0.0,0.0,0.0,0.0,0.0,0.0,0.0,0.0,0.0,0.0,0.0,0.0,0.0,0.0,0.0,0.0,0.0,0.0,0.0,0.0,0.0,0.0,0.0,0.0,0.0,0.0,0.0,0.0,0.0,0.0,0.0,0.0,0.0,0.0,0.0,0.0,0.0,0.0,0.0,0.0,0.0,0.0,0.0,0.0,0.0,0.0,0.0,0.0,0.0,0.0,0.0,0.0,0.0,0.0,0.0,0.0,0.0,0.0,0.0,0.0,0.0,0.0,0.0,0.0,0.0,0.0,0.0,0.0,0.0,0.0,0.0,0.0,0.0,0.0,0.0,0.0,0.0,0.0,0.0,0.0,0.0,0.0,0.0,0.0,0.0,0.0,-0.6921,0.0,-0.7906,0.0,-0.8327,-0.8349,0.0,0.0,0.0,0.0,0.0,0.0,0.0,0.0,0.0,0.0,0.0,0.0,0.0,0.0,0.0,0.0,0.0,0.0,0.0,0.0,0.0,0.0,0.0,0.0,0.0,0.0,0.0,0.0,0.0,0.0,0.0,0.0,0.0,0.0,0.0,0.0,0.0,0.0,0.0,0.0,0.0,0.0,0.0,0.0,0.0,0.0,0.0,0.0,0.0,0.0,0.0,0.0,0.0,0.0,0.0,0.0,0.0,0.0,0.0,0.0,0.0,0.0,0.0,0.0,0.0,0.0,0.0,0.0,0.0,0.0,0.0,0.0,0.0,0.0,0.0,0.0,0.0,0.0,0.0,0.0,0.0,0.0,0.0,0.0,0.0,0.0,0.0,0.0,0.0,0.0,0.0,0.0,0.0,0.0,0.0,0.0,0.0,0.0,0.0,0.0,0.0,0.0,0.0,0.0,0.0,0.0,0.0,0.0,-0.7017,-0.6974,-0.7637,-0.8019,-0.7921,-0.7959,-0.7929,0.0,0.0,0.0,0.0,0.0,0.0,0.0,0.0,0.0,0.0,0.0,0.0,0.0,0.0,0.0,0.0,0.0,0.0,0.0,0.0,0.0,0.0,0.0,0.0,0.0,0.0,0.0,0.0,0.0,0.0,0.0,0.0,0.0,0.0,0.0,0.0,0.0,0.0,0.0,0.0,0.0,0.0,0.0,0.0,0.0,0.0,0.0,0.0,0.0,0.0,0.0,0.0,0.0,0.0,0.0,0.0,0.0,0.0,0.0,0.0,0.0,0.0,0.0,0.0,0.0,0.0,0.0,0.0,0.0,0.0,0.0,0.0,0.0,0.0,0.0,0.0,0.0,0.0,0.0,0.0,0.0,0.0,0.0,0.0,0.0,0.0,0.0,0.0,0.0,0.0,0.0,0.0,0.0,0.0,0.0,0.0,0.0,0.0,0.0,0.0,0.0,0.0,0.0,0.0,0.0,0.0,0.0,0.0,0.0,-0.9015,-0.959,-0.9479,-0.8642,-0.8582,-0.8394,0.0,0.0,0.0,0.0,0.0,0.0,0.0,0.0,0.0,0.0,0.0,0.0,0.0,0.0,0.0,0.0,0.0,0.0,0.0,0.0,0.0,0.0,0.0,0.0,0.0,0.0,0.0,0.0,0.0,0.0,0.0,0.0,0.0,0.0,0.0,0.0,0.0,0.0,0.0,0.0,0.0,0.0,0.0,0.0,0.0,0.0,0.0,0.0,0.0,0.0,0.0,0.0,0.0,0.0,0.0,0.0,0.0,0.0,0.0,0.0,0.0,0.0,0.0,0.0,0.0,0.0,0.0,0.0,0.0,0.0,0.0,0.0,0.0,0.0,0.0,0.0,0.0,0.0,0.0,0.0,0.0,0.0,0.0,0.0,0.0,0.0,0.0,0.0,0.0,0.0,0.0,0.0,0.0,0.0,0.0,0.0,0.0,0.0,0.0,0.0,0.0,0.0,0.0,0.0,0.0,0.0,0.0,0.0,0.0,-1.1771,-1.1865,-1.1181,-0.9644,-0.9599,-0.9165,-0.8296,0.0,0.0,0.0,0.0,0.0,0.0,0.0,0.0,0.0,0.0,0.0,0.0,0.0,0.0,0.0,0.0,0.0,0.0,0.0,0.0,0.0,0.0,0.0,0.0,0.0,0.0,0.0,0.0,0.0,0.0,0.0,0.0,0.0,0.0,0.0,0.0,0.0,0.0,0.0,0.0,0.0,0.0,0.0,0.0,0.0,0.0,0.0,0.0,0.0,0.0,0.0,0.0,0.0,0.0,0.0,0.0,0.0,0.0,0.0,0.0,0.0,0.0,0.0,0.0,0.0,0.0,0.0,0.0,0.0,0.0,0.0,0.0,0.0,0.0,0.0,0.0,0.0,0.0,0.0,0.0,0.0,0.0,0.0,0.0,0.0,0.0,0.0,0.0,0.0,0.0,0.0,0.0,0.0,0.0,0.0,0.0,0.0,0.0,0.0,0.0,0.0,0.0,0.0,0.0,0.0,0.0,0.0,0.0,-1.4946,-1.441,-1.3139,-1.1051,-1.0932,-1.028,0.0,0.0,0.0,0.0,0.0,0.0,0.0,0.0,0.0,0.0,0.0,0.0,0.0,0.0,0.0,0.0,0.0,0.0,0.0,0.0,0.0,0.0,0.0,0.0,0.0,0.0,0.0,0.0,0.0,0.0,0.0,0.0,0.0,0.0,0.0,0.0,0.0,0.0,0.0,0.0,0.0,0.0,0.0,0.0,0.0,0.0,0.0,0.0,0.0,0.0,0.0,0.0,0.0,0.0,0.0,0.0,0.0,0.0,0.0,0.0,0.0,0.0,0.0,0.0,0.0,0.0,0.0,0.0,0.0,0.0,0.0,0.0,0.0,0.0,0.0,0.0,0.0,0.0,0.0,0.0,0.0,0.0,0.0,0.0,0.0,0.0,0.0,0.0,0.0,0.0,0.0,0.0,0.0,0.0,0.0,0.0,0.0,0.0,0.0,0.0,0.0,0.0,0.0,0.0,0.0,0.0,0.0,0.0,0.0,-1.6921,-1.773,-1.6503,-1.3154,-1.2538,-1.1638,0.0,0.0,0.0,0.0,0.0,0.0,0.0,0.0,0.0,0.0,0.0,0.0,0.0,0.0,0.0,0.0,0.0,0.0,0.0,0.0,0.0,0.0,0.0,0.0,0.0,0.0,0.0,0.0,0.0,0.0,0.0,0.0,0.0,0.0,0.0,0.0,0.0,0.0,0.0,0.0,0.0,0.0,0.0,0.0,0.0,0.0,0.0,0.0,0.0,0.0,0.0,0.0,0.0,0.0,0.0,0.0,0.0,0.0,0.0,0.0,0.0,0.0,0.0,0.0,0.0,0.0,0.0,0.0,0.0,0.0,0.0,0.0,0.0,0.0,0.0,0.0,0.0,0.0,0.0,0.0,0.0,0.0,0.0,0.0,0.0,0.0,0.0,0.0,0.0,0.0,0.0,0.0,0.0,0.0,0.0,0.0,0.0,0.0,0.0,0.0,0.0,0.0,0.0,0.0,0.0,0.0,0.0,0.0,-1.7236,-1.8523,-2.0124,-1.9333,-1.5935,-1.4421,-1.2847,0.0,0.0,0.0,0.0,0.0,0.0,0.0,0.0,0.0,0.0,0.0,0.0,0.0,0.0,0.0,0.0,0.0,0.0,0.0,0.0,0.0,0.0,0.0,0.0,0.0,0.0,0.0,0.0,0.0,0.0,0.0,0.0,0.0,0.0,0.0,0.0,0.0,0.0,0.0,0.0,0.0,0.0,0.0,0.0,0.0,0.0,0.0,0.0,0.0,0.0,0.0,0.0,0.0,0.0,0.0,0.0,0.0,0.0,0.0,0.0,0.0,0.0,0.0,0.0,0.0,0.0,0.0,0.0,0.0,0.0,0.0,0.0,0.0,0.0,0.0,0.0,0.0,0.0,0.0,0.0,0.0,0.0,0.0,0.0,0.0,0.0,0.0,0.0,0.0,0.0,0.0,0.0,0.0,0.0,0.0,0.0,0.0,0.0,0.0,0.0,0.0,0.0,0.0,0.0,0.0,0.0,0.0,0.0,-1.8506,-1.9813,-2.1759,-2.155,-1.8972,-1.6368,-1.4025,0.0,0.0,0.0,0.0,0.0,0.0,0.0,0.0,0.0,0.0,0.0,0.0,0.0,0.0,0.0,0.0,0.0,0.0,0.0,0.0,0.0,0.0,0.0,0.0,0.0,0.0,0.0,0.0,0.0,0.0,0.0,0.0,0.0,0.0,0.0,0.0,0.0,0.0,0.0,0.0,0.0,0.0,0.0,0.0,0.0,0.0,0.0,0.0,0.0,0.0,0.0,0.0,0.0,0.0,0.0,0.0,0.0,0.0,0.0,0.0,0.0,0.0,0.0,0.0,0.0,0.0,0.0,0.0,0.0,0.0,0.0,0.0,0.0,0.0,0.0,0.0,0.0,0.0,0.0,0.0,0.0,0.0,0.0,0.0,0.0,0.0,0.0,0.0,0.0,0.0,0.0,0.0,0.0,0.0,0.0,0.0,0.0,0.0,0.0,0.0,0.0,0.0,0.0,0.0,0.0,0.0,0.0,0.0,-1.9678,-2.0498,-2.2398,-2.2413,-2.0314,-1.7682,-1.5325,0.0,0.0,0.0,0.0,0.0,0.0,0.0,0.0,0.0,0.0,0.0,0.0,0.0,0.0,0.0,0.0,0.0,0.0,0.0,0.0,0.0,0.0,0.0,0.0,0.0,0.0,0.0,0.0,0.0,0.0,0.0,0.0,0.0,0.0,0.0,0.0,0.0,0.0,0.0,0.0,0.0,0.0,0.0,0.0,0.0,0.0,0.0,0.0,-0.6175,0.0,0.0,0.0,0.0,0.0,0.0,0.0,0.0,0.0,0.0,0.0,0.0,0.0,0.0,0.0,0.0,0.0,0.0,0.0,0.0,0.0,0.0,0.0,0.0,0.0,0.0,0.0,0.0,0.0,0.0,0.0,0.0,0.0,0.0,0.0,0.0,0.0,0.0,0.0,0.0,0.0,0.0,0.0,0.0,0.0,0.0,0.0,0.0,0.0,0.0,0.0,0.0,0.0,0.0,0.0,0.0,0.0,0.0,0.0,-2.0782,-2.2054,-2.3364,-2.314,-2.1181,-1.8879,-1.6532,0.0,0.0,0.0,0.0,0.0,0.0,0.0,0.0,0.0,0.0,0.0,0.0,0.0,0.0,0.0,0.0,0.0,0.0,0.0,0.0,0.0,0.0,0.0,0.0,0.0,0.0,0.0,0.0,0.0,0.0,0.0,0.0,0.0,0.0,0.0,0.0,0.0,0.0,0.0,0.0,0.0,0.0,0.0,0.0,0.0,0.0,0.0,0.0,0.0,0.0,0.0,0.0,0.0,0.0,0.0,0.0,0.0,0.0,0.0,0.0,0.0,0.0,0.0,0.0,0.0,0.0,0.0,0.0,0.0,0.0,0.0,0.0,0.0,0.0,0.0,0.0,0.0,0.0,0.0,0.0,0.0,0.0,0.0,0.0,0.0,0.0,0.0,0.0,0.0,0.0,0.0,0.0,0.0,0.0,0.0,0.0,0.0,0.0,0.0,0.0,0.0,0.0,0.0,0.0,0.0,0.0,0.0,-1.9361,-2.1934,-2.355,-2.4545,-2.4022,-2.1904,-2.0004,-1.7713,-1.4924,0.0,0.0,0.0,0.0,0.0,0.0,0.0,0.0,0.0,0.0,0.0,0.0,0.0,0.0,0.0,0.0,0.0,0.0,0.0,0.0,0.0,0.0,0.0,0.0,0.0,0.0,0.0,0.0,0.0,0.0,0.0,0.0,0.0,0.0,0.0,0.0,0.0,0.0,-0.5061,-0.559,0.0,0.0,0.0,0.0,0.0,0.0,0.0,0.0,-0.537,0.0,0.0,0.0,0.0,0.0,0.0,0.0,0.0,0.0,0.0,0.0,0.0,0.0,0.0,0.0,0.0,0.0,0.0,0.0,0.0,0.0,0.0,0.0,0.0,0.0,0.0,0.0,0.0,0.0,0.0,0.0,0.0,0.0,0.0,0.0,0.0,0.0,0.0,0.0,0.0,0.0,0.0,0.0,0.0,0.0,0.0,0.0,0.0,0.0,0.0,0.0,0.0,0.0,0.0,0.0,0.0,-1.6532,-2.0882,-2.3281,-2.3625,-2.5908,-2.5653,-2.2658,-2.1126,-1.8847,-1.5667,0.0,0.0,0.0,0.0,0.0,0.0,0.0,0.0,0.0,0.0,0.0,0.0,0.0,0.0,0.0,0.0,0.0,0.0,0.0,0.0,0.0,0.0,0.0,0.0,0.0,0.0,0.0,0.0,0.0,0.0,0.0,0.0,0.0,0.0,0.0,0.0,0.0,0.0,0.0,-0.6261,-0.6659,0.0,0.0,0.0,0.0,0.0,0.0,0.0,0.0,-0.6312,0.0,0.0,0.0,0.0,0.0,0.0,0.0,0.0,0.0,0.0,0.0,0.0,0.0,0.0,0.0,0.0,0.0,0.0,0.0,0.0,0.0,0.0,0.0,0.0,0.0,0.0,0.0,0.0,0.0,0.0,0.0,0.0,0.0,0.0,0.0,0.0,0.0,0.0,0.0,0.0,0.0,0.0,0.0,0.0,0.0,0.0,0.0,0.0,0.0,0.0,0.0,0.0,0.0,0.0,0.0,-1.8222,-2.1784,-2.4268,-2.5653,-2.6926,-2.6357,-2.3744,-2.141,-1.8758,0.0,0.0,0.0,0.0,0.0,0.0,0.0,0.0,0.0,0.0,0.0,0.0,0.0,0.0,0.0,0.0,0.0,0.0,0.0,0.0,0.0,0.0,0.0,0.0,0.0,0.0,0.0,0.0,0.0,0.0,0.0,0.0,0.0,0.0,0.0,0.0,0.0,0.0,0.0,0.0,-0.6704,-0.7152,-0.7716,0.0,0.0,0.0,0.0,0.0,0.0,-0.6848,-0.6761,0.0,0.0,0.0,0.0,0.0,0.0,0.0,0.0,0.0,0.0,0.0,0.0,0.0,0.0,0.0,0.0,0.0,0.0,0.0,0.0,0.0,0.0,0.0,0.0,0.0,0.0,0.0,0.0,0.0,0.0,0.0,0.0,0.0,0.0,0.0,0.0,0.0,0.0,0.0,0.0,0.0,0.0,0.0,0.0,0.0,0.0,0.0,0.0,0.0,0.0,0.0,0.0,0.0,0.0,0.0,-1.9636,-2.2553,-2.5151,-2.748,-2.7854,-2.7001,-2.4829,-2.1754,-1.8758,0.0,0.0,0.0,0.0,0.0,0.0,0.0,0.0,0.0,0.0,0.0,0.0,0.0,0.0,0.0,0.0,0.0,0.0,0.0,0.0,0.0,0.0,0.0,0.0,0.0,0.0,0.0,0.0,0.0,0.0,0.0,0.0,0.0,0.0,0.0,0.0,0.0,0.0,0.0,0.0,0.0,-0.7987,-0.8759,-0.8684,0.0,0.0,0.0,0.0,-0.7545,-0.7618,0.0,0.0,0.0,0.0,0.0,0.0,0.0,0.0,0.0,0.0,0.0,0.0,0.0,0.0,0.0,0.0,0.0,0.0,0.0,0.0,0.0,0.0,0.0,0.0,0.0,0.0,0.0,0.0,0.0,0.0,0.0,0.0,0.0,0.0,0.0,0.0,0.0,0.0,0.0,0.0,0.0,0.0,0.0,0.0,0.0,0.0,0.0,0.0,0.0,0.0,0.0,0.0,0.0,0.0,0.0,0.0,-1.9734,-2.3467,-2.6078,-2.7555,-2.8753,-2.8154,-2.5531,-2.2877,-1.9904,0.0,0.0,0.0,0.0,0.0,0.0,0.0,0.0,0.0,0.0,0.0,0.0,0.0,0.0,0.0,0.0,0.0,0.0,0.0,0.0,0.0,0.0,0.0,0.0,0.0,0.0,0.0,0.0,0.0,0.0,0.0,0.0,0.0,0.0,0.0,0.0,0.0,0.0,0.0,0.0,0.0,-0.9616,-0.9216,-1.0012,-1.0262,0.0,0.0,-0.956,-0.9045,-0.9407,0.0,0.0,0.0,0.0,0.0,0.0,0.0,0.0,0.0,0.0,0.0,0.0,0.0,0.0,0.0,0.0,0.0,0.0,0.0,0.0,0.0,0.0,0.0,0.0,0.0,0.0,0.0,0.0,0.0,0.0,0.0,0.0,0.0,0.0,0.0,0.0,0.0,0.0,0.0,0.0,0.0,0.0,0.0,0.0,0.0,0.0,0.0,0.0,0.0,0.0,0.0,0.0,0.0,0.0,0.0,-1.6682,-2.0975,-2.4432,-2.6991,-2.8693,-2.9624,-2.8846,-2.6228,-2.3625,-2.0669,0.0,0.0,0.0,0.0,0.0,0.0,0.0,0.0,0.0,0.0,0.0,0.0,0.0,0.0,0.0,0.0,0.0,0.0,0.0,0.0,0.0,0.0,0.0,0.0,0.0,0.0,0.0,0.0,0.0,0.0,0.0,0.0,0.0,0.0,0.0,0.0,0.0,0.0,0.0,0.0,0.0,0.0,-1.0953,-1.1167,0.0,0.0,0.0,-1.1047,-1.1456,0.0,0.0,0.0,0.0,0.0,0.0,0.0,0.0,0.0,0.0,0.0,0.0,0.0,0.0,0.0,0.0,0.0,0.0,0.0,0.0,0.0,0.0,0.0,0.0,0.0,0.0,0.0,0.0,0.0,0.0,0.0,0.0,0.0,0.0,0.0,0.0,0.0,0.0,0.0,0.0,0.0,0.0,0.0,0.0,0.0,0.0,0.0,0.0,0.0,0.0,0.0,0.0,0.0,0.0,0.0,0.0,0.0,-2.1914,-2.5025,-2.7585,-2.9532,-3.0043,-2.916,-2.6911,-2.417,0.0,0.0,0.0,0.0,0.0,0.0,0.0,0.0,0.0,0.0,0.0,0.0,0.0,0.0,0.0,0.0,0.0,0.0,0.0,0.0,0.0,0.0,0.0,0.0,0.0,0.0,0.0,-0.4071,0.0,0.0,0.0,0.0,0.0,0.0,0.0,0.0,0.0,0.0,0.0,0.0,0.0,0.0,-1.1446,-1.2546,-1.2439,-1.2524,0.0,0.0,-1.2524,-1.3263,-1.2617,-1.1812,0.0,0.0,0.0,0.0,0.0,0.0,0.0,0.0,0.0,0.0,0.0,0.0,0.0,0.0,0.0,0.0,0.0,0.0,0.0,0.0,0.0,0.0,0.0,0.0,0.0,0.0,0.0,0.0,0.0,0.0,0.0,0.0,0.0,0.0,0.0,0.0,0.0,0.0,0.0,0.0,0.0,0.0,0.0,0.0,0.0,0.0,0.0,0.0,0.0,0.0,0.0,0.0,0.0,0.0,0.0,-2.1825,-2.5002,-2.759,-2.9532,-2.9624,-2.8978,-2.7525,-2.441,-2.1406,0.0,0.0,0.0,0.0,0.0,0.0,0.0,0.0,0.0,0.0,0.0,0.0,0.0,0.0,0.0,0.0,0.0,0.0,0.0,0.0,0.0,0.0,0.0,0.0,0.0,0.0,0.0,0.0,0.0,0.0,0.0,0.0,0.0,0.0,0.0,0.0,0.0,0.0,0.0,0.0,0.0,-1.2704,-1.3428,-1.3949,-1.4125,0.0,0.0,-1.414,-1.3651,-1.3466,-1.2906,-1.1612,0.0,0.0,0.0,0.0,0.0,0.0,0.0,0.0,0.0,0.0,0.0,0.0,0.0,0.0,0.0,0.0,0.0,0.0,0.0,0.0,0.0,0.0,0.0,0.0,0.0,0.0,0.0,0.0,0.0,0.0,0.0,0.0,0.0,0.0,0.0,0.0,0.0,0.0,0.0,0.0,0.0,0.0,0.0,0.0,0.0,0.0,0.0,0.0,0.0,0.0,0.0,0.0,0.0,-1.8353,-2.2535,-2.6047,-2.8592,-3.0073,-3.0148,-2.9352,-2.763,-2.5593,-2.2862,0.0,0.0,0.0,0.0,0.0,0.0,0.0,0.0,0.0,0.0,0.0,0.0,0.0,0.0,0.0,0.0,0.0,0.0,0.0,0.0,0.0,0.0,0.0,0.0,0.0,0.0,0.0,0.0,-0.5297,-0.5486,-0.6422,0.0,0.0,0.0,0.0,0.0,0.0,0.0,0.0,0.0,0.0,-1.3118,-1.4193,-1.4537,0.0,0.0,-1.479,-1.476,-1.4937,-1.4241,-1.3479,-1.2853,-1.1392,0.0,0.0,0.0,0.0,0.0,0.0,0.0,0.0,0.0,0.0,0.0,0.0,0.0,0.0,0.0,0.0,0.0,0.0,0.0,0.0,0.0,0.0,0.0,0.0,0.0,0.0,0.0,0.0,0.0,0.0,0.0,0.0,0.0,0.0,0.0,0.0,0.0,0.0,0.0,0.0,0.0,0.0,0.0,0.0,0.0,0.0,0.0,0.0,0.0,0.0,0.0,0.0,-1.9122,-2.2904,-2.6669,-2.9131,-3.0208,-3.0223,-2.9475,-2.7944,-2.6228,-2.3729,0.0,0.0,0.0,0.0,0.0,0.0,0.0,0.0,0.0,0.0,0.0,0.0,0.0,0.0,0.0,0.0,0.0,0.0,0.0,0.0,0.0,0.0,0.0,0.0,0.0,0.0,0.0,0.0,-0.6201,-0.6386,-0.6867,0.0,0.0,0.0,0.0,0.0,0.0,0.0,0.0,0.0,0.0,-1.3867,-1.5186,-1.5545,-1.583,-1.6308,-1.5979,-1.5755,-1.6009,-1.4975,-1.4055,-1.3951,0.0,0.0,0.0,0.0,0.0,0.0,0.0,0.0,0.0,0.0,0.0,0.0,0.0,0.0,0.0,0.0,0.0,0.0,0.0,0.0,0.0,0.0,0.0,0.0,0.0,0.0,0.0,0.0,0.0,0.0,-0.9055,0.0,0.0,0.0,0.0,0.0,0.0,0.0,0.0,0.0,0.0,0.0,0.0,0.0,0.0,0.0,0.0,0.0,0.0,0.0,0.0,0.0,0.0,-1.9502,-2.2786,-2.6636,-2.8921,-2.9636,-2.9636,-2.928,-2.8532,-2.601,-2.3693,-2.162,0.0,0.0,0.0,0.0,0.0,0.0,0.0,0.0,0.0,0.0,0.0,0.0,0.0,0.0,0.0,0.0,0.0,0.0,0.0,0.0,0.0,0.0,0.0,0.0,0.0,0.0,-0.6876,-0.6876,-0.6891,0.0,0.0,0.0,0.0,0.0,0.0,0.0,0.0,0.0,0.0,-1.3912,-1.5216,-1.6473,-1.7204,-1.7609,-1.7669,-1.7639,-1.7414,-1.6771,-1.5606,-1.4754,0.0,0.0,0.0,0.0,0.0,0.0,0.0,0.0,0.0,0.0,0.0,0.0,0.0,0.0,0.0,0.0,0.0,0.0,0.0,0.0,0.0,0.0,0.0,0.0,0.0,0.0,0.0,-1.4815,-1.4352,0.0,0.0,0.0,0.0,0.0,0.0,0.0,0.0,0.0,0.0,0.0,-2.0393,-2.1021,0.0,0.0,0.0,0.0,0.0,0.0,0.0,0.0,0.0,0.0,0.0,0.0,-1.9591,-2.3278,-2.6357,-2.8678,-3.0118,-2.9789,-2.9292,-2.8607,-2.6871,-2.3947,-1.9839,0.0,0.0,0.0,0.0,0.0,0.0,0.0,0.0,0.0,0.0,0.0,0.0,0.0,0.0,0.0,0.0,0.0,0.0,0.0,0.0,0.0,0.0,0.0,0.0,0.0,-0.7563,0.0,0.0,0.0,0.0,0.0,0.0,0.0,0.0,0.0,0.0,0.0,-1.1969,-1.3301,-1.4242,-1.5426,-1.7115,-1.7938,-1.8506,0.0,0.0,0.0,0.0,0.0,0.0,0.0,0.0,0.0,0.0,0.0,0.0,0.0,0.0,-1.1507,-1.0574,-0.9922,-0.9118,-0.7731,0.0,0.0,0.0,0.0,0.0,0.0,0.0,0.0,0.0,0.0,0.0,0.0,0.0,0.0,-1.8745,0.0,-1.6712,0.0,0.0,0.0,0.0,0.0,0.0,0.0,0.0,-2.3586,-2.468,-2.4133,-2.4956,-2.5465,0.0,-2.5674,-2.4238,0.0,0.0,0.0,0.0,0.0,0.0,0.0,0.0,-2.0344,-2.358,-2.6677,-2.8933,-3.0103,-2.9998,-2.9594,-2.8936,-2.6961,-2.3744,-1.9181,-1.7176,-1.5126,0.0,0.0,0.0,0.0,0.0,0.0,0.0,0.0,0.0,0.0,0.0,0.0,0.0,0.0,0.0,0.0,0.0,0.0,0.0,0.0,0.0,0.0,0.0,-0.7906,0.0,0.0,0.0,0.0,0.0,0.0,0.0,0.0,0.0,-1.0573,-1.1895,-1.3241,-1.4348,-1.5261,-1.6548,-1.856,0.0,0.0,0.0,0.0,0.0,0.0,0.0,-1.6398,-1.7042,-1.7879,-1.8296,-1.7833,-1.7126,-1.6142,-1.4573,0.0,0.0,-1.2307,-1.1473,-1.0587,-0.9017,-0.9571,-0.9976,-0.8934,-0.9732,-1.0659,0.0,0.0,0.0,0.0,0.0,0.0,0.0,0.0,-2.4073,-2.2742,0.0,-1.9552,0.0,0.0,0.0,0.0,0.0,0.0,0.0,0.0,-2.6522,-2.8094,-2.8622,-2.8682,-2.9041,-2.9681,-2.9579,-2.922,-2.8338,-2.3445,0.0,0.0,0.0,0.0,0.0,0.0,-2.166,-2.3684,-2.7495,-2.9547,-2.9636,-3.0178,-3.0178,-2.9472,-2.6348,-2.311,-1.9977,-1.9076,-1.7535,-1.5037,-1.3598,0.0,0.0,0.0,0.0,0.0,0.0,0.0,0.0,0.0,0.0,0.0,0.0,0.0,0.0,0.0,0.0,0.0,0.0,0.0,0.0,-0.7563,0.0,0.0,0.0,0.0,0.0,0.0,0.0,0.0,0.0,0.0,-1.2051,-1.3688,-1.5155,-1.5844,0.0,0.0,0.0,0.0,-2.3412,-2.397,-2.3569,-2.2919,-2.2056,-2.0189,-1.9061,-1.9723,0.0,0.0,-2.0097,-1.9233,-1.8268,-1.6816,-1.7038,-1.6843,-1.466,-1.3381,-1.2255,-1.1085,-1.1365,-1.1595,-1.1106,-1.1783,-1.2706,-3.0567,0.0,0.0,0.0,0.0,-2.7255,-2.8517,-2.9463,-2.8353,-2.729,-2.6198,-2.3902,0.0,0.0,0.0,0.0,0.0,0.0,-2.5719,-2.729,-2.9879,-3.0928,-3.0688,-3.118,-3.1495,-3.1659,-3.1195,-3.0881,-3.0539,-2.7769,-2.4717,-2.155,0.0,0.0,0.0,0.0,-2.1884,-2.4306,-2.6856,-2.8648,-2.9592,-3.0178,-2.9744,-2.8214,-2.5845,-2.3723,-2.1894,-2.0292,-1.8852,-1.7625,-1.5426,0.0,0.0,0.0,0.0,0.0,0.0,0.0,0.0,0.0,0.0,0.0,0.0,0.0,0.0,0.0,0.0,0.0,0.0,0.0,-0.8214,-0.8934,-0.9345,0.0,0.0,0.0,0.0,0.0,0.0,0.0,0.0,0.0,-1.5532,-1.6351,-1.7296,0.0,0.0,-2.1192,-2.2874,-2.4533,-2.5666,-2.5812,0.0,0.0,0.0,-2.2425,-2.1754,-2.2383,-2.361,-2.4208,-2.3334,-2.2273,-2.1072,-1.9689,-1.8855,-1.8123,-1.7494,-1.5921,-1.4216,-1.2724,-1.2762,-1.2975,-1.246,-1.2927,-1.3525,-3.6327,-3.2183,-3.115,-3.0717,-3.0836,-3.2123,-3.344,-3.453,-3.326,-3.2183,-3.1195,-2.879,-2.6901,-2.5413,-2.4732,0.0,0.0,0.0,-2.952,-3.0627,-3.2991,-3.3724,-3.3155,-3.3784,-3.3799,-3.329,-3.2886,-3.2542,-3.2258,-3.112,-2.9071,-2.6123,0.0,0.0,-2.1635,-2.2303,-2.3543,-2.5397,-2.7604,-2.9146,-2.9966,-3.0073,-2.9325,-2.7645,-2.5914,-2.4261,-2.2748,-2.128,-2.0049,-1.9106,-1.6832,-1.4649,0.0,0.0,0.0,0.0,0.0,0.0,0.0,0.0,0.0,0.0,0.0,-0.5675,-0.661,0.0,0.0,0.0,-0.7533,-0.8147,-0.9197,-1.0118,0.0,0.0,0.0,0.0,0.0,0.0,0.0,-1.4,-1.5515,-1.7122,-1.8843,-2.0039,-2.0734,-2.0771,-2.1914,-2.3336,-2.4935,0.0,-2.7375,-2.7706,-2.7485,-2.6889,-2.5762,-2.4713,-2.4371,-2.5428,-2.5749,-2.5749,-2.5083,-2.3924,-2.2637,-2.135,-2.0228,-1.9403,-1.9151,-1.7845,-1.6233,-1.4408,-1.4302,-1.4333,-1.3732,-1.4122,-1.4601,-4.098,-3.9694,-3.7285,-3.6103,-3.5938,-3.7135,-3.8362,-3.9439,-3.8147,-3.6911,-3.5609,-3.3694,-3.1749,-2.9864,-2.9265,0.0,0.0,-3.1898,-3.308,-3.3799,-3.5684,-3.6237,-3.5699,-3.6207,-3.5866,-3.4668,-3.4503,-3.4114,-3.3499,-3.341,-3.2796,-3.1466,-2.6737,-2.4537,-2.5008,-2.5615,-2.6243,-2.6931,-2.934,-3.0567,-3.0582,-2.9924,-2.8978,-2.7615,-2.6303,-2.4717,-2.2868,-2.2074,-2.1111,-1.9887,-1.7893,-1.592,-1.4064,0.0,0.0,0.0,0.0,0.0,0.0,0.0,0.0,0.0,0.0,0.0,0.0,0.0,0.0,0.0,-0.8859,0.0,-1.0144,-1.1356,0.0,0.0,0.0,-1.2135,-1.2148,-1.3282,-1.4703,-1.6263,0.0,0.0,0.0,0.0,-2.4968,-2.3245,-2.4104,-2.543,-2.7008,-2.7991,-2.8804,-2.9399,-2.8922,-2.8325,-2.7805,-2.6957,-2.687,-2.8255,-2.7679,-2.6677,-2.5899,-2.4702,-2.337,-2.2113,-2.1276,-2.0554,-1.9899,-1.9121,-1.8164,-1.6428,-1.6023,-1.5754,-1.526,-1.5545,-1.5934,-4.4182,-4.3853,-4.3225,-4.1235,-3.8536,-3.9349,-4.0157,-4.0816,-4.0053,-3.8945,-3.7599,-3.6193,-3.4442,-3.2557,-3.2407,-3.2691,-3.3395,-3.4337,-3.5145,-3.5818,-3.6746,-3.7105,-3.6956,-3.6641,-3.636,-3.5923,-3.4457,-3.3649,-3.3469,-3.2991,-3.2557,-3.2198,-3.0972,-2.9729,-2.8483,-2.8562,-2.8951,-2.9564,-3.0673,-3.1256,-3.1241,-3.0178,-2.8978,-2.763,-2.6303,-2.4911,-2.343,-2.2308,-2.1545,-2.1186,-1.8805,-1.6802,-1.5395,-1.3568,0.0,0.0,0.0,0.0,0.0,0.0,0.0,0.0,0.0,-0.9097,-0.9405,0.0,-1.0707,0.0,-1.1929,-1.2703,-1.287,-1.4062,0.0,0.0,-1.4975,-1.5012,-1.5005,-1.5866,-1.7246,-1.9216,-2.0512,-2.1919,-2.3753,-2.6488,-2.8306,-2.8338,-2.8742,-2.9281,-2.9897,-3.0337,-3.0511,-3.0179,-2.9966,-2.9664,-2.9256,-2.9159,-2.9305,-2.9933,-2.937,-2.8498,-2.733,-2.6019,-2.4679,-2.3385,-2.2218,-2.1291,-2.0587,-1.954,-1.8882,-1.8689,-1.7969,-1.7205,-1.7041,-1.7145,-1.725,-4.5574,-4.5289,-4.5289,-4.4032,-4.2043,-4.2117,-4.2342,-4.2611,-4.1683,-4.0883,-4.0098,-3.9131,-3.8048,-3.703,-3.7,-3.7045,-3.7169,-3.7509,-3.7734,-3.7808,-3.8153,-3.8138,-3.7838,-3.7494,-3.6896,-3.6013,-3.4607,-3.3769,-3.3484,-3.3125,-3.311,-3.338,-3.3694,-3.3305,-3.2228,-3.133,-3.1046,-3.1405,-3.175,-3.1929,-3.1884,-3.0402,-2.8978,-2.763,-2.6303,-2.4971,-2.3655,-2.2637,-2.1994,-2.1665,-1.972,-1.7864,-1.6293,-1.4901,-1.3265,0.0,0.0,0.0,0.0,0.0,0.0,0.0,0.0,0.0,0.0,0.0,-1.3376,0.0,-1.4933,0.0,-1.6383,-1.7625,-1.835,-1.8196,-1.8312,-1.8098,-1.7118,-1.8192,-1.9763,-2.1729,-2.2818,-2.4141,-2.6142,-2.8531,-3.0745,-3.2357,-3.2718,-3.2475,-3.1788,-3.1577,-3.1407,-3.1368,-3.1061,-3.0888,-3.0812,-3.0848,-3.0799,-3.0676,-3.0147,-2.9147,-2.749,-2.6303,-2.5091,-2.352,-2.2628,-2.1919,-2.1246,-2.0602,-2.0183,-2.0348,-2.0019,-1.9331,-1.87,-1.858,-1.8538,-4.6112,-4.5559,-4.5559,-4.5544,-4.5484,-4.4855,-4.4481,-4.4242,-4.3054,-4.2485,-4.2366,-4.1707,-4.1339,-4.1287,-4.116,-4.0771,-4.0157,-4.0053,-3.9709,-3.9185,-3.9245,-3.896,-3.8392,-3.8377,-3.7464,-3.5744,-3.4876,-3.4188,-3.3634,-3.3544,-3.3829,-3.4518,-3.5175,-3.5489,-3.5429,-3.3769,-3.2826,-3.2766,-3.2766,-3.2677,-3.2467,-3.0672,-2.9037,-2.763,-2.6303,-2.4926,-2.355,-2.2987,-2.2388,-2.1714,-2.0427,-1.8897,-1.7174,-1.6353,-1.5109,0.0,-1.3175,0.0,0.0,0.0,0.0,0.0,0.0,0.0,0.0,-1.5171,-1.5665,-1.6845,-1.7637,-1.8595,-1.9824,-2.1141,-2.1794,-2.1436,-2.1676,-2.1098,-1.9311,-2.0412,-2.2021,-2.3654,-2.4612,-2.6022,-2.8296,-3.0269,-3.2441,-3.4566,-3.511,-3.4553,-3.3168,-3.2247,-3.2034,-3.2624,-3.2095,-3.1788,-3.224,-3.2143,-3.1732,-3.1133,-3.027,-2.9007,-2.6995,-2.6004,-2.4911,-2.3197,-2.2658,-2.2403,-2.1799,-2.1724,-2.1829,-2.1889,-2.1964,-2.156,-2.0352,-1.9962,-1.972,-4.704,-4.692,-4.692,-4.692,-4.6875,-4.6217,-4.5319,-4.4257,-4.3494,-4.2851,-4.2366,-4.1707,-4.1085,-4.0561,-4.0038,-3.9424,-3.8736,-3.8212,-3.7913,-3.7808,-3.8347,-3.8512,-3.8377,-3.8377,-3.7928,-3.6971,-3.5295,-3.4444,-3.4309,-3.3739,-3.3829,-3.4518,-3.5175,-3.5489,-3.5474,0.0,0.0,0.0,-3.4129,-3.3589,-3.2482,-3.1076,-2.9445,-2.7645,-2.6288,0.0,-2.2987,-2.2763,-2.2403,-2.1729,-2.0427,0.0,0.0,0.0,0.0,0.0,0.0,0.0,0.0,0.0,0.0,0.0,-2.0427,-1.9798,-1.74,-1.716,-1.7474,-1.8252,-1.9432,-2.0449,-2.1261,-2.2473,-2.3312,-2.3421,-2.3753,-2.3554,-2.2649,-2.2808,-2.327,-2.4026,-2.51,-2.6695,-2.8939,-3.1095,-3.2813,-3.4054,-3.4675,-3.4703,-3.4064,-3.3407,-3.2955,-3.256,-3.2478,-3.2603,-3.3179,-3.2975,-3.2415,-3.1529,-3.0242,-2.8723,-2.7015,-2.5803,-2.462,-2.3032,-2.2523,-2.2313,-2.1814,-2.2134,-2.2748,-2.3161,-2.3663,-2.3498,-2.1724,-2.1335,-2.1111,-4.7309,0.0,-4.7309,-4.7309,0.0,-4.6606,-4.5891,-4.5203,-4.4586,-4.3928,-4.3314,-4.297,-4.2117,-4.0846,-4.0202,-3.917,-3.7868,-3.724,-3.6956,-3.7,-3.7943,-3.8377,-3.8407,-3.9065,-3.8691,-3.7375,-3.6103,-3.531,-3.4981,-3.4651,-3.4831,-3.5474,-3.6118,-3.6297,-3.5983,-3.5669,-3.534,-3.4996,-3.4683,-3.4174,-3.3455,-3.1869,-3.0238,-2.8618,0.0,0.0,0.0,0.0,0.0,0.0,0.0,0.0,0.0,0.0,0.0,-1.7776,-1.803,-1.8525,-1.9184,-2.0412,-2.1844,-2.349,-2.3939,-2.3011,-2.0363,-1.9869,-2.0094,-2.1036,-2.2353,-2.3535,-2.4522,-2.5803,-2.6543,-2.6448,-2.642,-2.615,-2.5489,-2.493,-2.4442,-2.4256,-2.5481,-2.7254,-2.9383,-3.1018,-3.2662,-3.3991,-3.4528,-3.4681,-3.4294,-3.3647,-3.3119,-3.3336,-3.4103,-3.4676,-3.498,-3.4347,-3.3383,-3.2284,-3.0709,-2.9042,-2.7365,-2.6297,-2.5099,-2.3601,-2.3392,-2.3437,-2.2877,-2.343,-2.4328,-2.4881,-2.5091,-2.4993,-2.4148,-2.361,-2.2847,-4.7309,-4.7309,-4.7309,-4.7309,-4.7264,-4.6726,-4.6501,-4.6441,0.0,0.0,0.0,-4.4317,-4.3225,-4.1369,-4.0696,-3.9305,-3.7404,-3.6776,-3.6492,-3.6552,-3.7808,-3.8377,-3.8452,-3.9768,-3.9424,-3.7599,-3.6956,-3.6357,-3.5848,-3.5744,-3.6013,-3.6641,-3.7165,-3.709,-3.6477,-3.5833,-3.5489,-3.5474,-3.4951,-3.4592,-3.4459,-3.2662,-3.1047,-2.9801,-2.8364,-2.6731,-2.4859,-2.4769,-2.4455,-2.3804,-2.3295,-2.2832,-2.2398,-2.1754,-2.1201,-2.0812,-2.138,-2.2278,-2.3482,-2.4155,-2.5241,-2.7006,-2.6512,-2.53,-2.3377,-2.2488,-2.2517,-2.3684,-2.5001,-2.6258,-2.7495,-2.8798,-2.9462,-2.9085,-2.8838,-2.8395,-2.758,-2.6671,-2.5607,-2.4724,-2.5707,-2.7444,-2.9371,-3.0645,-3.2054,-3.3825,-3.4358,-3.4452,-3.4137,-3.3576,-3.3503,-3.441,-3.5424,-3.6443,-3.658,-3.5782,-3.4484,-3.3041,-3.1374,-2.9663,-2.8151,-2.6896,-2.5653,-2.4298,-2.4784,-2.4979,-2.4433,-2.5226,-2.6258,-2.6826,-2.6632,-2.6378,-2.6557,-2.5914,-2.4649,-4.7309,-4.7309,-4.7309,-4.7309,-4.7309,-4.7204,-4.7174,-4.707,-4.5843,-4.493,-4.4332,-4.4317,-4.3225,-4.1339,-4.0696,-3.9305,-3.7404,-3.6761,-3.6492,0.0,-3.7828,-3.8377,-3.8467,-3.9768,-3.9649,-3.8287,-3.7599,-3.724,-3.709,-3.6611,-3.6656,-3.7225,-3.7375,-3.7105,-3.6492,-3.5833,-3.5489,-3.5489,-3.5415,-3.507,-3.4488,-3.3095,-3.1734,-3.0387,-2.8603,-2.6941,-2.5516,-2.5472,-2.5143,-2.45,-2.438,-2.453,-2.5001,-2.4395,-2.4261,-2.4762,-2.5405,-2.6093,-2.6836,-2.754,-2.8263,-2.9052,-2.8547,-2.7335,-2.5375,-2.4044,-2.3655,-2.444,-2.5764,-2.6752,-2.757,-2.8873,-2.969,-2.9704,-2.9787,-2.9342,-2.8178,-2.7425,-2.6715,-2.5853,-2.5829,-2.672,-2.866,-2.9997,-3.1286,-3.2679,-3.3582,-3.3826,-3.3834,-3.3846,-3.437,-3.5273,-3.591,-3.6365,-3.6617,-3.6188,-3.4993,-3.3628,-3.202,-3.0384,-2.882,-2.7081,-2.5884,-2.5405,-2.6387,-2.6806,-2.6288,-2.726,-2.7993,-2.8293,-2.8487,-2.8558,-2.7779,-2.7255,-2.6243,-4.7309,-4.7309,-4.7309,-4.7309,-4.7309,-4.7309,-4.7309,-4.7264,-4.6666,-4.6022,-4.5424,-4.5409,-4.4107,-4.1976,-4.122,-3.9843,-3.7898,-3.7285,-3.718,-3.7614,-3.8871,-3.9484,-3.9619,-4.0846,-4.0771,-3.9514,-3.9185,-3.8856,-3.8461,-3.8212,-3.8227,-3.8467,-3.8138,-3.7793,-3.7479,-3.6537,-3.6043,-3.6028,-3.5684,-3.5355,-3.5026,-3.4083,-3.2946,-3.1614,-3.0342,-2.8936,-2.7305,-2.723,-2.7096,-2.6797,-2.6422,-2.6527,-2.7171,-2.6587,-2.6363,-2.6677,-2.732,-2.7979,-2.8648,-2.9624,-3.0285,-3.0569,-3.0013,-2.9265,-2.8338,-2.6722,-2.6033,-2.6737,-2.7664,-2.8498,-2.9116,-3.0058,-3.0642,-3.0713,-3.0491,-3.0217,-2.9822,-2.8646,-2.7321,-2.6073,-2.6197,-2.7049,-2.8367,-2.9349,-3.0623,-3.2229,-3.3087,-3.3566,-3.3978,-3.4252,-3.477,-3.5836,-3.6222,-3.6488,-3.6772,-3.5679,-3.4514,-3.3452,-3.2025,-3.0761,-2.9633,-2.8008,-2.7036,-2.7186,-2.8064,-2.8334,-2.7814,-2.8468,-2.9131,-2.9594,-2.9505,-2.9382,-2.9112,-2.8154,-2.6162,-4.7309,-4.7309,-4.7309,-4.7309,-4.7309,-4.7309,-4.7309,-4.7309,-4.7294,-4.7025,-4.6533,-4.6354,-4.493,-4.2695,-4.2043,-4.0726,-3.8945,-3.8317,-3.8362,-3.8931,-4.0068,-4.0621,-4.0756,-4.1856,-4.1722,-4.0531,-4.0412,-4.0068,-3.9484,-3.9388,-3.9388,-3.9284,-3.8571,-3.8167,-3.8138,-3.6896,-3.6267,-3.6237,-3.5759,-3.5489,-3.5489,-3.4831,-3.4009,-3.3021,-3.2123,-3.1002,-2.9579,-2.934,-2.9265,-2.9235,-2.8757,-2.8738,-2.919,-2.8757,-2.8498,-2.8543,-2.8966,-2.949,-3.0013,-3.0928,-3.1496,-3.1496,-3.1017,-3.0806,-3.0821,-2.9594,-2.8768,-2.9071,-2.9594,-3.0253,-3.0881,-3.154,-3.1944,-3.1914,-3.1331,-3.1106,-3.1251,-2.974,-2.7973,-2.6456,-2.67,-2.7397,-2.8172,-2.8895,-3.0193,-3.21,-3.3028,-3.3724,-3.435,-3.4622,-3.5186,-3.5962,-3.6295,-3.6327,-3.6589,-3.5263,-3.3903,-3.3186,-3.2078,-3.1155,-3.043,-2.922,-2.8573,-2.8861,-2.946,-2.9654,-2.925,-2.9579,-3.0163,-3.0567,-3.0417,-3.0118,-2.9968,-2.8233,-2.5914,-4.7309,-4.7309,-4.7309,-4.7309,-4.7309,-4.7309,-4.7309,-4.7309,-4.7309,-4.7279,-4.713,-4.6548,-4.5173,-4.3379,-4.314,-4.2087,-4.0307,-4.0157,-4.0172,-4.0307,-4.095,-4.1294,-4.1369,-4.2096,-4.1707,-4.0576,-4.0472,-4.0157,-3.9463,-3.9439,-3.9388,-3.9239,-3.8138,-3.7554,-3.7389,-3.6267,-3.5624,-3.5594,-3.5534,-3.5489,-3.5459,-3.4831,-3.4459,-3.4324,-3.3066,-3.2333,-3.2033,-3.1555,-3.1227,-3.1227,-3.1152,-3.1152,-3.1197,-3.1152,-3.1122,-3.1122,-3.1182,-3.1271,-3.1331,-3.1436,-3.1555,-3.1496,-3.1496,-3.169,-3.2228,-3.2123,-3.1509,-3.0806,-3.0972,-3.16,-3.2273,-3.2871,-3.317,-3.311,-3.2632,-3.2122,-3.1438,-3.0054,-2.8801,-2.8323,-2.7436,-2.7326,-2.811,-2.9023,-3.0336,-3.2285,-3.3361,-3.4112,-3.4601,-3.4892,-3.5294,-3.5922,-3.5967,-3.5759,-3.5646,-3.4915,-3.3644,-3.2719,-3.2436,-3.1719,-3.0896,-3.0778,-3.0853,-2.9864,-3.0404,-3.0823,-3.0614,-3.0823,-3.1212,-3.1197,-3.1107,-3.0957,-2.9834,-2.8184,-2.6093,-4.7653,-4.7309,-4.7309,-4.7309,-4.7309,-4.7309,-4.7309,-4.7309,-4.7309,-4.7309,-4.7279,-4.7025,-4.6007,-4.4511,-4.4496,-4.3629,-4.2192,-4.2094,-4.2094,-4.2162,-4.2417,-4.2536,-4.2566,-4.2791,-4.2447,-4.1662,-4.1602,-4.101,-4.0098,-3.9619,-3.9388,-3.9298,-3.8452,-3.7988,-3.7898,-3.6716,-3.6252,-3.6596,-3.5893,-3.5684,-3.5968,-3.5429,-3.4908,-3.4503,-3.3979,-3.3469,-3.3125,-3.2826,-3.2677,-3.2662,-3.2677,-3.2662,-3.2691,-3.2662,-3.2662,-3.2691,-3.2691,-3.2691,-3.2691,-3.2691,-3.2662,-3.2691,-3.2662,-3.2826,-3.3051,-3.3095,-3.2976,-3.2901,-3.2766,-3.2826,-3.3095,-3.335,-3.3499,-3.3469,-3.323,-3.2677,-3.1583,-3.0571,-2.9539,-2.8391,-2.7651,-2.7411,-2.8106,-2.9566,-3.1094,-3.2435,-3.3472,-3.4382,-3.499,-3.514,-3.5307,-3.5589,-3.5334,-3.4942,-3.4726,-3.3629,-3.2685,-3.2121,-3.1899,-3.154,-3.1316,-3.1241,-3.1256,-3.0761,-3.1152,-3.1406,-3.1152,-3.1241,-3.1496,-3.1496,-3.1466,-3.1197,-3.0298,-2.8876,-2.726,-4.7908,-4.7354,-4.7309,-4.7309,-4.7309,-4.7309,-4.7309,-4.7309,-4.7309,-4.7309,-4.7309,-4.7309,-4.6666,-4.5648,-4.5394,-4.4571,-4.3394,-4.3305,-4.3305,-4.3305,-4.3305,-4.329,-4.3305,-4.3305,-4.2985,-4.2485,-4.2366,-4.1669,-4.0457,-3.9738,-3.9388,-3.9284,-3.8736,-3.8302,-3.8018,-3.7,-3.6701,-3.703,-3.6207,-3.6013,-3.639,-3.6013,-3.5444,-3.4831,-3.4773,-3.4532,-3.4068,-3.4038,-3.4053,-3.4038,-3.4053,-3.3948,-3.3769,-3.3769,-3.3694,-3.3529,-3.3499,-3.3499,-3.3499,-3.3499,-3.3499,-3.3499,-3.3499,-3.3574,-3.3724,-3.3754,-3.4068,-3.4577,-3.4322,-3.4053,-3.4053,-3.4053,-3.4038,-3.4038,-3.3918,-3.3275,-3.2213,-3.1197,-2.9988,-2.8692,-2.8066,-2.7814,-2.8537,-3.0314,-3.2051,-3.257,-3.3716,-3.4644,-3.5243,-3.5294,-3.5348,-3.5449,-3.4953,-3.4435,-3.4015,-3.3063,-3.197,-3.1389,-3.1331,-3.1496,-3.1346,-3.1316,-3.1496,-3.1152,-3.1406,-3.1481,-3.1391,-3.1451,-3.1496,-3.1496,-3.1466,-3.1271,-3.0552,-2.9535,-2.8427,-4.7908,-4.7369,-4.7309,-4.7309,-4.7309,-4.7309,-4.7309,-4.7309,-4.7309,-4.7309,-4.7309,-4.7309,-4.692,-4.616,-4.5603,-4.4586,-4.3439,-4.3349,-4.3334,-4.3305,-4.3305,-4.3305,-4.3305,-4.329,-4.3,-4.2515,-4.2485,-4.1811,-4.0502,-3.9747,-3.9388,-3.9394,-3.8736,-3.8078,-3.7554,-3.6896,-3.6522,-3.6686,-3.6537,-3.6492,-3.6555,-3.6492,-3.6133,-3.5579,-3.5444,-3.5385,-3.5355,-3.5385,-3.537,-3.5385,-3.5325,-3.5085,-3.4548,-3.4474,-3.4188,-3.3649,-3.3544,-3.3559,-3.3589,-3.3619,-3.3604,-3.3574,-3.3679,-3.3799,-3.4367,-3.4474,-3.4711,-3.537,-3.5295,-3.5265,-3.5265,-3.516,-3.5235,-3.522,-3.4771,-3.4143,-3.341,-3.1629,-3.0428,-2.9629,-2.8713,-2.8529,-2.9443,-3.1379,-3.2391,-3.299,-3.4204,-3.5277,-3.5202,-3.544,-3.5565,-3.5404,-3.4951,-3.4294,-3.3666,-3.3066,-3.2047,-3.1569,-3.163,-3.1436,-3.1107,-3.0972,-3.1286,-3.1496,-3.1496,-3.1496,-3.1496,-3.1496,-3.1496,-3.1496,-3.1496,-3.1212,-3.0851,-3.0088,-2.9056,-4.891,-4.7893,-4.7474,-4.7309,-4.7309,-4.7309,-4.7309,-4.7309,-4.7309,-4.7309,-4.7309,-4.7309,-4.695,-4.6307,-4.6067,-4.5229,-4.3977,-4.3932,-4.3693,-4.3349,-4.3305,-4.3305,-4.3305,-4.3305,-4.32,-4.303,-4.297,-4.2536,-4.1662,-4.0576,-4.0038,-3.9843,-3.8931,-3.8257,-3.7973,-3.7404,-3.727,-3.7614,-3.7315,-3.727,-3.7633,-3.73,-3.6956,-3.6701,-3.5923,-3.5489,-3.5489,-3.5489,-3.5489,-3.5489,-3.5489,-3.54,-3.516,-3.513,-3.504,-3.4816,-3.4771,-3.4786,-3.4786,-3.4771,-3.4771,-3.4771,-3.4786,-3.4816,-3.5085,-3.5145,-3.525,-3.5444,-3.5489,-3.5489,-3.5489,-3.5489,-3.5489,-3.5459,-3.5265,-3.4681,-3.3529,-3.2093,-3.0761,-2.9826,-2.897,-2.8802,-2.9659,-3.098,-3.2239,-3.3121,-3.4152,-3.4877,-3.5296,-3.5501,-3.5554,-3.5507,-3.5295,-3.4891,-3.4249,-3.3574,-3.2931,-3.2602,-3.2437,-3.2213,-3.1928,-3.1391,-3.1525,-3.1496,-3.1496,-3.1496,-3.1496,-3.1496,-3.1496,-3.1496,-3.1496,-3.1406,-3.1182,-3.0492,-2.9579,-4.9105,-4.8267,-4.7578,-4.7309,-4.7309,-4.7309,-4.7309,-4.7309,-4.7309,-4.7309,-4.7309,-4.7309,-4.704,-4.6696,-4.6608,-4.5918,-4.4691,-4.4421,-4.3917,-4.3334,-4.3305,-4.3305,-4.3305,-4.3305,-4.3305,-4.3245,-4.3105,-4.2776,-4.2306,-4.104,-4.0442,-4.0322,-3.926,-3.8601,-3.8362,-3.7943,-3.7958,-3.8227,-3.7943,-3.7958,-3.8287,-3.7958,-3.7599,-3.733,-3.6552,-3.6013,-3.5833,-3.5624,-3.5489,-3.5489,-3.5489,-3.5489,-3.5489,-3.5489,-3.5489,-3.5489,-3.5489,-3.5489,-3.5489,-3.5489,-3.5489,-3.5489,-3.5489,-3.5489,-3.5489,-3.5489,-3.5489,-3.5489,-3.5489,-3.5489,-3.5489,-3.5489,-3.5489,-3.5489,-3.5489,-3.4951,-3.3634,-3.2303,-3.0748,-2.9322,-2.8978,-2.9142,-2.9696,-3.0971,-3.2093,-3.311,-3.3919,-3.4713,-3.507,-3.5385,-3.5385,-3.525,-3.5355,-3.5085,-3.4696,-3.4218,-3.3679,-3.335,-3.3066,-3.2871,-3.2437,-3.1914,-3.154,-3.1511,-3.1511,-3.1496,-3.1511,-3.1511,-3.1525,-3.154,-3.1496,-3.1451,-3.1182,-3.0911,-2.9983,-4.8386,-4.8297,-4.7608,-4.7384,-4.7384,-4.7324,-4.7309,-4.7309,-4.7309,-4.7309,-4.7309,-4.7309,-4.7279,-4.7249,-4.7189,-4.6516,-4.5379,-4.4706,-4.4018,-4.3349,-4.3305,-4.3305,-4.3305,-4.3305,-4.3305,-4.3275,-4.2716,-4.247,-4.241,-4.125,-4.0606,-4.0397,-3.9888,-3.9305,-3.8512,-3.8586,-3.8452,-3.8467,-3.8422,-3.8407,-3.8392,-3.8392,-3.8153,-3.7629,-3.7419,-3.7105,-3.6567,-3.5923,-3.5564,-3.5519,-3.5549,-3.5534,-3.5654,-3.5684,-3.5594,-3.5669,-3.5594,-3.5564,-3.5609,-3.5654,-3.5729,-3.5729,-3.5609,-3.5714,-3.5776,-3.5699,-3.5699,-3.5746,-3.5699,-3.5639,-3.5684,-3.5699,-3.5624,-3.5489,-3.5489,-3.4951,-3.3649,-3.2273,-3.0524,-2.8663,-2.8873,-2.9535,-2.9998,-3.1135,-3.2288,-3.2736,-3.3514,-3.4309,-3.4472,-3.4861,-3.504,-3.4771,-3.4771,-3.4726,-3.4831,-3.4891,-3.4382,-3.3933,-3.3664,-3.3395,-3.2721,-3.2138,-3.163,-3.1511,-3.175,-3.178,-3.2123,-3.2108,-3.1884,-3.1839,-3.1705,-3.157,-3.1286,-3.0972,-3.0342,-4.9643,-4.9494,-4.8431,-4.7982,-4.7923,-4.7504,-4.7309,-4.7309,-4.7309,-4.7309,-4.7309,-4.7309,-4.7309,-4.7309,-4.7294,-4.683,-4.5992,-4.5289,-4.4407,-4.3469,-4.3305,-4.3305,-4.3305,-4.3305,-4.3305,-4.3275,-4.315,-4.303,-4.2851,-4.2132,-4.1782,-4.1662,-4.107,-4.0696,-4.0352,-4.0008,-3.9589,-3.914,-3.9095,-3.8886,-3.8497,-3.8856,-3.8975,-3.8781,-3.8347,-3.7973,-3.7798,-3.6761,-3.5983,-3.5579,-3.5938,-3.6372,-3.6701,-3.6821,-3.6806,-3.6806,-3.6821,-3.6821,-3.6806,-3.6791,-3.6761,-3.6791,-3.6791,-3.6813,-3.682,-3.675,-3.675,-3.6757,-3.6813,-3.6821,-3.6821,-3.6806,-3.6447,-3.5594,-3.5489,-3.504,-3.3664,-3.1973,-3.0417,-2.9412,-2.9714,-3.0357,-3.0821,-3.169,-3.1989,-3.2407,-3.2916,-3.3305,-3.3739,-3.4038,-3.4083,-3.3873,-3.4068,-3.4262,-3.4277,-3.4577,-3.4651,-3.4487,-3.4352,-3.3784,-3.3095,-3.2662,-3.2064,-3.1795,-3.2004,-3.2243,-3.2587,-3.2647,-3.2482,-3.2258,-3.2168,-3.1899,-3.154,-3.0913,-3.0193,-5.0196,-5.0046,-4.882,-4.8297,-4.8207,-4.7578,-4.7309,-4.7309,-4.7309,-4.7309,-4.7309,-4.7309,-4.7309,-4.7309,-4.7309,-4.6935,-4.6264,-4.5858,-4.496,-4.3753,-4.3364,-4.3305,-4.3305,-4.3305,-4.3305,-4.3305,-4.3305,-4.3305,-4.326,-4.2701,-4.2381,-4.2276,-4.1752,-4.1392,-4.1362,-4.0741,-4.0172,-3.9813,-3.9508,-3.9179,-3.8945,-3.92,-3.9388,-3.9313,-3.9005,-3.8646,-3.8377,-3.7599,-3.6896,-3.6402,-3.6626,-3.7015,-3.7375,-3.7375,-3.7404,-3.7404,-3.7389,-3.7375,-3.7404,-3.733,-3.7404,-3.7404,-3.7404,-3.7394,-3.7387,-3.7394,-3.7379,-3.7387,-3.7334,-3.7404,-3.7389,-3.7389,-3.7015,-3.6342,-3.6252,-3.5504,-3.4023,-3.2317,-3.1106,-3.0582,-3.0657,-3.1047,-3.1361,-3.1511,-3.166,-3.2049,-3.2333,-3.2542,-3.308,-3.335,-3.332,-3.335,-3.3514,-3.3619,-3.3619,-3.4083,-3.4741,-3.4936,-3.5055,-3.4292,-3.3529,-3.341,-3.3036,-3.2736,-3.2781,-3.2856,-3.3155,-3.323,-3.3125,-3.2931,-3.2557,-3.1929,-3.1361,-3.0582,-2.9846,-5.0255,-5.0076,-4.8925,-4.8506,-4.8401,-4.7728,-4.7444,-4.7399,-4.7309,-4.7309,-4.7309,-4.7309,-4.7309,-4.7309,-4.7309,-4.6995,-4.6414,-4.6219,-4.5648,-4.4571,-4.3813,-4.3409,-4.3319,-4.3305,-4.3305,-4.3305,-4.3305,-4.3305,-4.326,-4.2806,-4.2455,-4.247,-4.1983,-4.1587,-4.1534,-4.0861,-4.0472,-4.0247,-3.9723,-3.9394,-3.9313,-3.9358,-3.9448,-3.9478,-3.9358,-3.9095,-3.8616,-3.8407,-3.8093,-3.7554,-3.7434,-3.7539,-3.7569,-3.7524,-3.7624,-3.7704,-3.7554,-3.7644,-3.7584,-3.7749,-3.7704,-3.7734,-3.7734,-3.7524,-3.7689,-3.7764,-3.7778,-3.7719,-3.7704,-3.7659,-3.7674,-3.7674,-3.7614,-3.7539,-3.721,-3.6297,-3.4848,-3.3484,-3.2662,-3.2034,-3.1765,-3.1645,-3.172,-3.1585,-3.1496,-3.1496,-3.1884,-3.2153,-3.2602,-3.2856,-3.2946,-3.2961,-3.2946,-3.3125,-3.317,-3.4054,-3.4681,-3.516,-3.531,-3.4771,-3.3978,-3.3829,-3.3844,-3.3574,-3.3469,-3.3544,-3.3739,-3.3933,-3.3724,-3.332,-3.2736,-3.1913,-3.13,-3.0731,-3.0103,-5.096,-5.087,-5.0016,-4.9718,-4.9553,-4.8536,-4.8027,-4.7952,-4.7504,-4.7309,-4.7309,-4.7309,-4.7309,-4.7309,-4.7309,-4.7189,-4.6935,-4.6546,-4.619,-4.5622,-4.4515,-4.3768,-4.3379,-4.3305,-4.3305,-4.3305,-4.3305,-4.3305,-4.329,-4.3135,-4.3045,-4.3075,-4.2836,-4.2722,-4.2686,-4.1654,-4.0891,-4.0367,-3.9753,-3.9388,-3.9388,-3.9388,-3.9679,-4.0068,-3.9664,-3.9328,-3.9155,-3.914,-3.8826,-3.8212,-3.8123,-3.8377,-3.8715,-3.8775,-3.873,-3.8781,-3.8826,-3.882,-3.8841,-3.8826,-3.882,-3.8886,-3.8751,-3.8886,-3.8886,-3.8886,-3.885,-3.885,-3.8886,-3.8856,-3.882,-3.879,-3.8841,-3.8706,-3.7764,-3.6716,-3.5998,-3.525,-3.4637,-3.4457,-3.3963,-3.3275,-3.2467,-3.1824,-3.1421,-3.1077,-3.121,-3.1584,-3.2243,-3.2392,-3.2497,-3.2258,-3.2273,-3.2572,-3.3006,-3.3919,-3.4668,-3.525,-3.5385,-3.522,-3.4472,-3.3948,-3.4053,-3.4084,-3.4158,-3.4233,-3.4681,-3.504,-3.4487,-3.3709,-3.3514,-3.3006,-3.2258,-3.1614,-3.0956,-5.1229,-5.1169,-5.0465,-5.0196,-5.0031,-4.8835,-4.8297,-4.8162,-4.7608,-4.7309,-4.7309,-4.7309,-4.7309,-4.7309,-4.7309,-4.7309,-4.7249,-4.6905,-4.6591,-4.604,-4.4859,-4.3932,-4.3439,-4.3305,-4.3305,-4.3305,-4.3305,-4.3305,-4.3305,-4.3305,-4.3305,-4.3275,-4.3305,-4.3305,-4.314,-4.2058,-4.122,-4.0711,-3.9948,-3.9388,-3.9388,-3.9388,-3.9574,-3.9873,-3.9589,-3.9388,-3.9388,-3.9388,-3.9179,-3.8901,-3.8841,-3.902,-3.9313,-3.9388,-3.9388,-3.9388,-3.9388,-3.9373,-3.9388,-3.9388,-3.9388,-3.9373,-3.9388,-3.9388,-3.9358,-3.9388,-3.9388,-3.9343,-3.9388,-3.9388,-3.9388,-3.9388,-3.9388,-3.9245,-3.8377,-3.7599,-3.733,-3.6701,-3.6357,-3.6103,-3.5474,-3.4547,-3.344,-3.2542,-3.1884,-3.1524,-3.1525,-3.1914,-3.2318,-3.2213,-3.2198,-3.2183,-3.2602,-3.32,-3.3829,-3.4666,-3.5429,-3.5968,-3.6058,-3.5804,-3.5175,-3.4517,-3.4532,-3.4711,-3.4831,-3.4966,-3.528,-3.534,-3.4726,-3.4264,-3.4309,-3.3814,-3.2886,-3.2512,-3.1854,-5.1229,-5.1122,-5.0539,-5.03,-5.0121,-4.8985,-4.8461,-4.8282,-4.7623,-4.7309,-4.7309,-4.7309,-4.7309,-4.7309,-4.7309,-4.7309,-4.7309,-4.7234,-4.683,-4.613,-4.5158,-4.4276,-4.3574,-4.3349,-4.3305,-4.3305,-4.3305,-4.3305,-4.3305,-4.3305,-4.3305,-4.3305,-4.3305,-4.3305,-4.3095,-4.2132,-4.1579,-4.1265,-4.0247,-3.9783,-3.9783,-3.9717,-3.9783,-3.9948,-3.9948,-3.9843,-3.9798,-3.9738,-3.9664,-3.9493,-3.9469,-3.9358,-3.9388,-3.9388,-3.9388,-3.9388,-3.9388,-3.9388,-3.9388,-3.9388,-3.9388,-3.9388,-3.9388,-3.9388,-3.9388,-3.9388,-3.9388,-3.9388,-3.9388,-3.9388,-3.9388,-3.9388,-3.9284,-3.9215,-3.9125,-3.8931,-3.8407,-3.7868,-3.7584,-3.7449,-3.6402,-3.5474,-3.4367,-3.3514,-3.2662,-3.2093,-3.2213,-3.2662,-3.2931,-3.2991,-3.2871,-3.2706,-3.3335,-3.4188,-3.4861,-3.5579,-3.6282,-3.6866,-3.6926,-3.6716,-3.6118,-3.5594,-3.54,-3.5385,-3.5519,-3.5474,-3.5385,-3.519,-3.4803,-3.4713,-3.4696,-3.3888,-3.3036,-3.314,-3.2781,-5.1229,-5.1214,-5.1079,-5.1005,-5.0795,-4.9628,-4.9045,-4.8985,-4.7803,-4.7309,-4.7309,-4.7309,-4.7309,-4.7309,-4.7309,-4.7309,-4.7309,-4.7279,-4.695,-4.6337,-4.607,-4.5128,-4.4186,-4.3643,-4.3319,-4.3305,-4.3305,-4.3305,-4.3305,-4.3305,-4.3305,-4.3305,-4.3305,-4.3305,-4.3155,-4.2551,-4.2186,-4.1961,-4.0831,-4.0427,-4.0591,-4.0292,-4.0292,-4.0711,-4.0846,-4.092,-4.095,-4.0965,-4.0711,-4.0217,-3.9738,-3.9463,-3.9403,-3.9388,-3.9388,-3.9388,-3.9388,-3.9388,-3.9388,-3.9388,-3.9388,-3.9388,-3.9388,-3.9388,-3.9388,-3.9418,-3.9403,-3.9388,-3.9388,-3.9523,-3.9553,-3.9433,-3.9245,-3.8945,-3.8706,-3.8407,-3.7928,-3.8342,-3.8497,-3.8063,-3.733,-3.6178,-3.4143,-3.4158,-3.3514,-3.2871,-3.3021,-3.3484,-3.3679,-3.3799,-3.3619,-3.3455,-3.4068,-3.4921,-3.5729,-3.6477,-3.7255,-3.7719,-3.7778,-3.7778,-3.7165,-3.6821,-3.6671,-3.6447,-3.6237,-3.6073,-3.5759,-3.5355,-3.5011,-3.504,-3.504,-3.4457,-3.3993,-3.3978,-3.3858,-5.1229,-5.1229,-5.1229,-5.1229,-5.1005,-4.9838,-4.9299,-4.9045,-4.7878,-4.7309,-4.7309,-4.7309,-4.7309,-4.7309,-4.7309,-4.7309,-4.7309,-4.7309,-4.7145,-4.6756,-4.6429,-4.5696,-4.487,-4.4107,-4.3673,-4.3379,-4.3305,-4.3305,-4.3305,-4.3305,-4.3305,-4.3305,-4.3305,-4.3305,-4.32,-4.2716,-4.2396,-4.2126,-4.1085,-4.0591,-4.0771,-4.0307,-4.0247,-4.0891,-4.1242,-4.1422,-4.1392,-4.1392,-4.1175,-4.0801,-4.0262,-3.9723,-3.9469,-3.9388,-3.9388,-3.9388,-3.9388,-3.9388,-3.9388,-3.9388,-3.9388,-3.9388,-3.9388,-3.9388,-3.9493,-3.9627,-3.9837,-3.9911,-4.0157,-4.0352,-4.0322,-3.9993,-3.9574,-3.899,-3.8556,-3.8018,-3.7404,-3.7868,-3.8377,-3.7883,-3.727,-3.6193,-3.5205,-3.4696,-3.4622,-3.4068,-3.4262,-3.4696,-3.4846,-3.4891,-3.4578,-3.4517,-3.4981,-3.5669,-3.6507,-3.7325,-3.8222,-3.8551,-3.8646,-3.8611,-3.8407,-3.8167,-3.8003,-3.7494,-3.6851,-3.6432,-3.6073,-3.5669,-3.537,-3.528,-3.5205,-3.5055,-3.4981,-3.4891,-3.4801,-5.1229,-5.1229,-5.1229,-5.1229,-5.1035,-4.9942,-4.9449,-4.9239,-4.8027,-4.7534,-4.7429,-4.7369,-4.7309,-4.7309,-4.7309,-4.7309,-4.7309,-4.7309,-4.7234,-4.7145,-4.677,-4.6172,-4.5469,-4.493,-4.4392,-4.3648,-4.3379,-4.3319,-4.3305,-4.3305,-4.3305,-4.3305,-4.3305,-4.3305,-4.3155,-4.2851,-4.262,-4.2485,-4.1354,-4.0651,-4.0591,-4.0113,-4.0142,-4.0935,-4.1564,-4.1863,-4.1893,-4.1848,-4.1698,-4.1519,-4.0995,-4.0382,-3.9858,-3.9469,-3.9388,-3.9388,-3.9388,-3.9388,-3.9388,-3.9388,-3.9388,-3.9388,-3.9388,-3.9478,-3.9679,-4.0038,-4.0337,-4.0651,-4.0905,-4.1205,-4.1362,-4.0696,-4.0068,-3.9409,-3.8721,-3.7749,-3.6911,-3.6911,-3.703,-3.7045,-3.6806,-3.6103,-3.5504,-3.5026,-3.5205,-3.5415,-3.5624,-3.5818,-3.5953,-3.5833,-3.5429,-3.5252,-3.5564,-3.6372,-3.7255,-3.7659,-3.8596,-3.8955,-3.9155,-3.9089,-3.9119,-3.899,-3.8571,-3.7883,-3.73,-3.6941,-3.6596,-3.6252,-3.5953,-3.5654,-3.5714,-3.5908,-3.5893,-3.5804,-3.5744,-5.1229,-5.1229,-5.1229,-5.1229,-5.1109,-5.0391,-4.9986,-4.9807,-4.8626,-4.8132,-4.8027,-4.7549,-4.7309,-4.7309,-4.7309,-4.7309,-4.7309,-4.7309,-4.7309,-4.7309,-4.7085,-4.6696,-4.6097,-4.5828,-4.5469,-4.4811,-4.4007,-4.3469,-4.3364,-4.3305,-4.3364,-4.3319,-4.3305,-4.3305,-4.3275,-4.317,-4.3075,-4.288,-4.1863,-4.125,-4.0965,-4.0651,-4.0696,-4.1698,-4.2372,-4.2776,-4.2871,-4.2886,-4.2776,-4.2306,-4.2141,-4.1692,-4.0965,-4.0083,-3.9597,-3.9553,-3.9582,-3.9679,-3.9664,-3.9529,-3.9418,-3.9388,-3.9523,-3.9813,-4.0127,-4.0427,-4.0861,-4.122,-4.1384,-4.1459,-4.1407,-4.0995,-4.0202,-3.9424,-3.8512,-3.7449,-3.6735,-3.6357,-3.6118,-3.6118,-3.6148,-3.6312,-3.5938,-3.5759,-3.6028,-3.6342,-3.6626,-3.6806,-3.6971,-3.6641,-3.6148,-3.5998,-3.5983,-3.6971,-3.8003,-3.8197,-3.8676,-3.902,-3.917,-3.9095,-3.9134,-3.9298,-3.9005,-3.8392,-3.8003,-3.7734,-3.7345,-3.6896,-3.6731,-3.6582,-3.6716,-3.6851,-3.6701,-3.6567,-3.6761,-5.1229,-5.1229,-5.1229,-5.1229,-5.1109,-5.048,-5.0196,-5.0001,-4.888,-4.8297,-4.8102,-4.7638,-4.7309,-4.7309,-4.7309,-4.7309,-4.7309,-4.7309,-4.7309,-4.7309,-4.7279,-4.695,-4.6411,-4.6309,-4.5903,-4.5304,-4.4616,-4.4122,-4.3828,-4.3853,-4.3604,-4.3334,-4.3305,-4.3305,-4.3305,-4.329,-4.3334,-4.308,-4.2432,-4.1737,-4.1399,-4.101,-4.1384,-4.1863,-4.2791,-4.3245,-4.3305,-4.3305,-4.3155,-4.2865,-4.2575,-4.2261,-4.1767,-4.11,-4.0427,-4.0427,-4.0397,-4.0412,-4.0427,-4.0427,-4.0472,-4.0457,-4.0412,-4.0561,-4.0905,-4.125,-4.1654,-4.2162,-4.2387,-4.2387,-4.2432,-4.1728,-4.1145,-4.0382,-3.9185,-3.7933,-3.7004,-3.6615,-3.6193,-3.5818,-3.6207,-3.6552,-3.6641,-3.6626,-3.6896,-3.7225,-3.7614,-3.7853,-3.8063,-3.7674,-3.7225,-3.6791,-3.6776,-3.7449,-3.8362,-3.8661,-3.8796,-3.908,-3.9125,-3.9065,-3.9185,-3.9343,-3.9313,-3.902,-3.8721,-3.8362,-3.7988,-3.7509,-3.7494,-3.7464,-3.7375,-3.733,-3.7345,-3.7389,-3.7554,-5.1229,-5.1229,-5.1229,-5.1229,-5.1139,-5.0629,-5.0405,-5.0121,-4.9075,-4.8521,-4.8371,-4.7683,-4.7309,-4.7309,-4.7309,-4.7309,-4.7309,-4.7309,-4.7309,-4.7309,-4.7294,-4.698,-4.6666,-4.6456,-4.6322,-4.6022,-4.5768,-4.52,-4.4362,-4.4227,-4.3973,-4.3708,-4.3529,-4.3604,-4.3753,-4.3917,-4.3708,-4.3494,-4.291,-4.2177,-4.1414,-4.1347,-4.1422,-4.1542,-4.2602,-4.3305,-4.3305,-4.3305,-4.3305,-4.3125,-4.2895,-4.262,-4.2491,-4.2073,-4.1788,-4.1728,-4.1534,-4.1437,-4.1377,-4.1332,-4.1175,-4.116,-4.1362,-4.1467,-4.1713,-4.2102,-4.2716,-4.3185,-4.323,-4.3035,-4.2806,-4.2462,-4.1788,-4.098,-3.9828,-3.8721,-3.7678,-3.7109,-3.6892,-3.6712,-3.6791,-3.706,-3.7434,-3.7808,-3.8138,-3.8721,-3.911,-3.9334,-3.9454,-3.9065,-3.8556,-3.7838,-3.7689,-3.8078,-3.8646,-3.905,-3.9155,-3.9224,-3.914,-3.896,-3.917,-3.9373,-3.9313,-3.9275,-3.908,-3.8706,-3.8407,-3.8257,-3.8302,-3.8212,-3.7928,-3.7928,-3.8133,-3.8177,-3.8222,-5.1229,-5.1229,-5.1229,-5.1229,-5.1214,-5.1109,-5.1079,-5.0885,-4.9658,-4.9194,-4.903,-4.7893,-4.7309,-4.7309,-4.7309,-4.7309,-4.7309,-4.7309,-4.7309,-4.7309,-4.7294,-4.7249,-4.716,-4.7204,-4.704,-4.6785,-4.689,-4.5963,-4.4945,-4.4541,-4.4362,-4.4227,-4.4242,-4.4421,-4.4766,-4.4766,-4.508,-4.4811,-4.3793,-4.2342,-4.1055,-4.116,-4.1392,-4.1773,-4.2581,-4.3305,-4.3305,-4.3305,-4.3305,-4.329,-4.323,-4.317,-4.3155,-4.314,-4.3065,-4.2722,-4.2162,-4.1437,-4.1557,-4.1609,-4.1624,-4.1654,-4.1602,-4.1767,-4.2246,-4.2716,-4.314,-4.3245,-4.326,-4.306,-4.2581,-4.1908,-4.1235,-4.0472,-3.9559,-3.8826,-3.8113,-3.7948,-3.7719,-3.8192,-3.8407,-3.8457,-3.8646,-3.9035,-3.9424,-4.0053,-4.0561,-4.0711,-4.0606,-4.0068,-3.9888,-3.92,-3.8497,-3.8781,-3.8856,-3.926,-3.9275,-3.9343,-3.9095,-3.8871,-3.92,-3.9388,-3.9388,-3.9298,-3.9185,-3.914,-3.8975,-3.8945,-3.908,-3.896,-3.8641,-3.8835,-3.9179,-3.9104,-3.885,-5.1229,-5.1229,-5.1229,-5.1229,-5.1229,-5.1229,-5.1229,-5.0945,-4.9853,-4.9299,-4.906,-4.7893,-4.7309,-4.7339,-4.7309,-4.7309,-4.7309,-4.7309,-4.7309,-4.7309,-4.7309,-4.7309,-4.7294,-4.7309,-4.7309,-4.7309,-4.7219,-4.6711,-4.5723,-4.5352,-4.5304,-4.4885,-4.487,-4.4945,-4.5424,-4.5319,-4.5274,-4.4781,-4.3703,-4.2455,-4.1737,-4.1482,-4.1602,-4.1976,-4.288,-4.326,-4.3364,-4.3305,-4.3305,-4.3305,-4.3305,-4.3305,-4.329,-4.329,-4.3275,-4.323,-4.2826,-4.2551,-4.2521,-4.2476,-4.2417,-4.2462,-4.2462,-4.2656,-4.294,-4.3095,-4.3305,-4.3305,-4.297,-4.2656,-4.2276,-4.1414,-4.0861,-4.0172,-3.9454,-3.9621,-3.9274,-3.8876,-3.8846,-3.9442,-3.998,-3.9961,-4.0023,-4.0367,-4.0621,-4.0891,-4.119,-4.1235,-4.1025,-4.0531,-4.0516,-4.0591,-3.9888,-3.9409,-3.9334,-3.9409,-3.92,-3.917,-3.8871,-3.8811,-3.923,-3.9388,-3.9478,-3.9448,-3.9328,-3.9328,-3.9403,-3.9343,-3.9239,-3.9298,-3.9373,-3.9388,-3.9388,-3.9358,-3.9104,-5.1229,-5.1229,-5.1229,-5.1229,-5.1229,-5.1229,-5.1229,-5.1079,-5.0047,-4.9523,-4.9224,-4.8371,-4.7758,-4.7578,-4.7578,-4.7534,-4.7309,-4.7309,-4.7309,-4.7309,-4.7309,-4.7309,-4.7309,-4.7309,-4.7309,-4.7309,-4.7309,-4.698,-4.6726,-4.6456,-4.6172,-4.5589,-4.5559,-4.5708,-4.5813,-4.5888,-4.5828,-4.5125,-4.3444,-4.2485,-4.2216,-4.1901,-4.2141,-4.2641,-4.3314,-4.3823,-4.3823,-4.3843,-4.3858,-4.3873,-4.3917,-4.3977,-4.3947,-4.4018,-4.3977,-4.3962,-4.3838,-4.3798,-4.3618,-4.3469,-4.3364,-4.3305,-4.3305,-4.314,-4.3215,-4.3305,-4.3305,-4.3305,-4.303,-4.2671,-4.2216,-4.1324,-4.0801,-4.0337,-3.9783,-4.0277,-4.0558,-3.9887,-3.9766,-4.0407,-4.0934,-4.1385,-4.1527,-4.1811,-4.1893,-4.1878,-4.1863,-4.1818,-4.1594,-4.1265,-4.1459,-4.1728,-4.116,-4.0472,-4.0098,-3.9873,-3.9514,-3.9035,-3.8751,-3.8811,-3.926,-3.9582,-3.9777,-3.9672,-3.9523,-3.9493,-3.9538,-3.9463,-3.9388,-3.9388,-3.9388,-3.9388,-3.9388,-3.9388,-3.9313,-5.1229,-5.1229,-5.1229,-5.1229,-5.1229,-5.1229,-5.1229,-5.1169,-5.0405,-5.0092,-4.9883,-4.9374,-4.8626,-4.8282,-4.8042,-4.7803,-4.7309,-4.7309,-4.7309,-4.7309,-4.7309,-4.7309,-4.7309,-4.7309,-4.7309,-4.7309,-4.7309,-4.7264,-4.7204,-4.7055,-4.6756,-4.6294,-4.6247,-4.6636,-4.683,-4.6785,-4.6172,-4.5229,-4.3564,-4.2635,-4.253,-4.2425,-4.2641,-4.3374,-4.4377,-4.514,-4.5155,-4.499,-4.49,-4.4885,-4.487,-4.487,-4.4796,-4.4811,-4.4811,-4.4811,-4.4825,-4.4811,-4.4691,-4.4052,-4.3454,-4.3349,-4.3424,-4.3589,-4.3648,-4.3439,-4.3349,-4.3499,-4.3419,-4.306,-4.2545,-4.1767,-4.0995,-4.0576,-4.0031,-3.9574,-4.0016,-4.0528,-4.0553,-4.1279,-4.1859,-4.2329,-4.2755,-4.294,-4.2701,-4.2626,-4.2626,-4.2581,-4.2716,-4.2497,-4.2692,-4.2751,-4.2312,-4.1752,-4.1123,-4.0427,-3.9185,-3.899,-3.896,-3.9065,-3.9364,-3.9664,-3.9807,-3.9911,-3.9762,-3.9717,-3.9723,-3.9723,-3.9679,-3.9463,-3.9388,-3.9388,-3.9388,-3.9388,-3.9313,-5.1229,-5.1229,-5.1229,-5.1229,-5.1229,-5.1229,-5.1229,-5.1109,-5.048,-4.9987,-4.9673,-4.9389,-4.894,-4.8506,-4.8252,-4.7923,-4.7369,-4.7309,-4.7324,-4.7309,-4.7309,-4.7309,-4.7309,-4.7309,-4.7309,-4.7309,-4.7309,-4.7309,-4.7294,-4.7309,-4.7219,-4.698,-4.686,-4.7025,-4.7249,-4.7204,-4.6471,-4.5409,-4.4197,-4.3404,-4.2985,-4.2985,-4.3269,-4.3973,-4.4721,-4.5244,-4.5259,-4.5274,-4.5289,-4.5319,-4.5349,-4.5394,-4.5424,-4.5409,-4.5409,-4.5409,-4.5424,-4.5409,-4.5364,-4.484,-4.4571,-4.4541,-4.4556,-4.4496,-4.4392,-4.4481,-4.4526,-4.4466,-4.4082,-4.3733,-4.3554,-4.2327,-4.1205,-4.0891,-4.0405,-3.9652,-3.9616,-4.0382,-4.1581,-4.2425,-4.2883,-4.3269,-4.3673,-4.4032,-4.3633,-4.3305,-4.3319,-4.3305,-4.3305,-4.3305,-4.3305,-4.2991,-4.2476,-4.2036,-4.1392,-4.0068,-3.8646,-3.8886,-3.917,-3.929,-3.9424,-3.9403,-3.9582,-3.9777,-4.0106,-4.0247,-4.0232,-4.0083,-3.9918,-3.9709,-3.9508,-3.9388,-3.9388,-3.9388,-3.932,-5.1229,-5.1229,-5.1229,-5.1229,-5.1229,-5.1229,-5.1229,-5.1139,-5.0704,-5.0301,-4.9838,-4.9808,-4.9494,-4.9015,-4.888,-4.8566,-4.8072,-4.7788,-4.7653,-4.7563,-4.7459,-4.7339,-4.7309,-4.7309,-4.7309,-4.7309,-4.7309,-4.7309,-4.7309,-4.7309,-4.7264,-4.7264,-4.7309,-4.7294,-4.7249,-4.7025,-4.6501,-4.5648,-4.4496,-4.4047,-4.3544,-4.3604,-4.3902,-4.4661,-4.5514,-4.5992,-4.6067,-4.6097,-4.6037,-4.6037,-4.6007,-4.5948,-4.5918,-4.5888,-4.5888,-4.5888,-4.5873,-4.5858,-4.5828,-4.5469,-4.5334,-4.5125,-4.5155,-4.5185,-4.5289,-4.5304,-4.5095,-4.5125,-4.4811,-4.4616,-4.4556,-4.3344,-4.2387,-4.2162,-4.1519,-4.0845,-4.0472,-4.0905,-4.2364,-4.3662,-4.375,-4.3589,-4.4032,-4.4257,-4.3932,-4.3544,-4.3334,-4.3305,-4.3305,-4.3305,-4.3305,-4.2856,-4.2252,-4.1803,-4.1347,-3.9813,-3.8631,-3.9185,-3.9409,-3.9394,-3.9454,-3.9418,-3.9418,-3.9582,-4.0023,-4.0621,-4.0801,-4.0711,-4.0337,-3.9918,-3.9738,-3.9538,-3.9388,-3.9373,-3.926,-5.1229,-5.1229,-5.1229,-5.1229,-5.1229,-5.1229,-5.1229,-5.1214,-5.1154,-5.1079,-5.0975,-5.099,-5.0631,-5.0091,-4.9837,-4.9494,-4.8925,-4.8476,-4.8222,-4.8042,-4.7698,-4.7429,-4.7309,-4.7309,-4.7309,-4.7309,-4.7309,-4.7309,-4.7309,-4.7309,-4.7309,-4.7309,-4.7309,-4.7309,-4.7249,-4.6681,-4.6309,-4.598,-4.4366,-4.4157,-4.4212,-4.4377,-4.4811,-4.5364,-4.6337,-4.686,-4.686,-4.686,-4.683,-4.686,-4.689,-4.6905,-4.6935,-4.6965,-4.698,-4.7025,-4.707,-4.7115,-4.713,-4.6007,-4.5618,-4.5603,-4.5768,-4.5663,-4.5454,-4.5409,-4.5559,-4.5783,-4.5499,-4.5394,-4.508,-4.4676,-4.3973,-4.3464,-4.288,-4.2213,-4.1837,-4.1748,-4.3274,-4.3874,-4.3662,-4.3544,-4.4007,-4.4317,-4.4067,-4.3753,-4.3424,-4.3319,-4.3349,-4.3305,-4.3305,-4.2961,-4.2357,-4.1818,-4.1212,-3.9514,-3.8706,-3.9305,-3.9469,-3.926,-3.9409,-3.9568,-3.9553,-3.9544,-4.0217,-4.107,-4.1294,-4.1384,-4.098,-4.0576,-4.0008,-3.9717,-3.9538,-3.9553,-3.9709,-5.1229,-5.1229,-5.1229,-5.1229,-5.1229,-5.1229,-5.1229,-5.1229,-5.1229,-5.1229,-5.1229,-5.1229,-5.0808,-5.0375,-5.0181,-4.9957,-4.9359,-4.9209,-4.888,-4.8312,-4.8057,-4.7683,-4.7489,-4.737,-4.7311,-4.7309,-4.7309,-4.7309,-4.7309,-4.7266,-4.7309,-4.7309,-4.7222,-4.7309,-4.7279,-4.6995,-4.6815,-4.6294,-4.5577,-4.5289,-4.508,-4.5364,-4.5708,-4.5963,-4.6845,-4.7294,-4.7309,-4.7309,-4.7309,-4.7309,-4.7309,-4.7309,-4.7309,-4.7309,-4.7309,-4.7309,-4.7309,-4.7309,-4.7279,-4.6785,-4.6666,-4.6576,-4.6501,-4.6471,-4.6606,-4.6621,-4.6621,-4.6561,-4.6441,-4.6471,-4.6516,-4.5992,-4.5454,-4.5304,-4.4695,-4.3737,-4.3294,-4.3444,-4.4023,-4.3823,-4.3577,-4.4071,-4.4586,-4.499,-4.4855,-4.4306,-4.3977,-4.3604,-4.3529,-4.3394,-4.3319,-4.312,-4.2641,-4.2013,-4.1085,-3.9619,-3.8601,-3.8796,-3.8871,-3.8691,-3.8975,-3.9484,-3.9723,-3.9694,-4.0599,-4.1496,-4.1728,-4.1833,-4.1654,-4.128,-4.0905,-4.0576,-4.0487,-4.0621,-4.0816,-5.1229,-5.1229,-5.1229,-5.1229,-5.1229,-5.1229,-5.1229,-5.1229,-5.1229,-5.1229,-5.1229,-5.1214,-5.102,-5.0644,-5.0495,-5.0451,-4.9927,-4.9658,-4.9523,-4.894,-4.8611,-4.8268,-4.7852,-4.7465,-4.7392,-4.7316,-4.721,-4.7164,-4.7266,-4.7207,-4.7121,-4.7033,-4.7048,-4.7077,-4.7106,-4.7103,-4.71,-4.6681,-4.6277,-4.5963,-4.5858,-4.5978,-4.6204,-4.6414,-4.689,-4.7309,-4.7309,-4.7309,-4.7309,-4.7309,-4.7309,-4.7309,-4.7309,-4.7309,-4.7309,-4.7309,-4.7309,-4.7309,-4.7279,-4.7264,-4.713,-4.7174,-4.7309,-4.7309,-4.7309,-4.716,-4.7174,-4.7204,-4.7309,-4.7294,-4.7174,-4.6696,-4.6546,-4.6352,-4.5861,-4.487,-4.4609,-4.4732,-4.4332,-4.405,-4.3845,-4.4445,-4.505,-4.5544,-4.5768,-4.517,-4.4586,-4.4216,-4.3932,-4.3828,-4.3663,-4.3419,-4.3015,-4.2387,-4.1354,-3.9933,-3.905,-3.8482,-3.8347,-3.8302,-3.8691,-3.92,-3.9529,-3.9978,-4.0831,-4.1594,-4.2117,-4.2282,-4.2282,-4.2282,-4.2177,-4.1848,-4.1557,-4.1512,-4.1579,-5.1229,-5.1229,-5.1229,-5.1229,-5.1229,-5.1229,-5.1229,-5.1229,-5.1229,-5.1229,-5.1229,-5.1229,-5.1154,-5.1184,-5.1169,-5.1094,-5.0945,-5.042,-5.0151,-4.982,-4.9221,-4.8755,-4.8141,-4.7682,-4.7342,-4.7228,-4.717,-4.7153,-4.7252,-4.6785,-4.6609,-4.658,-4.6491,-4.6624,-4.68,-4.7091,-4.7148,-4.6924,-4.6584,-4.633,-4.6241,-4.6284,-4.6403,-4.6567,-4.6967,-4.7264,-4.7309,-4.7309,-4.7309,-4.7309,-4.7309,-4.7309,-4.7309,-4.7309,-4.7309,-4.7309,-4.7309,-4.7309,-4.7309,-4.7309,-4.7309,-4.7309,-4.7309,-4.7309,-4.7309,-4.7309,-4.7309,-4.7309,-4.7309,-4.7309,-4.7219,-4.71,-4.698,-4.6741,-4.6486,-4.6007,-4.5803,-4.5473,-4.4896,-4.4541,-4.4172,-4.4441,-4.5024,-4.5577,-4.6396,-4.6097,-4.5633,-4.5559,-4.5244,-4.4825,-4.4571,-4.3962,-4.3509,-4.2791,-4.1639,-4.0382,-3.9469,-3.8886,-3.8272,-3.8167,-3.8556,-3.896,-3.9379,-3.9978,-4.0891,-4.1683,-4.2476,-4.2925,-4.3065,-4.3035,-4.2811,-4.2656,-4.2177,-4.1953,-4.1923,-5.1229,-5.1229,-5.1229,-5.1229,-5.1229,-5.1229,-5.1229,-5.1229,-5.1229,-5.1229,-5.1229,-5.1229,-5.1229,-5.1229,-5.1214,-5.1229,-5.1154,-5.0928,-5.0554,-5.0147,-4.9662,-4.8676,-4.7966,-4.7517,-4.7062,-4.6882,-4.6896,-4.7111,-4.7036,-4.6506,-4.594,-4.5806,-4.5819,-4.603,-4.6447,-4.6975,-4.6975,-4.6887,-4.649,-4.643,-4.6401,-4.6357,-4.6444,-4.6722,-4.7043,-4.7266,-4.7309,-4.7309,-4.7309,-4.7309,-4.7309,-4.7309,-4.7309,-4.7309,-4.7309,-4.7309,-4.7309,-4.7309,-4.7309,-4.7309,-4.7309,-4.7309,-4.7309,-4.7309,-4.7309,-4.7309,-4.7309,-4.7309,-4.7309,-4.7309,-4.7309,-4.7234,-4.7174,-4.7025,-4.686,-4.6753,-4.6509,-4.6077,-4.5514,-4.5155,-4.4769,-4.5024,-4.5547,-4.6202,-4.686,-4.6756,-4.6666,-4.6576,-4.6381,-4.5918,-4.5394,-4.4811,-4.4317,-4.3688,-4.2342,-4.104,-4.0113,-3.9275,-3.8527,-3.8033,-3.8362,-3.8781,-3.926,-4.0187,-4.1444,-4.2327,-4.3021,-4.329,-4.3305,-4.3305,-4.3125,-4.3006,-4.2895,-4.2611,-4.2438,-5.0928,-5.1214,-5.1229,-5.1229,-5.1229,-5.1229,-5.1229,-5.1229,-5.1229,-5.1229,-5.1229,-5.1229,-5.1229,-5.1229,-5.1229,-5.1229,-5.1214,-5.1169,-5.0913,-5.0655,-5.0073,-4.922,-4.836,-4.7616,-4.7262,-4.6985,-4.6904,-4.7165,-4.6925,-4.6183,-4.5529,-4.5123,-4.5099,-4.5313,-4.5714,-4.6136,-4.627,-4.6136,-4.6018,-4.6106,-4.6121,-4.6121,-4.6329,-4.6594,-4.6975,-4.7222,-4.7266,-4.7266,-4.7266,-4.7309,-4.7309,-4.7309,-4.7309,-4.7309,-4.7309,-4.7309,-4.7309,-4.7309,-4.7309,-4.7309,-4.7309,-4.7309,-4.7309,-4.7309,-4.7309,-4.7309,-4.7309,-4.7309,-4.7309,-4.7309,-4.7309,-4.7309,-4.7309,-4.7294,-4.7279,-4.7279,-4.6965,-4.6636,-4.6219,-4.5846,-4.5846,-4.604,-4.6474,-4.704,-4.7294,-4.7145,-4.707,-4.704,-4.692,-4.6681,-4.6142,-4.5589,-4.5185,-4.4635,-4.321,-4.1773,-4.0786,-3.9619,-3.8257,-3.7943,-3.8227,-3.8796,-3.9484,-4.0771,-4.2237,-4.288,-4.3275,-4.329,-4.3305,-4.3305,-4.3305,-4.3185,-4.3125,-4.3065,-4.3035,-5.0539,-5.1124,-5.1137,-5.112,-5.112,-5.112,-5.1135,-5.112,-5.112,-5.1182,-5.1182,-5.1229,-5.1229,-5.1229,-5.1229,-5.1229,-5.1229,-5.1214,-5.1199,-5.1105,-5.0576,-4.976,-4.9005,-4.8364,-4.7531,-4.7277,-4.7042,-4.6752,-4.6766,-4.5866,-4.4718,-4.4421,-4.4415,-4.4468,-4.4626,-4.5155,-4.5158,-4.473,-4.4716,-4.4808,-4.5173,-4.5355,-4.5568,-4.6047,-4.6609,-4.7121,-4.7164,-4.7164,-4.7222,-4.7222,-4.7222,-4.7222,-4.7179,-4.7222,-4.7222,-4.7309,-4.7309,-4.7309,-4.7266,-4.7266,-4.7179,-4.7222,-4.7266,-4.7179,-4.7121,-4.7266,-4.7309,-4.7309,-4.7309,-4.7309,-4.7309,-4.7309,-4.7309,-4.7309,-4.7309,-4.7309,-4.7174,-4.6875,-4.6636,-4.6324,-4.6399,-4.6636,-4.6683,-4.7174,-4.7309,-4.7309,-4.7309,-4.7309,-4.7249,-4.713,-4.6726,-4.6187,-4.5843,-4.5203,-4.3943,-4.2566,-4.1474,-4.0172,-3.8676,-3.8362,-3.899,-3.9409,-3.9783,-4.1309,-4.2836,-4.3006,-4.3305,-4.3319,-4.3319,-4.3305,-4.3305,-4.3305,-4.3305,-4.3349,-4.3305,-5.0285,-5.0465,-5.0756,-5.079,-5.0677,-5.0677,-5.0677,-5.0677,-5.0822,-5.1011,-5.1167,-5.1214,-5.1182,-5.1135,-5.1135,-5.1073,-5.112,-5.0979,-5.1182,-5.0994,-5.0629,-5.0009,-4.9268,-4.8574,-4.768,-4.6751,-4.6295,-4.6029,-4.5445,-4.4563,-4.3833,-4.3581,-4.348,-4.3427,-4.3688,-4.4137,-4.4024,-4.3554,-4.3224,-4.3513,-4.4004,-4.4289,-4.4531,-4.5067,-4.5673,-4.6195,-4.6343,-4.6624,-4.6727,-4.6771,-4.6785,-4.6771,-4.6771,-4.6887,-4.7121,-4.7266,-4.7309,-4.7309,-4.7266,-4.7121,-4.6946,-4.6756,-4.6712,-4.6771,-4.6858,-4.7121,-4.7251,-4.7266,-4.7309,-4.7309,-4.7309,-4.7309,-4.7309,-4.7309,-4.7309,-4.7309,-4.7309,-4.713,-4.692,-4.692,-4.695,-4.6995,-4.704,-4.713,-4.7264,-4.7309,-4.7309,-4.7309,-4.7309,-4.7204,-4.695,-4.6516,-4.6337,-4.5633,-4.4436,-4.3359,-4.2252,-4.1085,-3.9694,-3.9604,-3.9768,-4.0561,-4.1324,-4.2213,-4.3245,-4.3544,-4.3618,-4.3364,-4.3349,-4.3544,-4.3618,-4.3753,-4.3479,-4.3409,-4.3315,-4.9672,-5.0194,-5.0523,-5.0394,-4.9994,-4.996,-4.996,-4.9994,-5.0268,-5.0713,-5.112,-5.1073,-5.0979,-5.0852,-5.0757,-5.0585,-5.0537,-5.0537,-5.0442,-5.0361,-5.0216,-4.9815,-4.9248,-4.8703,-4.7802,-4.6809,-4.6051,-4.541,-4.4438,-4.4072,-4.3755,-4.3205,-4.2827,-4.2812,-4.3152,-4.3318,-4.3278,-4.2875,-4.2192,-4.2393,-4.2986,-4.3012,-4.317,-4.3735,-4.4359,-4.4957,-4.5446,-4.5777,-4.6016,-4.609,-4.6105,-4.6061,-4.6151,-4.6388,-4.6785,-4.7164,-4.7309,-4.7309,-4.7164,-4.6887,-4.6521,-4.624,-4.6076,-4.6046,-4.6091,-4.6403,-4.6975,-4.7033,-4.7266,-4.7309,-4.7309,-4.7309,-4.7309,-4.7309,-4.7309,-4.7309,-4.7309,-4.7234,-4.7145,-4.7145,-4.716,-4.7174,-4.7204,-4.7204,-4.7309,-4.7309,-4.7309,-4.7309,-4.7309,-4.7309,-4.704,-4.6845,-4.6681,-4.6097,-4.5005,-4.4003,-4.3045,-4.1848,-4.0561,-4.0382,-4.0427,-4.1818,-4.2955,-4.3509,-4.3988,-4.4317,-4.4272,-4.3977,-4.4137,-4.4466,-4.4421,-4.4347,-4.3971,-4.3504,-4.3212,-4.8834,-4.9965,-5.0158,-4.9737,-4.9077,-4.9022,-4.9022,-4.9077,-4.9576,-5.025,-5.0775,-5.0555,-5.0427,-5.0298,-5.0023,-4.9669,-4.9395,-4.9219,-4.9282,-4.9332,-4.9395,-4.9332,-4.9149,-4.8703,-4.7749,-4.6578,-4.5554,-4.4888,-4.4229,-4.3906,-4.3496,-4.3089,-4.3033,-4.3028,-4.3009,-4.3023,-4.2917,-4.2541,-4.2123,-4.2094,-4.2009,-4.1839,-4.2282,-4.2699,-4.3127,-4.3752,-4.4396,-4.4986,-4.5445,-4.543,-4.5456,-4.5287,-4.537,-4.5627,-4.6299,-4.6668,-4.6887,-4.6887,-4.6844,-4.6432,-4.5853,-4.5432,-4.5338,-4.5278,-4.5281,-4.5703,-4.6284,-4.677,-4.6945,-4.7222,-4.7222,-4.7266,-4.7266,-4.7266,-4.7266,-4.7266,-4.7266,-4.7266,-4.7266,-4.7266,-4.7266,-4.7266,-4.7266,-4.7266,-4.7266,-4.7266,-4.7266,-4.7309,-4.7309,-4.7309,-4.7189,-4.7115,-4.7055,-4.6337,-4.5394,-4.4676,-4.3763,-4.2312,-4.1145,-4.0935,-4.1122,-4.2506,-4.3599,-4.4287,-4.4721,-4.493,-4.4979,-4.4803,-4.5053,-4.5075,-4.4671,-4.4312,-4.4145,-4.3632,-4.3034,-4.7814,-4.8978,-4.8876,-4.8424,-4.7906,-4.7703,-4.7717,-4.7957,-4.846,-4.9198,-4.9605,-4.9248,-4.9022,-4.9386,-4.8944,-4.8446,-4.7813,-4.7712,-4.7647,-4.7633,-4.8145,-4.8646,-4.8795,-4.8288,-4.7308,-4.5992,-4.4561,-4.3615,-4.364,-4.3449,-4.3202,-4.3038,-4.2557,-4.2422,-4.2363,-4.2296,-4.2149,-4.196,-4.1948,-4.1799,-4.1872,-4.1977,-4.2489,-4.2902,-4.3349,-4.3906,-4.4507,-4.5233,-4.5393,-4.5316,-4.485,-4.4472,-4.4373,-4.4577,-4.525,-4.5718,-4.5943,-4.5987,-4.5808,-4.5341,-4.4716,-4.4191,-4.4045,-4.4012,-4.4172,-4.4577,-4.5207,-4.5901,-4.6241,-4.6858,-4.6975,-4.7077,-4.7121,-4.7121,-4.7121,-4.7121,-4.7121,-4.7121,-4.7135,-4.7135,-4.7135,-4.7121,-4.7077,-4.7077,-4.7077,-4.7077,-4.7077,-4.7077,-4.7019,-4.7121,-4.7164,-4.7222,-4.7194,-4.6486,-4.5529,-4.5259,-4.4392,-4.288,-4.1796,-4.1534,-4.1938,-4.318,-4.4152,-4.4721,-4.5125,-4.5364,-4.5397,-4.5597,-4.5139,-4.4969,-4.4521,-4.4205,-4.4078,-4.3546,-4.2705]},{"header":{"parameterUnit":"m.s-1","parameterCategory":1,"la1":31.0,"la2":29.5877,"lo1":-88.7671,"lo2":-86.6584,"dy":0.0162,"dx":0.0185,"nx":115,"ny":88,"refTime":"2026-04-17T12:00:00:Z","depth":0,"parameterNumber":3,"parameterNumberName":"V-component_of_WINDS"},"data":[0.0,0.0,0.0,0.0,0.0,0.0,0.0,0.0,0.0,0.0,0.0,0.0,0.0,0.0,0.0,0.0,0.0,0.0,0.0,0.0,0.0,0.0,0.0,0.0,0.0,0.0,0.0,0.0,0.0,0.0,0.0,0.0,0.0,0.0,0.0,0.0,0.0,0.0,0.0,0.0,0.0,0.0,0.0,0.0,0.0,0.0,0.0,0.0,0.0,0.0,0.0,0.0,0.0,0.0,0.0,0.0,0.0,0.0,0.0,0.0,0.0,0.0,0.0,0.0,0.0,0.0,0.0,0.0,0.0,0.0,0.0,0.0,0.0,0.0,0.0,0.0,0.0,0.0,0.0,0.0,0.0,0.0,0.0,0.0,0.0,0.0,0.0,0.0,0.0,0.0,0.0,0.0,0.0,0.0,0.0,0.0,0.0,0.0,0.0,0.0,0.0,0.0,0.0,0.0,0.0,0.0,0.0,0.0,0.0,0.0,0.0,0.0,0.0,0.0,0.0,0.0,0.0,0.0,0.0,0.0,0.0,0.0,0.0,0.0,0.0,0.0,0.0,0.0,0.0,0.0,0.0,0.0,0.0,0.0,0.0,0.0,0.0,0.0,0.0,0.0,0.0,0.0,0.0,0.0,0.0,0.0,0.0,0.0,0.0,0.0,0.0,0.0,0.0,0.0,0.0,0.0,0.0,0.0,0.0,0.0,0.0,0.0,0.0,0.0,0.0,0.0,0.0,0.0,0.0,0.0,0.0,0.0,0.0,0.0,0.0,0.0,0.0,0.0,0.0,0.0,0.0,0.0,0.0,0.0,0.0,0.0,0.0,0.0,0.0,0.0,0.0,0.0,0.0,0.0,0.0,0.0,0.0,0.0,0.0,0.0,0.0,0.0,0.0,0.0,0.0,0.0,0.0,0.0,0.0,0.0,0.0,0.0,0.0,0.0,0.0,0.0,0.0,0.0,0.0,0.0,0.0,0.0,0.0,0.0,0.0,0.0,0.0,0.0,0.0,0.0,0.0,0.0,0.0,0.0,0.0,0.0,0.0,0.0,0.0,0.0,0.0,0.0,0.0,0.0,0.0,0.0,0.0,0.0,0.0,0.0,0.0,0.0,0.0,0.0,0.0,0.0,0.0,0.0,0.0,0.0,0.0,0.0,0.0,0.0,0.0,0.0,0.0,0.0,0.0,0.0,0.0,0.0,0.0,0.0,0.0,0.0,0.0,0.0,0.0,0.0,0.0,0.0,0.0,0.0,0.0,0.0,0.0,0.0,0.0,0.0,0.0,0.0,0.0,0.0,0.0,0.0,0.0,0.0,0.0,0.0,0.0,0.0,0.0,0.0,0.0,0.0,0.0,0.0,0.0,0.0,0.0,0.0,0.0,0.0,0.0,0.0,0.0,0.0,0.0,0.0,0.0,0.0,0.0,0.0,0.0,0.0,0.0,0.0,0.0,0.0,0.0,0.0,0.0,0.0,0.0,0.0,0.0,0.0,0.0,0.0,0.0,0.0,0.0,0.0,0.0,0.0,0.0,0.0,0.0,0.0,0.0,0.0,0.0,0.0,0.0,0.0,0.0,0.0,0.0,0.0,0.0,0.0,0.0,0.0,0.0,0.0,0.0,0.0,0.0,0.0,0.0,0.0,0.0,0.0,0.0,0.0,0.0,0.0,0.0,0.0,0.0,0.0,0.0,0.0,0.0,0.0,0.0,0.0,0.0,0.0,0.0,0.0,0.0,0.0,0.0,0.0,0.0,0.0,0.0,0.0,0.0,0.0,0.0,0.0,0.0,0.0,0.0,0.0,0.0,0.0,0.0,0.0,0.0,0.0,0.0,0.0,0.0,0.0,0.0,0.0,0.0,0.0,0.0,0.0,0.0,0.0,0.0,0.0,0.0,0.0,0.0,0.0,0.0,0.0,0.0,0.0,0.0,0.0,0.0,0.0,0.0,0.0,0.0,0.0,0.0,0.0,0.0,0.0,0.0,0.0,0.0,0.0,0.0,0.0,0.0,0.0,0.0,0.0,0.0,0.0,0.0,0.0,0.0,0.0,0.0,0.0,0.0,0.0,0.0,0.0,0.0,0.0,0.0,0.0,0.0,0.0,0.0,0.0,0.0,0.0,0.0,0.0,0.0,0.0,0.0,0.0,0.0,0.0,0.0,0.0,0.0,0.0,0.0,0.0,0.0,0.0,0.0,0.0,0.0,0.0,0.0,0.0,0.0,0.0,0.0,0.0,0.0,0.0,0.0,0.0,0.0,0.0,0.0,0.0,0.0,0.0,0.0,0.0,0.0,0.0,0.0,0.0,0.0,0.0,0.0,0.0,0.0,0.0,0.0,0.0,0.0,0.0,0.0,0.0,0.0,0.0,0.0,0.0,0.0,0.0,0.0,0.0,0.0,0.0,0.0,0.0,0.0,0.0,0.0,0.0,0.0,0.0,0.0,0.0,0.0,0.0,0.0,0.0,0.0,0.0,0.0,0.0,0.0,0.0,0.0,0.0,0.0,0.0,0.0,0.0,0.0,0.0,0.0,0.0,0.0,0.0,0.0,0.0,0.0,0.0,0.0,0.0,0.0,0.0,0.0,0.0,0.0,0.0,0.0,0.0,0.0,0.0,0.0,0.0,0.0,0.0,0.0,0.0,0.0,0.0,0.0,0.0,0.0,0.0,0.0,0.0,0.0,0.0,0.0,0.0,0.0,0.0,0.0,0.0,0.0,0.0,0.0,0.0,0.0,0.0,0.0,0.0,0.0,0.0,0.0,0.0,0.0,0.0,0.0,0.0,0.0,0.0,0.0,0.0,0.0,0.0,0.0,0.0,0.0,0.0,0.0,0.0,0.0,0.0,0.0,0.0,0.0,0.0,0.0,0.0,0.0,0.0,0.0,0.0,0.0,0.0,0.0,0.0,0.0,0.0,0.0,0.0,0.0,0.0,0.0,0.0,0.0,0.0,0.0,0.0,0.0,0.0,0.0,0.0,0.0,0.0,0.0,0.0,0.0,0.0,0.0,0.0,0.0,0.0,0.0,0.0,0.0,0.0,0.0,0.0,0.0,0.0,0.0,0.0,0.0,0.0,0.0,0.0,0.0,0.0,0.0,0.0,0.0,0.0,0.0,0.0,0.0,0.0,0.0,0.0,0.0,0.0,0.0,0.0,0.0,0.0,0.0,0.0,0.0,0.0,0.0,0.0,0.0,0.0,0.0,0.0,0.0,0.0,0.0,0.0,0.0,0.0,0.0,0.0,0.0,0.0,0.0,0.0,0.0,0.0,0.0,0.0,0.0,0.0,0.0,0.0,0.0,0.0,0.0,0.0,0.0,0.0,0.0,0.0,0.0,0.0,0.0,0.0,0.0,0.0,0.0,0.0,0.0,0.0,0.0,0.0,0.0,0.0,0.0,0.0,0.0,0.0,0.0,0.0,0.0,0.0,0.0,0.0,0.0,0.0,0.0,0.0,0.0,0.0,0.0,0.0,0.0,0.0,0.0,0.0,0.0,0.0,0.0,0.0,0.0,0.0,0.0,0.0,0.0,0.0,0.0,0.0,0.0,0.0,0.0,0.0,0.0,0.0,0.0,0.0,0.0,0.0,0.0,0.0,0.0,0.0,0.0,0.0,0.0,0.0,0.0,0.0,0.0,0.0,0.0,0.0,0.0,0.0,0.0,0.0,0.0,0.0,0.0,0.0,0.0,0.0,0.0,0.0,0.0,0.0,0.0,0.0,0.0,0.0,0.0,0.0,0.0,0.0,0.0,0.0,0.0,0.0,0.0,0.0,0.0,0.0,0.0,0.0,0.0,0.0,0.0,0.0,0.0,0.0,0.0,0.0,0.0,0.0,0.0,0.0,0.0,0.0,0.0,0.0,0.0,0.0,0.0,0.0,0.0,0.0,0.0,0.0,0.0,0.0,0.0,0.0,0.0,0.0,0.0,0.0,0.0,0.0,0.0,0.0,0.0,0.0,0.0,0.0,0.0,0.0,0.0,0.0,0.0,0.0,0.0,0.0,0.0,0.0,0.0,0.0,0.0,0.0,0.0,0.0,0.0,0.0,0.0,0.0,0.0,0.0,0.0,0.0,0.0,0.0,0.0,0.0,0.0,0.0,0.0,0.0,0.0,0.0,0.0,0.0,0.0,0.0,0.0,0.0,0.0,0.0,0.0,0.0,0.0,0.0,0.0,0.0,0.0,0.0,0.0,0.0,0.0,0.0,0.0,0.0,0.0,0.0,0.0,0.0,0.0,0.0,0.0,0.0,0.0,0.0,0.0,0.0,0.6177,0.0,0.0,0.0,0.0,0.0,0.0,0.0,0.0,0.0,0.0,0.0,0.0,0.0,0.0,0.0,0.0,0.0,0.0,0.0,0.0,0.0,0.0,0.0,0.0,0.0,0.0,0.0,0.0,0.0,0.0,0.0,0.0,0.0,0.0,0.0,0.0,0.0,0.0,0.0,0.0,0.0,0.0,0.0,0.0,0.0,0.0,0.0,0.0,0.0,0.0,0.0,0.0,0.0,0.0,0.0,0.0,0.0,0.0,0.0,0.0,0.0,0.0,0.0,0.0,0.0,0.0,0.0,0.0,0.0,0.0,0.0,0.0,0.0,0.0,0.0,0.0,0.0,0.0,0.0,0.0,0.0,0.0,0.0,0.0,0.0,0.0,0.0,0.0,0.0,0.0,0.0,0.0,0.0,0.0,0.0,0.0,0.0,0.0,0.0,0.0,0.0,0.0,0.0,0.0,0.0,0.0,0.0,0.0,0.0,0.0,0.6538,0.6505,0.6486,0.6439,0.6425,0.0,0.0,0.0,0.0,0.0,0.0,0.0,0.0,0.0,0.0,0.0,0.0,0.0,0.0,0.0,0.0,0.0,0.0,0.0,0.0,0.0,0.0,0.0,0.0,0.0,0.0,0.0,0.0,0.0,0.0,0.0,0.0,0.0,0.0,0.0,0.0,0.0,0.0,0.0,0.0,0.0,0.0,0.0,0.0,0.0,0.0,0.0,0.0,0.0,0.0,0.0,0.0,0.0,0.0,0.0,0.0,0.0,0.0,0.0,0.0,0.0,0.0,0.0,0.0,0.0,0.0,0.0,0.0,0.0,0.0,0.0,0.0,0.0,0.0,0.0,0.0,0.0,0.0,0.0,0.0,0.0,0.0,0.0,0.0,0.0,0.0,0.0,0.0,0.0,0.0,0.0,0.0,0.0,0.0,0.0,0.0,0.0,0.0,0.0,0.0,0.0,0.0,0.0,0.0,0.0,0.0,0.0,0.0,0.0,0.0,0.0,0.0,0.6536,0.659,0.659,0.0,0.0,0.0,0.0,0.0,0.0,0.0,0.0,0.0,0.0,0.0,0.0,0.0,0.0,0.0,0.0,0.0,0.0,0.0,0.0,0.0,0.0,0.0,0.0,0.0,0.0,0.0,0.0,0.0,0.0,0.0,0.0,0.0,0.0,0.0,0.0,0.0,0.0,0.0,0.0,0.0,0.0,0.0,0.0,0.0,0.0,0.0,0.0,0.0,0.0,0.0,0.0,0.0,0.0,0.0,0.0,0.0,0.0,0.0,0.0,0.0,0.0,0.0,0.0,0.0,0.0,0.0,0.0,0.0,0.0,0.0,0.0,0.0,0.0,0.0,0.0,0.0,0.0,0.0,0.0,0.0,0.0,0.0,0.0,0.0,0.0,0.0,0.0,0.0,0.0,0.0,0.0,0.0,0.0,0.0,0.0,0.0,0.0,0.0,0.0,0.0,0.0,0.0,0.0,0.0,0.0,0.0,0.0,0.0,0.0,0.5871,0.5875,0.6357,0.0,0.659,0.0,0.0,0.0,0.0,0.0,0.0,0.0,0.0,0.0,0.0,0.0,0.0,0.0,0.0,0.0,0.0,0.0,0.0,0.0,0.0,0.0,0.0,0.0,0.0,0.0,0.0,0.0,0.0,0.0,0.0,0.0,0.0,0.0,0.0,0.0,0.0,0.0,0.0,0.0,0.0,0.0,0.0,0.0,0.0,0.0,0.0,0.0,0.0,0.0,0.0,0.0,0.0,0.0,0.0,0.0,0.0,0.0,0.0,0.0,0.0,0.0,0.0,0.0,0.0,0.0,0.0,0.0,0.0,0.0,0.0,0.0,0.0,0.0,0.0,0.0,0.0,0.0,0.0,0.0,0.0,0.0,0.0,0.0,0.0,0.0,0.0,0.0,0.0,0.0,0.0,0.0,0.0,0.0,0.0,0.0,0.0,0.0,0.0,0.0,0.0,0.0,0.0,0.0,0.0,0.0,0.0,0.0,0.0,0.0,0.0,0.5943,0.6277,0.679,0.6928,0.0,0.0,0.0,0.0,0.0,0.0,0.0,0.0,0.0,0.0,0.0,0.0,0.0,0.0,0.0,0.0,0.0,0.0,0.0,0.0,0.0,0.0,0.0,0.0,0.0,0.0,0.0,0.0,0.0,0.0,0.0,0.0,0.0,0.0,0.0,0.0,0.0,0.0,0.0,0.0,0.0,0.0,0.0,0.0,0.0,0.0,0.0,0.0,0.0,0.0,0.0,0.0,0.0,0.0,0.0,0.0,0.0,0.0,0.0,0.0,0.0,0.0,0.0,0.0,0.0,0.0,0.0,0.0,0.0,0.0,0.0,0.0,0.0,0.0,0.0,0.0,0.0,0.0,0.0,0.0,0.0,0.0,0.0,0.0,0.0,0.0,0.0,0.0,0.0,0.0,0.0,0.0,0.0,0.0,0.0,0.0,0.0,0.0,0.0,0.0,0.0,0.0,0.0,0.0,0.0,0.0,0.0,0.0,0.0,0.0,0.5581,0.5908,0.6574,0.6987,0.7003,0.6603,0.0,0.0,0.0,0.0,0.0,0.0,0.0,0.0,0.0,0.0,0.0,0.0,0.0,0.0,0.0,0.0,0.0,0.0,0.0,0.0,0.0,0.0,0.0,0.0,0.0,0.0,0.0,0.0,0.0,0.0,0.0,0.0,0.0,0.0,0.0,0.0,0.0,0.0,0.0,0.0,0.0,0.0,0.0,0.0,0.0,0.0,0.0,0.0,0.0,0.0,0.0,0.0,0.0,0.0,0.0,0.0,0.0,0.0,0.0,0.0,0.0,0.0,0.0,0.0,0.0,0.0,0.0,0.0,0.0,0.0,0.0,0.0,0.0,0.0,0.0,0.0,0.0,0.0,0.0,0.0,0.0,0.0,0.0,0.0,0.0,0.0,0.0,0.0,0.0,0.0,0.0,0.0,0.0,0.0,0.0,0.0,0.0,0.0,0.0,0.0,0.0,0.0,0.0,0.0,0.0,0.0,0.0,0.0,0.0,0.506,0.5551,0.6561,0.6624,0.6637,0.0,0.0,0.0,0.0,0.0,0.0,0.0,0.0,0.0,0.0,0.0,0.0,0.0,0.0,0.0,0.0,0.0,0.0,0.0,0.0,0.0,0.0,0.0,0.0,0.0,0.0,0.0,0.0,0.0,0.0,0.0,0.0,0.0,0.0,0.0,0.0,0.0,0.0,0.0,0.0,0.0,0.0,0.0,0.0,0.0,0.0,0.0,0.0,0.0,0.0,0.0,0.0,0.0,0.0,0.0,0.0,0.0,0.0,0.0,0.0,0.0,0.0,0.0,0.0,0.0,0.0,0.0,0.0,0.0,0.0,0.0,0.0,0.0,0.0,0.0,0.0,0.0,0.0,0.0,0.0,0.0,0.0,0.0,0.0,0.0,0.0,0.0,0.0,0.0,0.0,0.0,0.0,0.0,0.0,0.0,0.0,0.0,0.0,0.0,0.0,0.0,0.0,0.0,0.0,0.0,0.0,0.0,0.0,0.0,0.5533,0.585,0.6214,0.6595,0.6937,0.6953,0.0,0.0,0.0,0.0,0.0,0.0,0.0,0.0,0.0,0.0,0.0,0.0,0.0,0.0,0.0,0.0,0.0,0.0,0.0,0.0,0.0,0.0,0.0,0.0,0.0,0.0,0.0,0.0,0.0,0.0,0.0,0.0,0.0,0.0,0.0,0.0,0.0,0.0,0.0,0.0,0.0,0.0,0.0,0.0,0.0,0.0,0.0,0.0,0.0,0.0,0.0,0.0,0.0,0.0,0.0,0.0,0.0,0.0,0.0,0.0,0.0,0.0,0.0,0.0,0.0,0.0,0.0,0.0,0.0,0.0,0.0,0.0,0.0,0.0,0.0,0.0,0.0,0.0,0.0,0.0,0.0,0.0,0.0,0.0,0.0,0.0,0.0,0.0,0.0,0.0,0.0,0.0,0.0,0.0,0.0,0.0,0.0,0.0,0.0,0.0,0.0,0.0,0.0,0.0,0.0,0.0,0.0,0.0,0.0,0.582,0.0,0.659,0.0,0.694,0.6975,0.0,0.0,0.0,0.0,0.0,0.0,0.0,0.0,0.0,0.0,0.0,0.0,0.0,0.0,0.0,0.0,0.0,0.0,0.0,0.0,0.0,0.0,0.0,0.0,0.0,0.0,0.0,0.0,0.0,0.0,0.0,0.0,0.0,0.0,0.0,0.0,0.0,0.0,0.0,0.0,0.0,0.0,0.0,0.0,0.0,0.0,0.0,0.0,0.0,0.0,0.0,0.0,0.0,0.0,0.0,0.0,0.0,0.0,0.0,0.0,0.0,0.0,0.0,0.0,0.0,0.0,0.0,0.0,0.0,0.0,0.0,0.0,0.0,0.0,0.0,0.0,0.0,0.0,0.0,0.0,0.0,0.0,0.0,0.0,0.0,0.0,0.0,0.0,0.0,0.0,0.0,0.0,0.0,0.0,0.0,0.0,0.0,0.0,0.0,0.0,0.0,0.0,0.0,0.0,0.0,0.0,0.0,0.0,0.5888,0.5878,0.6394,0.6699,0.6603,0.6649,0.6624,0.0,0.0,0.0,0.0,0.0,0.0,0.0,0.0,0.0,0.0,0.0,0.0,0.0,0.0,0.0,0.0,0.0,0.0,0.0,0.0,0.0,0.0,0.0,0.0,0.0,0.0,0.0,0.0,0.0,0.0,0.0,0.0,0.0,0.0,0.0,0.0,0.0,0.0,0.0,0.0,0.0,0.0,0.0,0.0,0.0,0.0,0.0,0.0,0.0,0.0,0.0,0.0,0.0,0.0,0.0,0.0,0.0,0.0,0.0,0.0,0.0,0.0,0.0,0.0,0.0,0.0,0.0,0.0,0.0,0.0,0.0,0.0,0.0,0.0,0.0,0.0,0.0,0.0,0.0,0.0,0.0,0.0,0.0,0.0,0.0,0.0,0.0,0.0,0.0,0.0,0.0,0.0,0.0,0.0,0.0,0.0,0.0,0.0,0.0,0.0,0.0,0.0,0.0,0.0,0.0,0.0,0.0,0.0,0.0,0.7548,0.8047,0.7937,0.7203,0.7153,0.6981,0.0,0.0,0.0,0.0,0.0,0.0,0.0,0.0,0.0,0.0,0.0,0.0,0.0,0.0,0.0,0.0,0.0,0.0,0.0,0.0,0.0,0.0,0.0,0.0,0.0,0.0,0.0,0.0,0.0,0.0,0.0,0.0,0.0,0.0,0.0,0.0,0.0,0.0,0.0,0.0,0.0,0.0,0.0,0.0,0.0,0.0,0.0,0.0,0.0,0.0,0.0,0.0,0.0,0.0,0.0,0.0,0.0,0.0,0.0,0.0,0.0,0.0,0.0,0.0,0.0,0.0,0.0,0.0,0.0,0.0,0.0,0.0,0.0,0.0,0.0,0.0,0.0,0.0,0.0,0.0,0.0,0.0,0.0,0.0,0.0,0.0,0.0,0.0,0.0,0.0,0.0,0.0,0.0,0.0,0.0,0.0,0.0,0.0,0.0,0.0,0.0,0.0,0.0,0.0,0.0,0.0,0.0,0.0,0.0,0.9855,0.9956,0.9403,0.8075,0.8037,0.7673,0.6977,0.0,0.0,0.0,0.0,0.0,0.0,0.0,0.0,0.0,0.0,0.0,0.0,0.0,0.0,0.0,0.0,0.0,0.0,0.0,0.0,0.0,0.0,0.0,0.0,0.0,0.0,0.0,0.0,0.0,0.0,0.0,0.0,0.0,0.0,0.0,0.0,0.0,0.0,0.0,0.0,0.0,0.0,0.0,0.0,0.0,0.0,0.0,0.0,0.0,0.0,0.0,0.0,0.0,0.0,0.0,0.0,0.0,0.0,0.0,0.0,0.0,0.0,0.0,0.0,0.0,0.0,0.0,0.0,0.0,0.0,0.0,0.0,0.0,0.0,0.0,0.0,0.0,0.0,0.0,0.0,0.0,0.0,0.0,0.0,0.0,0.0,0.0,0.0,0.0,0.0,0.0,0.0,0.0,0.0,0.0,0.0,0.0,0.0,0.0,0.0,0.0,0.0,0.0,0.0,0.0,0.0,0.0,0.0,1.2513,1.2118,1.105,0.9314,0.9214,0.8684,0.0,0.0,0.0,0.0,0.0,0.0,0.0,0.0,0.0,0.0,0.0,0.0,0.0,0.0,0.0,0.0,0.0,0.0,0.0,0.0,0.0,0.0,0.0,0.0,0.0,0.0,0.0,0.0,0.0,0.0,0.0,0.0,0.0,0.0,0.0,0.0,0.0,0.0,0.0,0.0,0.0,0.0,0.0,0.0,0.0,0.0,0.0,0.0,0.0,0.0,0.0,0.0,0.0,0.0,0.0,0.0,0.0,0.0,0.0,0.0,0.0,0.0,0.0,0.0,0.0,0.0,0.0,0.0,0.0,0.0,0.0,0.0,0.0,0.0,0.0,0.0,0.0,0.0,0.0,0.0,0.0,0.0,0.0,0.0,0.0,0.0,0.0,0.0,0.0,0.0,0.0,0.0,0.0,0.0,0.0,0.0,0.0,0.0,0.0,0.0,0.0,0.0,0.0,0.0,0.0,0.0,0.0,0.0,0.0,1.423,1.4877,1.3848,1.1062,1.0521,0.9831,0.0,0.0,0.0,0.0,0.0,0.0,0.0,0.0,0.0,0.0,0.0,0.0,0.0,0.0,0.0,0.0,0.0,0.0,0.0,0.0,0.0,0.0,0.0,0.0,0.0,0.0,0.0,0.0,0.0,0.0,0.0,0.0,0.0,0.0,0.0,0.0,0.0,0.0,0.0,0.0,0.0,0.0,0.0,0.0,0.0,0.0,0.0,0.0,0.0,0.0,0.0,0.0,0.0,0.0,0.0,0.0,0.0,0.0,0.0,0.0,0.0,0.0,0.0,0.0,0.0,0.0,0.0,0.0,0.0,0.0,0.0,0.0,0.0,0.0,0.0,0.0,0.0,0.0,0.0,0.0,0.0,0.0,0.0,0.0,0.0,0.0,0.0,0.0,0.0,0.0,0.0,0.0,0.0,0.0,0.0,0.0,0.0,0.0,0.0,0.0,0.0,0.0,0.0,0.0,0.0,0.0,0.0,0.0,1.4463,1.5542,1.6886,1.6187,1.34,1.2074,1.0851,0.0,0.0,0.0,0.0,0.0,0.0,0.0,0.0,0.0,0.0,0.0,0.0,0.0,0.0,0.0,0.0,0.0,0.0,0.0,0.0,0.0,0.0,0.0,0.0,0.0,0.0,0.0,0.0,0.0,0.0,0.0,0.0,0.0,0.0,0.0,0.0,0.0,0.0,0.0,0.0,0.0,0.0,0.0,0.0,0.0,0.0,0.0,0.0,0.0,0.0,0.0,0.0,0.0,0.0,0.0,0.0,0.0,0.0,0.0,0.0,0.0,0.0,0.0,0.0,0.0,0.0,0.0,0.0,0.0,0.0,0.0,0.0,0.0,0.0,0.0,0.0,0.0,0.0,0.0,0.0,0.0,0.0,0.0,0.0,0.0,0.0,0.0,0.0,0.0,0.0,0.0,0.0,0.0,0.0,0.0,0.0,0.0,0.0,0.0,0.0,0.0,0.0,0.0,0.0,0.0,0.0,0.0,0.0,1.5563,1.6588,1.8218,1.8042,1.5919,1.3735,1.1847,0.0,0.0,0.0,0.0,0.0,0.0,0.0,0.0,0.0,0.0,0.0,0.0,0.0,0.0,0.0,0.0,0.0,0.0,0.0,0.0,0.0,0.0,0.0,0.0,0.0,0.0,0.0,0.0,0.0,0.0,0.0,0.0,0.0,0.0,0.0,0.0,0.0,0.0,0.0,0.0,0.0,0.0,0.0,0.0,0.0,0.0,0.0,0.0,0.0,0.0,0.0,0.0,0.0,0.0,0.0,0.0,0.0,0.0,0.0,0.0,0.0,0.0,0.0,0.0,0.0,0.0,0.0,0.0,0.0,0.0,0.0,0.0,0.0,0.0,0.0,0.0,0.0,0.0,0.0,0.0,0.0,0.0,0.0,0.0,0.0,0.0,0.0,0.0,0.0,0.0,0.0,0.0,0.0,0.0,0.0,0.0,0.0,0.0,0.0,0.0,0.0,0.0,0.0,0.0,0.0,0.0,0.0,0.0,1.6475,1.72,1.8794,1.8807,1.7084,1.4903,1.3002,0.0,0.0,0.0,0.0,0.0,0.0,0.0,0.0,0.0,0.0,0.0,0.0,0.0,0.0,0.0,0.0,0.0,0.0,0.0,0.0,0.0,0.0,0.0,0.0,0.0,0.0,0.0,0.0,0.0,0.0,0.0,0.0,0.0,0.0,0.0,0.0,0.0,0.0,0.0,0.0,0.0,0.0,0.0,0.0,0.0,0.0,0.0,0.0,0.7591,0.0,0.0,0.0,0.0,0.0,0.0,0.0,0.0,0.0,0.0,0.0,0.0,0.0,0.0,0.0,0.0,0.0,0.0,0.0,0.0,0.0,0.0,0.0,0.0,0.0,0.0,0.0,0.0,0.0,0.0,0.0,0.0,0.0,0.0,0.0,0.0,0.0,0.0,0.0,0.0,0.0,0.0,0.0,0.0,0.0,0.0,0.0,0.0,0.0,0.0,0.0,0.0,0.0,0.0,0.0,0.0,0.0,0.0,0.0,1.7438,1.8505,1.9648,1.9459,1.7813,1.5877,1.3995,0.0,0.0,0.0,0.0,0.0,0.0,0.0,0.0,0.0,0.0,0.0,0.0,0.0,0.0,0.0,0.0,0.0,0.0,0.0,0.0,0.0,0.0,0.0,0.0,0.0,0.0,0.0,0.0,0.0,0.0,0.0,0.0,0.0,0.0,0.0,0.0,0.0,0.0,0.0,0.0,0.0,0.0,0.0,0.0,0.0,0.0,0.0,0.0,0.0,0.0,0.0,0.0,0.0,0.0,0.0,0.0,0.0,0.0,0.0,0.0,0.0,0.0,0.0,0.0,0.0,0.0,0.0,0.0,0.0,0.0,0.0,0.0,0.0,0.0,0.0,0.0,0.0,0.0,0.0,0.0,0.0,0.0,0.0,0.0,0.0,0.0,0.0,0.0,0.0,0.0,0.0,0.0,0.0,0.0,0.0,0.0,0.0,0.0,0.0,0.0,0.0,0.0,0.0,0.0,0.0,0.0,0.0,1.6245,1.8405,1.9761,2.0641,2.0201,1.838,1.6785,1.4896,1.269,0.0,0.0,0.0,0.0,0.0,0.0,0.0,0.0,0.0,0.0,0.0,0.0,0.0,0.0,0.0,0.0,0.0,0.0,0.0,0.0,0.0,0.0,0.0,0.0,0.0,0.0,0.0,0.0,0.0,0.0,0.0,0.0,0.0,0.0,0.0,0.0,0.0,0.0,0.5952,0.6604,0.0,0.0,0.0,0.0,0.0,0.0,0.0,0.0,0.6858,0.0,0.0,0.0,0.0,0.0,0.0,0.0,0.0,0.0,0.0,0.0,0.0,0.0,0.0,0.0,0.0,0.0,0.0,0.0,0.0,0.0,0.0,0.0,0.0,0.0,0.0,0.0,0.0,0.0,0.0,0.0,0.0,0.0,0.0,0.0,0.0,0.0,0.0,0.0,0.0,0.0,0.0,0.0,0.0,0.0,0.0,0.0,0.0,0.0,0.0,0.0,0.0,0.0,0.0,0.0,0.0,1.3934,1.7561,1.9535,1.9823,2.1691,2.1478,1.897,1.7727,1.5885,1.3263,0.0,0.0,0.0,0.0,0.0,0.0,0.0,0.0,0.0,0.0,0.0,0.0,0.0,0.0,0.0,0.0,0.0,0.0,0.0,0.0,0.0,0.0,0.0,0.0,0.0,0.0,0.0,0.0,0.0,0.0,0.0,0.0,0.0,0.0,0.0,0.0,0.0,0.0,0.0,0.7186,0.7643,0.0,0.0,0.0,0.0,0.0,0.0,0.0,0.0,0.7882,0.0,0.0,0.0,0.0,0.0,0.0,0.0,0.0,0.0,0.0,0.0,0.0,0.0,0.0,0.0,0.0,0.0,0.0,0.0,0.0,0.0,0.0,0.0,0.0,0.0,0.0,0.0,0.0,0.0,0.0,0.0,0.0,0.0,0.0,0.0,0.0,0.0,0.0,0.0,0.0,0.0,0.0,0.0,0.0,0.0,0.0,0.0,0.0,0.0,0.0,0.0,0.0,0.0,0.0,0.0,1.5324,1.8279,2.0363,2.1478,2.2543,2.2067,1.9924,1.7965,1.5809,0.0,0.0,0.0,0.0,0.0,0.0,0.0,0.0,0.0,0.0,0.0,0.0,0.0,0.0,0.0,0.0,0.0,0.0,0.0,0.0,0.0,0.0,0.0,0.0,0.0,0.0,0.0,0.0,0.0,0.0,0.0,0.0,0.0,0.0,0.0,0.0,0.0,0.0,0.0,0.0,0.7446,0.7805,0.8532,0.0,0.0,0.0,0.0,0.0,0.0,0.7606,0.7709,0.0,0.0,0.0,0.0,0.0,0.0,0.0,0.0,0.0,0.0,0.0,0.0,0.0,0.0,0.0,0.0,0.0,0.0,0.0,0.0,0.0,0.0,0.0,0.0,0.0,0.0,0.0,0.0,0.0,0.0,0.0,0.0,0.0,0.0,0.0,0.0,0.0,0.0,0.0,0.0,0.0,0.0,0.0,0.0,0.0,0.0,0.0,0.0,0.0,0.0,0.0,0.0,0.0,0.0,0.0,1.6403,1.8882,2.1104,2.3007,2.3321,2.2606,2.088,1.8254,1.5809,0.0,0.0,0.0,0.0,0.0,0.0,0.0,0.0,0.0,0.0,0.0,0.0,0.0,0.0,0.0,0.0,0.0,0.0,0.0,0.0,0.0,0.0,0.0,0.0,0.0,0.0,0.0,0.0,0.0,0.0,0.0,0.0,0.0,0.0,0.0,0.0,0.0,0.0,0.0,0.0,0.0,0.8252,0.919,0.9072,0.0,0.0,0.0,0.0,0.7728,0.7821,0.0,0.0,0.0,0.0,0.0,0.0,0.0,0.0,0.0,0.0,0.0,0.0,0.0,0.0,0.0,0.0,0.0,0.0,0.0,0.0,0.0,0.0,0.0,0.0,0.0,0.0,0.0,0.0,0.0,0.0,0.0,0.0,0.0,0.0,0.0,0.0,0.0,0.0,0.0,0.0,0.0,0.0,0.0,0.0,0.0,0.0,0.0,0.0,0.0,0.0,0.0,0.0,0.0,0.0,0.0,0.0,1.6377,1.9647,2.1882,2.307,2.4073,2.3572,2.1471,1.9196,1.6813,0.0,0.0,0.0,0.0,0.0,0.0,0.0,0.0,0.0,0.0,0.0,0.0,0.0,0.0,0.0,0.0,0.0,0.0,0.0,0.0,0.0,0.0,0.0,0.0,0.0,0.0,0.0,0.0,0.0,0.0,0.0,0.0,0.0,0.0,0.0,0.0,0.0,0.0,0.0,0.0,0.0,0.947,0.9096,0.9903,1.015,0.0,0.0,0.9415,0.8908,0.9264,0.0,0.0,0.0,0.0,0.0,0.0,0.0,0.0,0.0,0.0,0.0,0.0,0.0,0.0,0.0,0.0,0.0,0.0,0.0,0.0,0.0,0.0,0.0,0.0,0.0,0.0,0.0,0.0,0.0,0.0,0.0,0.0,0.0,0.0,0.0,0.0,0.0,0.0,0.0,0.0,0.0,0.0,0.0,0.0,0.0,0.0,0.0,0.0,0.0,0.0,0.0,0.0,0.0,0.0,0.0,1.3539,1.7175,2.032,2.2648,2.4023,2.4858,2.4205,2.2008,1.9823,1.742,0.0,0.0,0.0,0.0,0.0,0.0,0.0,0.0,0.0,0.0,0.0,0.0,0.0,0.0,0.0,0.0,0.0,0.0,0.0,0.0,0.0,0.0,0.0,0.0,0.0,0.0,0.0,0.0,0.0,0.0,0.0,0.0,0.0,0.0,0.0,0.0,0.0,0.0,0.0,0.0,0.0,0.0,1.0191,1.0391,0.0,0.0,0.0,1.0234,1.0683,0.0,0.0,0.0,0.0,0.0,0.0,0.0,0.0,0.0,0.0,0.0,0.0,0.0,0.0,0.0,0.0,0.0,0.0,0.0,0.0,0.0,0.0,0.0,0.0,0.0,0.0,0.0,0.0,0.0,0.0,0.0,0.0,0.0,0.0,0.0,0.0,0.0,0.0,0.0,0.0,0.0,0.0,0.0,0.0,0.0,0.0,0.0,0.0,0.0,0.0,0.0,0.0,0.0,0.0,0.0,0.0,0.0,1.7785,2.0767,2.3095,2.4725,2.5209,2.4469,2.2531,2.0236,0.0,0.0,0.0,0.0,0.0,0.0,0.0,0.0,0.0,0.0,0.0,0.0,0.0,0.0,0.0,0.0,0.0,0.0,0.0,0.0,0.0,0.0,0.0,0.0,0.0,0.0,0.0,0.3593,0.0,0.0,0.0,0.0,0.0,0.0,0.0,0.0,0.0,0.0,0.0,0.0,0.0,0.0,1.0171,1.1198,1.1054,1.1105,0.0,0.0,1.1105,1.189,1.1236,1.0612,0.0,0.0,0.0,0.0,0.0,0.0,0.0,0.0,0.0,0.0,0.0,0.0,0.0,0.0,0.0,0.0,0.0,0.0,0.0,0.0,0.0,0.0,0.0,0.0,0.0,0.0,0.0,0.0,0.0,0.0,0.0,0.0,0.0,0.0,0.0,0.0,0.0,0.0,0.0,0.0,0.0,0.0,0.0,0.0,0.0,0.0,0.0,0.0,0.0,0.0,0.0,0.0,0.0,0.0,0.0,1.7832,2.0794,2.315,2.4725,2.4858,2.4261,2.3045,2.0437,1.8001,0.0,0.0,0.0,0.0,0.0,0.0,0.0,0.0,0.0,0.0,0.0,0.0,0.0,0.0,0.0,0.0,0.0,0.0,0.0,0.0,0.0,0.0,0.0,0.0,0.0,0.0,0.0,0.0,0.0,0.0,0.0,0.0,0.0,0.0,0.0,0.0,0.0,0.0,0.0,0.0,0.0,1.1019,1.1673,1.2206,1.236,0.0,0.0,1.2373,1.1893,1.1809,1.1469,1.0571,0.0,0.0,0.0,0.0,0.0,0.0,0.0,0.0,0.0,0.0,0.0,0.0,0.0,0.0,0.0,0.0,0.0,0.0,0.0,0.0,0.0,0.0,0.0,0.0,0.0,0.0,0.0,0.0,0.0,0.0,0.0,0.0,0.0,0.0,0.0,0.0,0.0,0.0,0.0,0.0,0.0,0.0,0.0,0.0,0.0,0.0,0.0,0.0,0.0,0.0,0.0,0.0,0.0,1.4796,1.829,2.1615,2.3991,2.5234,2.5297,2.4575,2.3133,2.1428,1.9183,0.0,0.0,0.0,0.0,0.0,0.0,0.0,0.0,0.0,0.0,0.0,0.0,0.0,0.0,0.0,0.0,0.0,0.0,0.0,0.0,0.0,0.0,0.0,0.0,0.0,0.0,0.0,0.0,0.4474,0.4644,0.5412,0.0,0.0,0.0,0.0,0.0,0.0,0.0,0.0,0.0,0.0,1.1105,1.2042,1.2361,0.0,0.0,1.2576,1.2551,1.2645,1.2136,1.1615,1.1322,1.0348,0.0,0.0,0.0,0.0,0.0,0.0,0.0,0.0,0.0,0.0,0.0,0.0,0.0,0.0,0.0,0.0,0.0,0.0,0.0,0.0,0.0,0.0,0.0,0.0,0.0,0.0,0.0,0.0,0.0,0.0,0.0,0.0,0.0,0.0,0.0,0.0,0.0,0.0,0.0,0.0,0.0,0.0,0.0,0.0,0.0,0.0,0.0,0.0,0.0,0.0,0.0,0.0,1.5553,1.8672,2.218,2.4443,2.5347,2.536,2.4732,2.3396,2.2008,1.9911,0.0,0.0,0.0,0.0,0.0,0.0,0.0,0.0,0.0,0.0,0.0,0.0,0.0,0.0,0.0,0.0,0.0,0.0,0.0,0.0,0.0,0.0,0.0,0.0,0.0,0.0,0.0,0.0,0.525,0.5394,0.5762,0.0,0.0,0.0,0.0,0.0,0.0,0.0,0.0,0.0,0.0,1.161,1.2743,1.3044,1.3283,1.3654,1.3378,1.322,1.3433,1.2538,1.1872,1.1995,0.0,0.0,0.0,0.0,0.0,0.0,0.0,0.0,0.0,0.0,0.0,0.0,0.0,0.0,0.0,0.0,0.0,0.0,0.0,0.0,0.0,0.0,0.0,0.0,0.0,0.0,0.0,0.0,0.0,0.0,0.7531,0.0,0.0,0.0,0.0,0.0,0.0,0.0,0.0,0.0,0.0,0.0,0.0,0.0,0.0,0.0,0.0,0.0,0.0,0.0,0.0,0.0,0.0,1.6076,1.8909,2.2251,2.4268,2.4813,2.4813,2.4569,2.3941,2.1873,1.9925,1.8141,0.0,0.0,0.0,0.0,0.0,0.0,0.0,0.0,0.0,0.0,0.0,0.0,0.0,0.0,0.0,0.0,0.0,0.0,0.0,0.0,0.0,0.0,0.0,0.0,0.0,0.0,0.5783,0.5783,0.5795,0.0,0.0,0.0,0.0,0.0,0.0,0.0,0.0,0.0,0.0,1.1648,1.2768,1.3883,1.45,1.4808,1.4859,1.4833,1.4645,1.4166,1.3124,1.2407,0.0,0.0,0.0,0.0,0.0,0.0,0.0,0.0,0.0,0.0,0.0,0.0,0.0,0.0,0.0,0.0,0.0,0.0,0.0,0.0,0.0,0.0,0.0,0.0,0.0,0.0,0.0,1.2486,1.2096,0.0,0.0,0.0,0.0,0.0,0.0,0.0,0.0,0.0,0.0,0.0,1.7112,1.7639,0.0,0.0,0.0,0.0,0.0,0.0,0.0,0.0,0.0,0.0,0.0,0.0,1.6366,1.9446,2.2067,2.401,2.5272,2.4996,2.4525,2.4004,2.2548,2.0138,1.6647,0.0,0.0,0.0,0.0,0.0,0.0,0.0,0.0,0.0,0.0,0.0,0.0,0.0,0.0,0.0,0.0,0.0,0.0,0.0,0.0,0.0,0.0,0.0,0.0,0.0,0.6332,0.0,0.0,0.0,0.0,0.0,0.0,0.0,0.0,0.0,0.0,0.0,1.0044,1.1161,1.1924,1.2944,1.4425,1.5085,1.5563,0.0,0.0,0.0,0.0,0.0,0.0,0.0,0.0,0.0,0.0,0.0,0.0,0.0,0.0,1.1112,1.0831,0.9965,0.8805,0.7288,0.0,0.0,0.0,0.0,0.0,0.0,0.0,0.0,0.0,0.0,0.0,0.0,0.0,0.0,1.5764,0.0,1.4054,0.0,0.0,0.0,0.0,0.0,0.0,0.0,0.0,1.9747,2.0663,2.025,2.0941,2.1368,0.0,2.1543,2.0338,0.0,0.0,0.0,0.0,0.0,0.0,0.0,0.0,1.7109,1.9786,2.2385,2.4224,2.5259,2.5172,2.4833,2.428,2.2623,1.9924,1.6095,1.4412,1.2693,0.0,0.0,0.0,0.0,0.0,0.0,0.0,0.0,0.0,0.0,0.0,0.0,0.0,0.0,0.0,0.0,0.0,0.0,0.0,0.0,0.0,0.0,0.0,0.659,0.0,0.0,0.0,0.0,0.0,0.0,0.0,0.0,0.0,0.8852,0.9981,1.1111,1.204,1.2806,1.3855,1.5436,0.0,0.0,0.0,0.0,0.0,0.0,0.0,1.3729,1.4268,1.5003,1.5387,1.4997,1.4563,1.397,1.3121,0.0,0.0,1.1885,1.0864,0.9637,0.7995,0.843,0.8826,0.7852,0.8572,0.941,0.0,0.0,0.0,0.0,0.0,0.0,0.0,0.0,2.02,1.9083,0.0,1.6443,0.0,0.0,0.0,0.0,0.0,0.0,0.0,0.0,2.2205,2.3521,2.4017,2.4067,2.4368,2.485,2.482,2.4519,2.3778,1.9673,0.0,0.0,0.0,0.0,0.0,0.0,1.8215,1.9874,2.302,2.4738,2.4813,2.5322,2.5322,2.4675,2.2108,1.9434,1.6726,1.6007,1.4714,1.2617,1.1385,0.0,0.0,0.0,0.0,0.0,0.0,0.0,0.0,0.0,0.0,0.0,0.0,0.0,0.0,0.0,0.0,0.0,0.0,0.0,0.0,0.6332,0.0,0.0,0.0,0.0,0.0,0.0,0.0,0.0,0.0,0.0,1.0067,1.146,1.2689,1.3235,0.0,0.0,0.0,0.0,1.8664,1.9281,1.8874,1.8312,1.7981,1.6716,1.5994,1.6513,0.0,0.0,1.6826,1.6246,1.5602,1.4683,1.4844,1.4771,1.3345,1.2022,1.0701,0.9426,0.9579,0.973,0.934,0.9931,1.0685,2.5649,0.0,0.0,0.0,0.0,2.2819,2.3929,2.4777,2.3791,2.2899,2.1983,2.0101,0.0,0.0,0.0,0.0,0.0,0.0,2.1581,2.2899,2.5071,2.6009,2.5808,2.6163,2.6427,2.6565,2.6176,2.5912,2.5682,2.3301,2.074,1.8042,0.0,0.0,0.0,0.0,1.8404,2.044,2.2535,2.3985,2.4775,2.5322,2.4958,2.3622,2.1735,1.995,1.8331,1.6989,1.5819,1.4789,1.2944,0.0,0.0,0.0,0.0,0.0,0.0,0.0,0.0,0.0,0.0,0.0,0.0,0.0,0.0,0.0,0.0,0.0,0.0,0.0,0.6862,0.7463,0.7824,0.0,0.0,0.0,0.0,0.0,0.0,0.0,0.0,0.0,1.2382,1.3449,1.4513,0.0,0.0,1.7586,1.8523,1.9167,1.965,1.9941,0.0,0.0,0.0,1.8363,1.8254,1.8781,1.9811,2.0313,1.9623,1.873,1.776,1.6705,1.5997,1.541,1.4974,1.3718,1.2195,1.0724,1.0709,1.0911,1.0432,1.0847,1.1349,3.0482,2.7005,2.6138,2.5774,2.5875,2.6954,2.8059,2.9038,2.7908,2.7005,2.6176,2.4211,2.2573,2.1277,2.0752,0.0,0.0,0.0,2.477,2.5699,2.7682,2.8298,2.7882,2.8348,2.836,2.7934,2.7595,2.7366,2.7128,2.6113,2.4393,2.192,0.0,0.0,1.8154,1.8756,1.9799,2.1358,2.3163,2.4456,2.5089,2.5234,2.4607,2.3145,2.1744,2.0402,1.9045,1.7817,1.6823,1.6032,1.4124,1.2319,0.0,0.0,0.0,0.0,0.0,0.0,0.0,0.0,0.0,0.0,0.0,0.4783,0.5583,0.0,0.0,0.0,0.6307,0.679,0.7666,0.8452,0.0,0.0,0.0,0.0,0.0,0.0,0.0,1.1695,1.2341,1.3138,1.4231,1.5272,1.6163,1.6745,1.7785,1.8729,1.935,0.0,2.0072,2.0315,2.0153,1.9942,1.9813,1.979,2.0179,2.129,2.1606,2.1606,2.1094,2.0075,1.8995,1.7915,1.6974,1.6317,1.607,1.5074,1.3773,1.209,1.1974,1.2027,1.1497,1.1823,1.2225,3.4387,3.3307,3.1286,3.0294,3.0156,3.116,3.219,3.3093,3.2081,3.0972,2.988,2.8273,2.664,2.5059,2.4556,0.0,0.0,2.6766,2.7758,2.836,2.9942,3.0407,2.9955,3.0382,3.0029,2.9026,2.8888,2.8562,2.8109,2.8034,2.7519,2.6461,2.2435,2.0589,2.1031,2.1493,2.202,2.2598,2.4619,2.5649,2.5661,2.5109,2.4261,2.312,2.2071,2.074,1.9146,1.8481,1.7714,1.6651,1.5047,1.3418,1.1801,0.0,0.0,0.0,0.0,0.0,0.0,0.0,0.0,0.0,0.0,0.0,0.0,0.0,0.0,0.0,0.74,0.0,0.8512,0.9529,0.0,0.0,0.0,1.0572,1.1629,1.1751,1.2255,1.3586,0.0,0.0,0.0,0.0,1.7564,1.7477,1.8412,1.925,1.9713,1.992,2.0122,2.0395,2.0158,2.0158,2.0575,2.1014,2.1905,2.3603,2.3226,2.2385,2.1732,2.0727,1.961,1.8555,1.7852,1.7285,1.6697,1.6045,1.5241,1.3754,1.3386,1.319,1.2776,1.3015,1.3341,3.7073,3.6797,3.627,3.46,3.2407,3.3018,3.3696,3.4248,3.3608,3.2679,3.1549,3.0369,2.89,2.7318,2.7193,2.7431,2.796,2.8812,2.949,3.0055,3.0834,3.1135,3.1009,3.0746,3.0442,3.0143,2.8913,2.8235,2.8084,2.7682,2.7379,2.7077,2.6047,2.4946,2.3847,2.3966,2.4293,2.4808,2.5795,2.6285,2.6273,2.5322,2.4261,2.3133,2.2071,2.0903,1.966,1.8719,1.8078,1.7777,1.5814,1.413,1.2889,1.136,0.0,0.0,0.0,0.0,0.0,0.0,0.0,0.0,0.0,0.7633,0.7874,0.0,0.8965,0.0,1.0031,1.0659,1.0823,1.1773,0.0,0.0,1.2263,1.2402,1.2986,1.2963,1.3233,1.4057,1.4665,1.5313,1.6059,1.7449,1.8558,1.8935,1.9939,2.0598,2.05,2.0127,1.9862,1.9692,1.9553,1.9727,2.0533,2.2123,2.3678,2.5006,2.4644,2.386,2.2882,2.1832,2.0754,1.9623,1.8643,1.7865,1.7275,1.6396,1.5844,1.5648,1.5078,1.4469,1.4331,1.4419,1.4507,3.8241,3.8002,3.8002,3.6948,3.5278,3.5341,3.5529,3.5755,3.4977,3.4229,3.3646,3.2762,3.1926,3.1072,3.1047,3.1085,3.112,3.1474,3.1662,3.1725,3.2014,3.2001,3.175,3.1461,3.0959,3.0218,2.9038,2.8335,2.8097,2.7795,2.7783,2.8009,2.8273,2.7946,2.7042,2.6289,2.605,2.6352,2.67,2.6851,2.6813,2.5511,2.4261,2.3133,2.2071,2.0953,1.9849,1.8995,1.8455,1.8179,1.6547,1.499,1.3672,1.2475,1.1082,0.0,0.0,0.0,0.0,0.0,0.0,0.0,0.0,0.0,0.0,0.0,1.1224,0.0,1.2558,0.0,1.3747,1.4789,1.5262,1.4834,1.4566,1.4364,1.4269,1.4022,1.4032,1.4553,1.5138,1.5828,1.6654,1.7698,1.8795,1.9828,2.0544,2.0889,2.0693,2.0263,1.9912,1.9792,1.9693,2.0107,2.1375,2.2931,2.428,2.5119,2.4962,2.4241,2.2965,2.2071,2.1054,1.9736,1.8945,1.8392,1.7827,1.7287,1.6936,1.7074,1.6798,1.622,1.5726,1.5625,1.5555,3.8693,3.8228,3.8228,3.8216,3.8165,3.7638,3.7324,3.7123,3.6047,3.5571,3.547,3.4919,3.4688,3.4568,3.4537,3.4211,3.3696,3.3608,3.3319,3.288,3.293,3.2692,3.2215,3.2202,3.1436,2.9993,2.9264,2.8687,2.8222,2.8147,2.8386,2.89,2.9515,2.9779,2.9729,2.8335,2.7605,2.7494,2.7494,2.7419,2.7304,2.5737,2.4311,2.3133,2.2071,2.0916,1.9761,1.9246,1.8744,1.818,1.7102,1.5856,1.4475,1.3722,1.2622,0.0,1.1007,0.0,0.0,0.0,0.0,0.0,0.0,0.0,0.0,1.273,1.3144,1.4229,1.4865,1.5638,1.6635,1.7739,1.8085,1.732,1.6859,1.6299,1.5568,1.5001,1.4784,1.5106,1.5529,1.6221,1.7297,1.7919,1.8966,2.0361,2.0785,2.0916,2.0928,2.0593,2.031,2.0435,2.025,2.0693,2.2262,2.3246,2.3966,2.4709,2.4567,2.3859,2.2552,2.182,2.0903,1.9421,1.897,1.8757,1.8292,1.8229,1.8317,1.8367,1.843,1.8091,1.7039,1.6713,1.6547,3.9471,3.9371,3.9371,3.9371,3.9333,3.8781,3.8027,3.7136,3.6496,3.5956,3.547,3.4919,3.4474,3.4035,3.3596,3.3081,3.2503,3.2064,3.1813,3.1725,3.2177,3.2315,3.2202,3.2202,3.1825,3.1022,2.9616,2.8838,2.8725,2.831,2.8386,2.89,2.9515,2.9779,2.9767,0.0,0.0,0.0,2.8574,2.8185,2.7316,2.6076,2.4707,2.3145,2.2058,0.0,1.9246,1.9058,1.8757,1.8193,1.7102,0.0,0.0,0.0,0.0,0.0,0.0,0.0,0.0,0.0,0.0,0.0,1.7102,1.6575,1.4632,1.4431,1.4695,1.5349,1.6342,1.7197,1.784,1.8857,1.9345,1.8966,1.8516,1.7911,1.7067,1.6119,1.5622,1.579,1.6145,1.6803,1.8039,1.9195,2.0206,2.1022,2.1353,2.179,2.228,2.1643,2.1045,2.0793,2.074,2.0871,2.1598,2.2399,2.3336,2.3975,2.3788,2.3156,2.2468,2.1603,2.0613,1.9284,1.8857,1.8682,1.8304,1.8531,1.9045,1.9434,1.9899,1.9761,1.8229,1.7903,1.7714,3.9697,0.0,3.9697,3.9697,0.0,3.9107,3.8592,3.8014,3.7412,3.686,3.6345,3.6056,3.5341,3.4274,3.3734,3.2867,3.1775,3.1248,3.1009,3.1047,3.1838,3.2202,3.2227,3.278,3.2466,3.1361,3.0294,2.9628,2.9352,2.9076,2.9227,2.9767,3.0306,3.0457,3.0193,2.993,2.9654,2.9365,2.9038,2.8612,2.8072,2.6741,2.5372,2.396,0.0,0.0,0.0,0.0,0.0,0.0,0.0,0.0,0.0,0.0,0.0,1.4883,1.5096,1.551,1.6061,1.7089,1.8329,1.971,2.0087,1.9309,1.7087,1.6672,1.6861,1.7652,1.8756,1.9748,2.0577,2.1603,2.2027,2.1465,2.0781,1.9885,1.8647,1.7174,1.6293,1.6361,1.6706,1.7489,1.8945,2.0336,2.1567,2.2498,2.2854,2.3118,2.3515,2.2695,2.1869,2.1752,2.2041,2.2305,2.2446,2.295,2.3593,2.4272,2.4047,2.3413,2.281,2.2017,2.1014,1.976,1.9584,1.9622,1.9196,1.966,2.0413,2.0878,2.1054,2.1018,2.0263,1.9811,1.9171,3.9697,3.9697,3.9697,3.9697,3.9659,3.9207,3.9019,3.8969,0.0,0.0,0.0,3.7186,3.627,3.4713,3.4148,3.298,3.1386,3.0859,3.062,3.067,3.1725,3.2202,3.2265,3.337,3.3081,3.1549,3.1009,3.0507,3.008,2.9993,3.0218,3.0746,3.1185,3.1122,3.0608,3.0068,2.9779,2.9767,2.9327,2.9026,2.885,2.7406,2.6109,2.4951,2.3747,2.238,2.0905,2.083,2.0566,1.9974,1.9547,1.9158,1.8794,1.8254,1.779,1.7463,1.794,1.8694,1.966,2.0224,2.1179,2.2661,2.2246,2.123,1.9572,1.8869,1.8894,1.9874,2.0978,2.2033,2.302,2.4111,2.4503,2.3763,2.2887,2.1739,2.0222,1.8331,1.7151,1.6992,1.7177,1.795,1.9533,2.0963,2.2393,2.3575,2.3835,2.4348,2.4688,2.3895,2.308,2.3101,2.3446,2.378,2.3642,2.3965,2.454,2.4955,2.4623,2.4074,2.3361,2.2518,2.1478,2.0388,2.0751,2.0914,2.0501,2.1167,2.2033,2.251,2.2347,2.2133,2.2284,2.1744,2.0729,3.9697,3.9697,3.9697,3.9697,3.9697,3.9609,3.9584,3.9496,3.8467,3.7701,3.7199,3.7186,3.627,3.4688,3.4148,3.298,3.1386,3.0846,3.062,0.0,3.1671,3.2202,3.2277,3.337,3.3269,3.2127,3.1549,3.1248,3.1122,3.0721,3.0758,3.1235,3.1361,3.1135,3.062,3.0068,2.9779,2.9779,2.9716,2.9428,2.8875,2.777,2.6628,2.5498,2.3948,2.2556,2.1458,2.1421,2.1144,2.0603,2.0503,2.0629,2.0978,2.0515,2.0402,2.0778,2.1317,2.1895,2.2468,2.3058,2.3715,2.4324,2.3954,2.2937,2.1292,2.0175,1.9849,2.0553,2.1619,2.2447,2.3083,2.4173,2.4748,2.4486,2.4014,2.3131,2.167,1.9971,1.8576,1.7935,1.7381,1.777,1.9331,2.0664,2.1856,2.2829,2.3514,2.4184,2.5265,2.5217,2.48,2.4641,2.4508,2.4183,2.3836,2.4237,2.4903,2.5571,2.5129,2.455,2.4023,2.2723,2.1719,2.1317,2.2092,2.2443,2.2058,2.2874,2.3489,2.374,2.3904,2.391,2.3258,2.2819,2.202,3.9697,3.9697,3.9697,3.9697,3.9697,3.9697,3.9697,3.9659,3.9157,3.8617,3.8115,3.8103,3.701,3.5144,3.4587,3.3432,3.18,3.1286,3.1198,3.1562,3.2616,3.3131,3.3244,3.4274,3.4211,3.3156,3.288,3.2604,3.2344,3.2064,3.2077,3.2277,3.2001,3.1712,3.1449,3.0658,3.0244,3.0231,2.9942,2.9666,2.939,2.8599,2.7645,2.6527,2.546,2.428,2.2912,2.2849,2.2736,2.2485,2.2171,2.2259,2.2799,2.2309,2.2121,2.2385,2.2924,2.3477,2.3985,2.4858,2.5468,2.5707,2.5184,2.4556,2.3778,2.2422,2.1845,2.2435,2.3213,2.386,2.4431,2.5222,2.5711,2.5657,2.5191,2.4415,2.3247,2.1733,2.0309,1.9205,1.86,1.8677,1.9587,2.0502,2.1542,2.262,2.3437,2.4443,2.6014,2.6105,2.5905,2.5739,2.5599,2.5254,2.4628,2.4809,2.5365,2.596,2.5531,2.5077,2.4755,2.3502,2.2686,2.2811,2.3496,2.3722,2.3339,2.3835,2.4443,2.4833,2.4757,2.46,2.4374,2.3572,2.1904,3.9697,3.9697,3.9697,3.9697,3.9697,3.9697,3.9697,3.9697,3.9685,3.9459,3.9133,3.8982,3.7701,3.5746,3.5278,3.4173,3.2679,3.2152,3.219,3.2667,3.3621,3.4085,3.4198,3.5044,3.4931,3.401,3.3909,3.3621,3.3131,3.3124,3.3124,3.3036,3.2365,3.2026,3.2001,3.0959,3.0432,3.0407,3.0005,2.9779,2.9779,2.9227,2.8474,2.7708,2.7014,2.6072,2.482,2.4619,2.4556,2.4531,2.413,2.4061,2.4494,2.413,2.386,2.3898,2.4305,2.4745,2.5184,2.6009,2.6487,2.6487,2.6084,2.585,2.5862,2.4833,2.4086,2.4393,2.4833,2.5385,2.5912,2.6524,2.6864,2.6839,2.6348,2.5642,2.4747,2.3288,2.1806,2.0577,1.9802,1.9542,2.0002,2.0468,2.1339,2.2634,2.3722,2.4955,2.6299,2.6747,2.6878,2.6854,2.6734,2.6393,2.5859,2.5797,2.6015,2.6457,2.6151,2.5797,2.5477,2.4519,2.3923,2.4217,2.472,2.4883,2.4544,2.482,2.531,2.5649,2.5523,2.5272,2.5146,2.369,2.1744,3.9697,3.9697,3.9697,3.9697,3.9697,3.9697,3.9697,3.9697,3.9697,3.9672,3.9546,3.9145,3.7989,3.648,3.6279,3.5316,3.3822,3.3696,3.3709,3.3822,3.4361,3.465,3.4713,3.5245,3.4919,3.4048,3.396,3.3696,3.3187,3.3093,3.3124,3.2998,3.2001,3.1512,3.1373,3.0432,2.9892,2.9867,2.9817,2.9779,2.9754,2.9227,2.885,2.8737,2.7745,2.719,2.6879,2.6537,2.626,2.626,2.6197,2.6197,2.6235,2.6197,2.6172,2.6172,2.6223,2.6298,2.6348,2.6436,2.6537,2.6487,2.6487,2.665,2.7042,2.6954,2.644,2.585,2.6047,2.6575,2.708,2.7582,2.7833,2.7783,2.7381,2.6834,2.5915,2.4337,2.2807,2.193,2.0581,1.9808,2.019,2.0559,2.134,2.2711,2.4127,2.5415,2.655,2.7322,2.7948,2.8192,2.7849,2.7254,2.6983,2.6974,2.6822,2.7032,2.7097,2.6615,2.5925,2.5883,2.5946,2.5059,2.5569,2.5921,2.5745,2.5921,2.6248,2.6235,2.616,2.6034,2.5034,2.3597,2.1895,3.9986,3.9697,3.9697,3.9697,3.9697,3.9697,3.9697,3.9697,3.9697,3.9697,3.9672,3.9459,3.8605,3.7349,3.7337,3.6609,3.5403,3.5399,3.5399,3.5378,3.5592,3.5692,3.5717,3.5906,3.5617,3.4881,3.4831,3.4412,3.3646,3.3244,3.3124,3.3048,3.2265,3.1876,3.18,3.0809,3.0419,3.0708,3.0118,2.9942,3.0181,2.9729,2.9226,2.8888,2.8449,2.8084,2.7795,2.7544,2.7419,2.7467,2.7419,2.7467,2.7431,2.7467,2.7467,2.7431,2.7431,2.7431,2.7431,2.7431,2.7467,2.7431,2.7467,2.7544,2.7733,2.777,2.767,2.7607,2.7494,2.7544,2.777,2.7984,2.8109,2.8084,2.7883,2.7419,2.6443,2.5369,2.4134,2.2634,2.1362,2.0515,2.0561,2.1041,2.1823,2.287,2.4208,2.5674,2.6909,2.7702,2.8401,2.9077,2.8741,2.7982,2.7375,2.681,2.6705,2.6774,2.6826,2.6524,2.6336,2.6273,2.6285,2.5812,2.6197,2.6411,2.6197,2.6273,2.6487,2.6487,2.6461,2.6235,2.5423,2.423,2.2874,4.0199,3.9735,3.9697,3.9697,3.9697,3.9697,3.9697,3.9697,3.9697,3.9697,3.9697,3.9697,3.9157,3.8304,3.809,3.74,3.6493,3.6417,3.6417,3.6417,3.6417,3.6405,3.6417,3.6417,3.6069,3.5571,3.547,3.4964,3.3947,3.3345,3.3124,3.3036,3.2503,3.2139,3.1901,3.1047,3.0796,3.1072,3.0382,3.0218,3.0468,3.0218,2.9741,2.9227,2.9113,2.8976,2.8586,2.8561,2.8574,2.8561,2.8574,2.8486,2.8335,2.8335,2.8273,2.8134,2.8109,2.8109,2.8109,2.8109,2.8109,2.8109,2.8109,2.8172,2.8298,2.8323,2.8586,2.9013,2.88,2.8574,2.8574,2.8574,2.8561,2.8561,2.8461,2.7921,2.709,2.6235,2.4941,2.3442,2.2225,2.1439,2.1358,2.2075,2.3073,2.3555,2.4835,2.6106,2.7411,2.8137,2.8816,2.9614,2.9264,2.8512,2.7545,2.7013,2.6589,2.628,2.6348,2.6487,2.6361,2.6336,2.6487,2.6197,2.6411,2.6474,2.6399,2.6449,2.6487,2.6487,2.6461,2.6298,2.5636,2.4782,2.3853,4.0199,3.9747,3.9697,3.9697,3.9697,3.9697,3.9697,3.9697,3.9697,3.9697,3.9697,3.9697,3.9371,3.8818,3.8266,3.7412,3.6531,3.6455,3.6443,3.6417,3.6417,3.6417,3.6417,3.6405,3.6081,3.5596,3.5571,3.5006,3.3985,3.3426,3.3124,3.3056,3.2503,3.1951,3.1512,3.0959,3.0645,3.0783,3.0658,3.062,3.0605,3.062,3.0319,2.9854,2.9741,2.9691,2.9666,2.9691,2.9679,2.9691,2.9641,2.944,2.8925,2.8863,2.8687,2.8235,2.8147,2.816,2.8185,2.821,2.8197,2.8172,2.826,2.836,2.8837,2.8863,2.9126,2.9679,2.9616,2.9591,2.9591,2.9503,2.9566,2.9553,2.9176,2.8649,2.8034,2.654,2.5419,2.4424,2.3199,2.249,2.2491,2.3753,2.4519,2.5087,2.6424,2.7748,2.8126,2.8827,2.9383,2.9576,2.9327,2.8712,2.8124,2.7562,2.6832,2.649,2.66,2.6436,2.616,2.6047,2.6311,2.6487,2.6487,2.6487,2.6487,2.6487,2.6487,2.6487,2.6487,2.6248,2.5887,2.5247,2.4381,4.104,4.0187,3.9835,3.9697,3.9697,3.9697,3.9697,3.9697,3.9697,3.9697,3.9697,3.9697,3.9396,3.8856,3.8655,3.7952,3.6983,3.6945,3.6744,3.6455,3.6417,3.6417,3.6417,3.6417,3.6329,3.6107,3.6056,3.5692,3.4881,3.4048,3.3596,3.3432,3.2667,3.2102,3.1863,3.1386,3.1273,3.1562,3.1311,3.1273,3.1508,3.1298,3.1009,3.0796,3.0143,2.9779,2.9779,2.9779,2.9779,2.9779,2.9779,2.9704,2.9503,2.9478,2.9402,2.9214,2.9176,2.9189,2.9189,2.9176,2.9176,2.9176,2.9189,2.9214,2.944,2.949,2.9578,2.9741,2.9779,2.9779,2.9779,2.9779,2.9779,2.9754,2.9591,2.9101,2.8134,2.6929,2.5812,2.4861,2.3934,2.3585,2.4017,2.5087,2.6107,2.6881,2.7841,2.8559,2.9096,2.946,2.9702,2.9728,2.9616,2.9277,2.8675,2.8172,2.7632,2.7356,2.7218,2.703,2.6791,2.6399,2.6512,2.6487,2.6487,2.6487,2.6487,2.6487,2.6487,2.6487,2.6487,2.6411,2.6223,2.5586,2.482,4.1204,4.0501,3.9923,3.9697,3.9697,3.9697,3.9697,3.9697,3.9697,3.9697,3.9697,3.9697,3.9471,3.9182,3.9196,3.853,3.75,3.7274,3.6933,3.6443,3.6417,3.6417,3.6417,3.6417,3.6417,3.6367,3.6169,3.5893,3.542,3.4437,3.3935,3.3834,3.2943,3.239,3.219,3.1838,3.1851,3.2077,3.1838,3.1851,3.2127,3.1851,3.1549,3.1323,3.067,3.0218,3.0068,2.9892,2.9779,2.9779,2.9779,2.9779,2.9779,2.9779,2.9779,2.9779,2.9779,2.9779,2.9779,2.9779,2.9779,2.9779,2.9779,2.9779,2.9779,2.9779,2.9779,2.9779,2.9779,2.9779,2.9779,2.9779,2.9779,2.9779,2.9779,2.9327,2.8222,2.7165,2.5858,2.455,2.4261,2.4399,2.4863,2.5988,2.6929,2.7783,2.8399,2.9063,2.9428,2.9691,2.9691,2.9578,2.9666,2.944,2.9114,2.8712,2.826,2.7984,2.7745,2.7582,2.7218,2.6839,2.6524,2.6499,2.6499,2.6487,2.6499,2.6499,2.6512,2.6524,2.6487,2.6449,2.6223,2.5937,2.5159,4.0601,4.0526,3.9948,3.976,3.976,3.971,3.9697,3.9697,3.9697,3.9697,3.9697,3.9697,3.9672,3.9647,3.9597,3.9032,3.8078,3.7513,3.6935,3.6455,3.6417,3.6417,3.6417,3.6417,3.6417,3.6392,3.5843,3.5558,3.5508,3.4613,3.4073,3.3897,3.347,3.298,3.2315,3.2378,3.2265,3.2277,3.224,3.2227,3.2215,3.2215,3.2014,3.1574,3.1399,3.1135,3.0683,3.0143,2.9842,2.9804,2.9829,2.9817,2.9917,2.9942,2.9867,2.993,2.9867,2.9842,2.988,2.9917,2.998,2.998,2.988,2.9967,2.9953,2.9955,2.9955,2.9928,2.9955,2.9905,2.9942,2.9955,2.9892,2.9779,2.9779,2.9327,2.8235,2.714,2.5669,2.3998,2.4173,2.4782,2.5172,2.6126,2.7153,2.7469,2.8122,2.8725,2.8925,2.9252,2.9402,2.9176,2.9176,2.9139,2.9227,2.9277,2.885,2.8473,2.8247,2.8021,2.7457,2.7027,2.66,2.6499,2.67,2.6725,2.7014,2.7002,2.6813,2.6776,2.6663,2.6549,2.6311,2.6047,2.546,4.1656,4.153,4.0639,4.0262,4.0212,3.986,3.9697,3.9697,3.9697,3.9697,3.9697,3.9697,3.9697,3.9697,3.9685,3.9295,3.8592,3.8002,3.7262,3.6556,3.6417,3.6417,3.6417,3.6417,3.6417,3.6392,3.6207,3.6107,3.5956,3.5353,3.4981,3.4881,3.4462,3.4148,3.3859,3.3571,3.3219,3.2842,3.2805,3.2629,3.2303,3.2604,3.2704,3.2541,3.2177,3.1863,3.1646,3.0846,3.0193,2.9854,3.0156,3.052,3.0796,3.0896,3.0884,3.0884,3.0896,3.0896,3.0884,3.0871,3.0846,3.0871,3.0871,3.0753,3.0623,3.0768,3.0768,3.0638,3.0753,3.0896,3.0896,3.0884,3.0583,2.9867,2.9779,2.9402,2.8247,2.6829,2.5523,2.4625,2.4933,2.5473,2.5862,2.665,2.6901,2.7193,2.762,2.7946,2.831,2.8561,2.8599,2.8423,2.8586,2.875,2.8762,2.9013,2.9076,2.8938,2.8825,2.8348,2.777,2.7406,2.6964,2.6738,2.6914,2.7115,2.7404,2.7454,2.7256,2.7128,2.7052,2.6826,2.6524,2.5996,2.5335,4.2213,4.2087,4.0965,4.0526,4.045,3.9923,3.9697,3.9697,3.9697,3.9697,3.9697,3.9697,3.9697,3.9697,3.9697,3.9383,3.8906,3.8479,3.7726,3.6795,3.6468,3.6417,3.6417,3.6417,3.6417,3.6417,3.6417,3.6417,3.638,3.583,3.5483,3.5395,3.4956,3.4655,3.463,3.4186,3.3709,3.3407,3.3224,3.2948,3.2679,3.2893,3.3124,3.3061,3.2729,3.2428,3.2202,3.1549,3.0959,3.0545,3.0733,3.106,3.1361,3.1361,3.1386,3.1386,3.1373,3.1361,3.1386,3.1323,3.1386,3.1386,3.1386,3.1308,3.1163,3.1308,3.1295,3.1163,3.1257,3.1386,3.1373,3.1373,3.106,3.0495,3.0419,2.9792,2.8549,2.7118,2.6101,2.5661,2.5724,2.6109,2.6373,2.6499,2.6625,2.6952,2.719,2.7366,2.7758,2.7984,2.7959,2.7984,2.8122,2.821,2.821,2.8599,2.9151,2.9315,2.9415,2.8775,2.8134,2.8034,2.772,2.7469,2.7507,2.757,2.7821,2.7883,2.7795,2.7632,2.7379,2.6851,2.6373,2.5661,2.4988,4.2263,4.2112,4.1053,4.0701,4.0614,4.0049,3.981,3.9772,3.9697,3.9697,3.9697,3.9697,3.9697,3.9697,3.9697,3.9433,3.9032,3.8869,3.8304,3.74,3.6845,3.6505,3.643,3.6417,3.6417,3.6417,3.6417,3.6417,3.638,3.5918,3.5545,3.5558,3.5228,3.4818,3.4851,3.4286,3.396,3.3771,3.3332,3.3056,3.3061,3.3099,3.3174,3.3199,3.3099,3.2805,3.2403,3.2227,3.1964,3.1512,3.1411,3.1499,3.1524,3.1486,3.1641,3.1637,3.1512,3.1587,3.1537,3.1675,3.1637,3.1662,3.1662,3.1486,3.1625,3.1687,3.17,3.165,3.1637,3.1599,3.1612,3.1612,3.1562,3.1499,3.1223,3.0457,2.9176,2.8097,2.7406,2.6939,2.6713,2.6612,2.6675,2.6562,2.6487,2.6487,2.6813,2.704,2.7417,2.757,2.7645,2.7657,2.7645,2.7795,2.7833,2.8512,2.9101,2.9503,2.9628,2.9176,2.8511,2.8386,2.8398,2.8172,2.8084,2.8147,2.831,2.8473,2.8298,2.7959,2.7469,2.6779,2.6264,2.5787,2.5259,4.276,4.2685,4.2062,4.1718,4.158,4.0727,4.03,4.0237,3.986,3.9697,3.9697,3.9697,3.9697,3.9697,3.9697,3.9597,3.9383,3.9057,3.8844,3.8366,3.7436,3.6807,3.648,3.6417,3.6417,3.6417,3.6417,3.6417,3.6405,3.6194,3.6119,3.6144,3.5943,3.5927,3.5818,3.4951,3.4311,3.3872,3.3357,3.3124,3.3124,3.3124,3.3294,3.3621,3.3282,3.3074,3.2855,3.2842,3.2579,3.2064,3.1989,3.2202,3.2558,3.2608,3.2571,3.2541,3.2579,3.2646,3.2591,3.2579,3.2646,3.2629,3.2516,3.2629,3.2629,3.2629,3.2671,3.2671,3.2629,3.2604,3.2646,3.2621,3.2591,3.2478,3.1687,3.0809,3.0206,2.9578,2.9063,2.8913,2.8499,2.7921,2.7304,2.6763,2.6424,2.6135,2.6189,2.6502,2.7115,2.7241,2.7329,2.7128,2.708,2.7331,2.7695,2.8399,2.9026,2.9578,2.9691,2.9553,2.8925,2.8486,2.8574,2.8537,2.8662,2.8725,2.9101,2.9402,2.8938,2.8285,2.8122,2.7695,2.7067,2.6527,2.5975,4.2986,4.2936,4.2439,4.2213,4.2074,4.0978,4.0526,4.0413,3.9948,3.9697,3.9697,3.9697,3.9697,3.9697,3.9697,3.9697,3.9647,3.9358,3.9094,3.8718,3.7725,3.6945,3.6531,3.6417,3.6417,3.6417,3.6417,3.6417,3.6417,3.6417,3.6417,3.6392,3.6417,3.6417,3.6279,3.529,3.4587,3.4161,3.352,3.3124,3.3124,3.3124,3.3206,3.3458,3.3219,3.3124,3.3124,3.3124,3.2948,3.2641,3.2591,3.2742,3.3061,3.3124,3.3124,3.3124,3.3124,3.3111,3.3124,3.3124,3.3124,3.3111,3.3124,3.3124,3.3099,3.3124,3.3124,3.3086,3.3124,3.3124,3.3124,3.3124,3.3124,3.293,3.2202,3.1549,3.1323,3.0796,3.0507,3.0294,2.9767,2.8988,2.8059,2.7306,2.6753,2.6452,2.6512,2.6839,2.7178,2.709,2.7077,2.7065,2.7356,2.7858,2.8386,2.9089,2.9729,3.0181,3.0256,3.0043,2.9515,2.8963,2.8976,2.9126,2.9227,2.934,2.9603,2.9654,2.9139,2.8687,2.8725,2.8373,2.7595,2.7281,2.6728,4.2986,4.2992,4.2502,4.2301,4.215,4.1103,4.0664,4.0513,3.9961,3.9697,3.9697,3.9697,3.9697,3.9697,3.9697,3.9697,3.9697,3.9634,3.9295,3.8793,3.7976,3.7235,3.6644,3.6455,3.6417,3.6417,3.6417,3.6417,3.6417,3.6417,3.6417,3.6417,3.6417,3.6417,3.6241,3.5353,3.4889,3.4625,3.3771,3.3382,3.3382,3.34,3.3382,3.352,3.352,3.3432,3.3395,3.3345,3.3282,3.3212,3.3119,3.3099,3.3124,3.3124,3.3124,3.3124,3.3124,3.3124,3.3124,3.3124,3.3124,3.3124,3.3124,3.3124,3.3124,3.3124,3.3124,3.3124,3.3124,3.3124,3.3124,3.3124,3.3036,3.2905,3.283,3.2667,3.2227,3.1775,3.1537,3.1424,3.0545,2.9767,2.8837,2.8122,2.7406,2.6929,2.703,2.7406,2.7632,2.7682,2.7582,2.7444,2.7971,2.8687,2.9252,2.9854,3.0444,3.0934,3.0984,3.0809,3.0306,2.9867,2.9704,2.9691,2.9804,2.9767,2.9691,2.9528,2.9139,2.9063,2.9114,2.8436,2.772,2.7808,2.7507,4.2986,4.2974,4.2861,4.2798,4.2622,4.1643,4.1153,4.1012,4.0111,3.9697,3.9697,3.9697,3.9697,3.9697,3.9697,3.9697,3.9697,3.9672,3.9396,3.8881,3.8743,3.7951,3.7159,3.6621,3.643,3.6417,3.6417,3.6417,3.6417,3.6417,3.6417,3.6417,3.6417,3.6417,3.6292,3.5705,3.532,3.5132,3.4261,3.3922,3.406,3.3809,3.3809,3.4161,3.4274,3.4336,3.4361,3.4374,3.4161,3.3746,3.3345,3.3187,3.3136,3.3124,3.3124,3.3124,3.3124,3.3124,3.3124,3.3124,3.3124,3.3124,3.3124,3.3124,3.3124,3.3149,3.3136,3.3124,3.3124,3.3237,3.3262,3.3162,3.293,3.2679,3.2478,3.2227,3.1825,3.2244,3.2303,3.1938,3.1323,3.0357,2.8649,2.8662,2.8122,2.7582,2.7708,2.8097,2.826,2.836,2.821,2.8072,2.8586,2.9302,2.998,3.0608,3.126,3.165,3.17,3.17,3.1185,3.0896,3.0771,3.0583,3.0407,3.0269,3.0005,2.9666,2.9377,2.9402,2.9402,2.8913,2.8524,2.8511,2.8411,4.2986,4.2986,4.2986,4.2986,4.2798,4.1819,4.1275,4.1062,4.0174,3.9697,3.9697,3.9697,3.9697,3.9697,3.9697,3.9697,3.9697,3.9697,3.9559,3.9233,3.9045,3.8429,3.7651,3.701,3.6646,3.648,3.6417,3.6417,3.6417,3.6417,3.6417,3.6417,3.6417,3.6417,3.6329,3.5843,3.5495,3.527,3.4474,3.406,3.4211,3.3822,3.3771,3.4311,3.453,3.468,3.4655,3.4655,3.455,3.4236,3.3784,3.3332,3.3119,3.3124,3.3124,3.3124,3.3124,3.3124,3.3124,3.3124,3.3124,3.3124,3.3124,3.3124,3.3212,3.3325,3.3501,3.3564,3.3696,3.3859,3.3834,3.3558,3.3206,3.2717,3.2353,3.1901,3.1386,3.1775,3.2202,3.1788,3.1273,3.0369,2.9541,2.9114,2.9051,2.8586,2.875,2.9114,2.9239,2.9277,2.895,2.8963,2.9352,2.993,3.0633,3.1389,3.2143,3.242,3.2428,3.247,3.2227,3.2026,3.1888,3.1461,3.0922,3.057,3.0269,2.993,2.9679,2.9603,2.9541,2.9415,2.9352,2.9277,2.9202,4.2986,4.2986,4.2986,4.2986,4.2823,4.1907,4.1492,4.1317,4.03,3.9885,3.9798,3.9747,3.9697,3.9697,3.9697,3.9697,3.9697,3.9697,3.9634,3.9559,3.9245,3.8743,3.8153,3.7701,3.7249,3.6707,3.648,3.643,3.6417,3.6417,3.6417,3.6417,3.6417,3.6417,3.6292,3.5956,3.5683,3.5571,3.47,3.411,3.406,3.3658,3.3684,3.4349,3.4876,3.5127,3.5152,3.5115,3.4989,3.4839,3.4399,3.3884,3.3445,3.3119,3.3124,3.3124,3.3124,3.3124,3.3124,3.3124,3.3124,3.3124,3.3124,3.3199,3.3294,3.3596,3.3847,3.411,3.4324,3.4575,3.463,3.4148,3.3621,3.3068,3.2491,3.1675,3.0972,3.0972,3.1072,3.1085,3.0884,3.0294,2.9792,2.939,2.9541,2.9716,2.9892,3.0055,3.0168,3.0068,2.9729,2.9515,2.9842,3.052,3.126,3.1599,3.2458,3.2759,3.2855,3.2872,3.2898,3.2717,3.2365,3.1788,3.1298,3.0997,3.0708,3.0419,3.0168,2.9917,2.9967,3.0131,3.0118,3.0043,2.9993,4.2986,4.2986,4.2986,4.2986,4.2886,4.2283,4.2037,4.1886,4.0802,4.0388,4.03,3.9898,3.9697,3.9697,3.9697,3.9697,3.9697,3.9697,3.9697,3.9697,3.9509,3.9182,3.868,3.8454,3.8153,3.76,3.7008,3.6556,3.6468,3.6417,3.6468,3.643,3.6417,3.6417,3.6392,3.6304,3.6144,3.5981,3.5127,3.4613,3.4374,3.411,3.4148,3.4989,3.5554,3.5893,3.6053,3.6065,3.5893,3.542,3.5282,3.4906,3.4374,3.3633,3.33,3.3262,3.3287,3.3294,3.3282,3.3169,3.3149,3.3124,3.3237,3.3407,3.3671,3.3922,3.4286,3.4587,3.4726,3.4788,3.4668,3.4399,3.3734,3.3081,3.2315,3.1424,3.0756,3.0507,3.0306,3.0306,3.0331,3.047,3.0156,3.0005,3.0231,3.0495,3.0733,3.0884,3.1022,3.0746,3.0331,3.0206,3.0193,3.1022,3.1888,3.2051,3.2453,3.2742,3.2867,3.2805,3.291,3.3048,3.2729,3.2215,3.1888,3.1662,3.1336,3.0959,3.0821,3.0696,3.0809,3.0922,3.0796,3.0683,3.0846,4.2986,4.2986,4.2986,4.2986,4.2886,4.2451,4.2213,4.2049,4.1015,4.0526,4.0362,3.9973,3.9697,3.9697,3.9697,3.9697,3.9697,3.9697,3.9697,3.9697,3.9672,3.9396,3.8944,3.8944,3.8517,3.8015,3.7437,3.7023,3.6857,3.6797,3.6669,3.6443,3.6417,3.6417,3.6417,3.6405,3.6443,3.6229,3.5604,3.4944,3.4738,3.4412,3.4726,3.5127,3.5906,3.6367,3.6417,3.6417,3.6292,3.5968,3.5646,3.5382,3.4969,3.4487,3.3922,3.3922,3.3897,3.3909,3.3922,3.3922,3.396,3.3947,3.3909,3.4035,3.4324,3.4613,3.4951,3.5378,3.5567,3.5567,3.5604,3.5014,3.4525,3.3884,3.288,3.1759,3.0982,3.0656,3.0369,3.0055,3.0382,3.067,3.0746,3.0733,3.0959,3.1235,3.1562,3.1763,3.1938,3.1612,3.1235,3.0871,3.0859,3.1424,3.219,3.2441,3.2554,3.2792,3.283,3.278,3.288,3.3086,3.3061,3.2742,3.2491,3.219,3.1876,3.1474,3.1461,3.1436,3.1361,3.1323,3.1336,3.1373,3.1512,4.2986,4.2986,4.2986,4.2986,4.2911,4.2577,4.2389,4.215,4.1178,4.0714,4.0588,4.0011,3.9697,3.9697,3.9697,3.9697,3.9697,3.9697,3.9697,3.9697,3.9685,3.9421,3.9157,3.8981,3.8868,3.8617,3.8404,3.7927,3.7224,3.7111,3.6897,3.6757,3.6606,3.6669,3.6795,3.6933,3.6757,3.6496,3.6006,3.5391,3.4751,3.4618,3.468,3.4781,3.5827,3.6417,3.6417,3.6417,3.6417,3.6267,3.5994,3.5683,3.5655,3.5303,3.5064,3.5014,3.4851,3.4693,3.4643,3.4605,3.455,3.4537,3.463,3.4718,3.5002,3.5328,3.5843,3.6317,3.6355,3.6191,3.5918,3.5629,3.5064,3.4387,3.342,3.2491,3.1546,3.1069,3.1025,3.0874,3.0871,3.1097,3.1411,3.1725,3.2001,3.2491,3.2817,3.3006,3.3106,3.278,3.2353,3.175,3.1625,3.1951,3.2428,3.2767,3.2855,3.2986,3.2842,3.2692,3.2867,3.3111,3.3061,3.2955,3.2792,3.2478,3.2227,3.2102,3.2139,3.2064,3.1825,3.1825,3.2068,3.2106,3.2143,4.2986,4.2986,4.2986,4.2986,4.2974,4.2886,4.2861,4.2698,4.1668,4.1188,4.105,4.0187,3.9697,3.9697,3.9697,3.9697,3.9697,3.9697,3.9697,3.9697,3.9685,3.9647,3.9572,3.9609,3.9471,3.9258,3.9346,3.8567,3.7713,3.7374,3.7224,3.7111,3.7123,3.7274,3.7563,3.7563,3.7826,3.76,3.6747,3.5529,3.4449,3.4537,3.4655,3.5052,3.573,3.6417,3.6417,3.6417,3.6417,3.6405,3.6355,3.6304,3.6292,3.6279,3.6216,3.5927,3.5378,3.4693,3.4793,3.4914,3.4926,3.4951,3.4831,3.4969,3.537,3.5843,3.6279,3.6367,3.638,3.6132,3.573,3.5165,3.46,3.396,3.3194,3.2579,3.1909,3.1772,3.165,3.1905,3.2014,3.2198,3.2428,3.2754,3.3081,3.3608,3.4035,3.4161,3.4073,3.3621,3.347,3.2893,3.2303,3.2541,3.2604,3.2943,3.2955,3.3086,3.2805,3.2616,3.2893,3.3124,3.3124,3.3048,3.288,3.2842,3.2704,3.2679,3.2792,3.2692,3.2495,3.2659,3.2948,3.2885,3.2671,4.2986,4.2986,4.2986,4.2986,4.2986,4.2986,4.2986,4.2748,4.1831,4.1275,4.1075,4.0187,3.9697,3.9722,3.9697,3.9697,3.9697,3.9697,3.9697,3.9697,3.9697,3.9697,3.9685,3.9697,3.9697,3.9697,3.9622,3.9195,3.8366,3.814,3.8015,3.7663,3.7651,3.7713,3.8115,3.8027,3.799,3.7575,3.6671,3.5545,3.4944,3.4731,3.4831,3.5144,3.5981,3.638,3.6468,3.6417,3.6417,3.6417,3.6417,3.6417,3.6405,3.6405,3.6392,3.6355,3.6015,3.5705,3.568,3.5642,3.5592,3.5629,3.5629,3.5793,3.6031,3.6241,3.6417,3.6417,3.6056,3.5793,3.5395,3.4751,3.4286,3.3709,3.3106,3.2661,3.2375,3.2549,3.2524,3.2877,3.3177,3.3383,3.3583,3.3872,3.4085,3.4311,3.4562,3.46,3.4424,3.401,3.3997,3.406,3.347,3.3068,3.3006,3.3068,3.2893,3.2867,3.2616,3.2566,3.2918,3.3124,3.3199,3.3174,3.3074,3.3074,3.3136,3.3086,3.2998,3.3048,3.3111,3.3124,3.3124,3.3099,3.2885,4.2986,4.2986,4.2986,4.2986,4.2986,4.2986,4.2986,4.2861,4.1995,4.1555,4.1304,4.0588,4.0074,3.9923,3.9923,3.9885,3.9697,3.9697,3.9697,3.9697,3.9697,3.9697,3.9697,3.9697,3.9697,3.9697,3.9697,3.9421,3.9207,3.8981,3.8743,3.8253,3.8228,3.8354,3.8442,3.8504,3.8454,3.7864,3.6373,3.5571,3.5345,3.5082,3.5282,3.578,3.6345,3.6772,3.6772,3.687,3.6883,3.6895,3.6933,3.6983,3.6958,3.6935,3.6983,3.6971,3.6784,3.6832,3.6681,3.6556,3.6468,3.6417,3.6417,3.6279,3.6342,3.6417,3.6417,3.6417,3.6107,3.5805,3.5345,3.4675,3.4236,3.3847,3.3382,3.2908,3.2624,3.2953,3.322,3.3457,3.3893,3.4573,3.4768,3.5006,3.5152,3.514,3.5127,3.509,3.4901,3.4625,3.4788,3.5014,3.4537,3.396,3.3646,3.3458,3.3156,3.2754,3.2516,3.2566,3.2943,3.3287,3.3451,3.3363,3.3237,3.3212,3.325,3.3187,3.3124,3.3124,3.3124,3.3124,3.3124,3.3124,3.3061,4.2986,4.2986,4.2986,4.2986,4.2986,4.2986,4.2986,4.2936,4.2389,4.2032,4.1856,4.143,4.0802,4.0513,4.0312,4.0111,3.9697,3.9697,3.9697,3.9697,3.9697,3.9697,3.9697,3.9697,3.9697,3.9697,3.9697,3.9659,3.9609,3.9484,3.9233,3.8932,3.8806,3.9132,3.9295,3.9258,3.8743,3.7952,3.6473,3.5696,3.5608,3.552,3.578,3.6395,3.7236,3.7877,3.7889,3.7751,3.7676,3.7663,3.7651,3.7651,3.7588,3.76,3.76,3.76,3.7613,3.76,3.75,3.7046,3.6543,3.6455,3.6518,3.6656,3.6707,3.6531,3.6455,3.6581,3.6433,3.6132,3.5621,3.4969,3.4399,3.4048,3.3664,3.3206,3.3134,3.3557,3.3802,3.4028,3.4583,3.5361,3.5796,3.6031,3.583,3.5768,3.5768,3.573,3.5843,3.5739,3.5902,3.5952,3.5504,3.4956,3.443,3.3922,3.288,3.2717,3.2692,3.278,3.3031,3.3282,3.3476,3.3564,3.3438,3.34,3.3332,3.3332,3.3294,3.3187,3.3124,3.3124,3.3124,3.3124,3.3061,4.2986,4.2986,4.2986,4.2986,4.2986,4.2986,4.2986,4.2886,4.2451,4.1944,4.1681,4.1351,4.0974,4.0611,4.0488,4.0212,3.9747,3.9697,3.971,3.9697,3.9697,3.9697,3.9697,3.9697,3.9697,3.9697,3.9697,3.9697,3.9685,3.9697,3.9622,3.9421,3.932,3.9459,3.9647,3.9609,3.8994,3.8103,3.7086,3.642,3.6069,3.6069,3.6307,3.6897,3.7525,3.7965,3.7977,3.799,3.8002,3.8027,3.8052,3.809,3.8115,3.8103,3.8103,3.8103,3.8115,3.8103,3.8065,3.7626,3.74,3.7374,3.7387,3.7337,3.7249,3.7324,3.7362,3.7312,3.7071,3.6697,3.6546,3.5516,3.4575,3.4311,3.3979,3.3568,3.3611,3.4035,3.4429,3.4663,3.5429,3.6307,3.6646,3.6948,3.6694,3.6417,3.643,3.6417,3.6417,3.6417,3.6417,3.6153,3.5642,3.5194,3.4655,3.3621,3.2428,3.2629,3.2867,3.2968,3.3081,3.3136,3.3287,3.3451,3.3727,3.3771,3.3759,3.3633,3.3495,3.3319,3.3224,3.3124,3.3124,3.3124,3.2993,4.2986,4.2986,4.2986,4.2986,4.2986,4.2986,4.2986,4.2911,4.264,4.2208,4.1819,4.1794,4.153,4.1128,4.1015,4.0752,4.0337,4.0099,3.9986,3.991,3.9823,3.9722,3.9697,3.9697,3.9697,3.9697,3.9697,3.9697,3.9697,3.9697,3.9659,3.9659,3.9697,3.9685,3.9647,3.9459,3.9019,3.8304,3.7337,3.696,3.6619,3.6669,3.692,3.7475,3.8191,3.8592,3.8655,3.868,3.863,3.863,3.8605,3.8555,3.853,3.8504,3.8504,3.8504,3.8492,3.8479,3.8454,3.8153,3.804,3.7864,3.7889,3.7914,3.8002,3.8015,3.7839,3.7864,3.76,3.7437,3.7387,3.637,3.5567,3.5378,3.4839,3.4426,3.4262,3.4476,3.4922,3.5278,3.6065,3.6656,3.6948,3.7136,3.6945,3.6619,3.6443,3.6417,3.6417,3.6417,3.6417,3.604,3.5454,3.5077,3.4618,3.3407,3.2416,3.288,3.3068,3.3056,3.3106,3.3149,3.3149,3.3287,3.3583,3.4085,3.4236,3.4161,3.3847,3.3495,3.3345,3.325,3.3124,3.3111,3.2943,4.2986,4.2986,4.2986,4.2986,4.2986,4.2986,4.2986,4.2974,4.2924,4.2861,4.2773,4.2785,4.2484,4.2125,4.1911,4.153,4.1053,4.0676,4.0463,4.0312,4.0023,3.9798,3.9697,3.9697,3.9697,3.9697,3.9697,3.9697,3.9697,3.9697,3.9697,3.9697,3.9697,3.9697,3.9647,3.917,3.8944,3.8668,3.731,3.7134,3.7098,3.7236,3.76,3.8065,3.8881,3.932,3.932,3.932,3.9295,3.932,3.9346,3.9358,3.9383,3.9408,3.9421,3.9459,3.9496,3.9534,3.9546,3.8605,3.8278,3.8266,3.8404,3.8316,3.814,3.8103,3.8228,3.8417,3.8178,3.809,3.7826,3.7487,3.6897,3.6471,3.5981,3.55,3.534,3.5264,3.5752,3.6007,3.6233,3.6619,3.7008,3.7186,3.7059,3.6795,3.6518,3.643,3.6455,3.6417,3.6417,3.6128,3.5542,3.509,3.4505,3.3156,3.2478,3.298,3.3119,3.2943,3.3068,3.3275,3.3262,3.3181,3.3746,3.4462,3.465,3.4726,3.4387,3.4048,3.3571,3.34,3.325,3.3262,3.3319,4.2986,4.2986,4.2986,4.2986,4.2986,4.2986,4.2986,4.2986,4.2986,4.2986,4.2986,4.2986,4.2728,4.2363,4.22,4.1919,4.1417,4.12,4.0924,4.0538,4.0325,4.0011,3.9848,3.9837,3.9786,3.9697,3.9697,3.9697,3.9697,3.9749,3.9697,3.9697,3.98,3.9697,3.9672,3.9433,3.9283,3.8932,3.8328,3.8002,3.7826,3.8065,3.8354,3.8567,3.9308,3.9685,3.9697,3.9697,3.9697,3.9697,3.9697,3.9697,3.9697,3.9697,3.9697,3.9697,3.9697,3.9697,3.9672,3.9258,3.9157,3.9082,3.9019,3.8994,3.9107,3.912,3.912,3.9069,3.8969,3.8994,3.9032,3.8592,3.814,3.8015,3.7586,3.7026,3.6732,3.6616,3.6776,3.6772,3.6972,3.7144,3.7412,3.7751,3.7638,3.726,3.6983,3.6669,3.6606,3.6493,3.643,3.6182,3.578,3.5253,3.4474,3.3244,3.239,3.2554,3.2616,3.2466,3.2704,3.3131,3.3332,3.3307,3.4142,3.4896,3.5014,3.5102,3.4951,3.4638,3.4324,3.4048,3.3972,3.4085,3.4248,4.2986,4.2986,4.2986,4.2986,4.2986,4.2986,4.2986,4.2986,4.2986,4.2986,4.2986,4.2974,4.2811,4.259,4.2464,4.2333,4.1894,4.1668,4.1555,4.1065,4.0971,4.0862,4.0689,4.036,4.0476,4.0234,3.9966,3.9839,3.9749,3.9788,3.989,3.9993,4.0006,3.9942,3.9878,3.9699,3.9521,3.917,3.8831,3.8567,3.8479,3.858,3.8856,3.9032,3.9346,3.9697,3.9697,3.9697,3.9697,3.9697,3.9697,3.9697,3.9697,3.9697,3.9697,3.9697,3.9697,3.9697,3.9672,3.9659,3.9546,3.9584,3.9697,3.9697,3.9697,3.9572,3.9584,3.9609,3.9697,3.9685,3.9584,3.9182,3.9057,3.8894,3.8567,3.7985,3.7597,3.7451,3.7199,3.7291,3.72,3.7459,3.7801,3.8216,3.8404,3.7902,3.7412,3.7184,3.6945,3.6857,3.6719,3.6433,3.6094,3.5567,3.47,3.3508,3.2767,3.229,3.2177,3.2139,3.2466,3.2893,3.3169,3.3545,3.4261,3.4901,3.5341,3.5479,3.5479,3.5479,3.5391,3.5115,3.4793,3.4756,3.4889,4.2986,4.2986,4.2986,4.2986,4.2986,4.2986,4.2986,4.2986,4.2986,4.2986,4.2986,4.2986,4.2924,4.2949,4.2936,4.2873,4.2748,4.2401,4.2175,4.2082,4.1853,4.1917,4.194,4.1724,4.1518,4.1145,4.0734,4.0184,3.9825,4.0224,4.0427,4.0491,4.0593,4.044,4.0236,3.9865,3.9737,3.9548,3.9436,3.9222,3.9146,3.9095,3.9196,3.9335,3.9497,3.9659,3.9697,3.9697,3.9697,3.9697,3.9697,3.9697,3.9697,3.9697,3.9697,3.9697,3.9697,3.9697,3.9697,3.9697,3.9697,3.9697,3.9697,3.9697,3.9697,3.9697,3.9697,3.9697,3.9697,3.9697,3.9622,3.9521,3.9421,3.922,3.9007,3.8605,3.8179,3.7904,3.7589,3.7374,3.7147,3.7373,3.7863,3.8328,3.8931,3.868,3.8291,3.8228,3.7965,3.7613,3.74,3.6971,3.6508,3.5906,3.4939,3.3884,3.3119,3.2629,3.2114,3.2026,3.2353,3.2692,3.3043,3.3545,3.4311,3.4977,3.5642,3.6019,3.6216,3.6191,3.6003,3.5793,3.5391,3.5203,3.5177,4.2986,4.2986,4.2986,4.2986,4.2986,4.2986,4.2986,4.2986,4.2986,4.2986,4.2986,4.2986,4.2986,4.2986,4.2974,4.2986,4.2924,4.2828,4.2514,4.2452,4.2509,4.2782,4.2905,4.2879,4.2654,4.2213,4.1581,4.0863,4.0261,4.0605,4.1274,4.1335,4.1437,4.1174,4.0643,4.0032,4.0032,4.0045,4.0058,4.0007,3.9981,4.0032,3.9931,3.9816,3.9649,3.9749,3.9697,3.9697,3.9697,3.9697,3.9697,3.9697,3.9697,3.9697,3.9697,3.9697,3.9697,3.9697,3.9697,3.9697,3.9697,3.9697,3.9697,3.9697,3.9697,3.9697,3.9697,3.9697,3.9697,3.9697,3.9697,3.9634,3.9584,3.9459,3.932,3.9144,3.8767,3.8492,3.8191,3.7889,3.7649,3.7863,3.8303,3.8768,3.932,3.9233,3.9157,3.9082,3.8919,3.853,3.809,3.76,3.7186,3.6659,3.5529,3.4437,3.3658,3.2955,3.2328,3.1913,3.219,3.2541,3.2943,3.3721,3.4776,3.5516,3.6179,3.6405,3.6417,3.6417,3.6267,3.6166,3.5994,3.5755,3.5688,4.2828,4.2974,4.2986,4.2986,4.2986,4.2986,4.2986,4.2986,4.2986,4.2986,4.2986,4.2986,4.2986,4.2986,4.2986,4.2986,4.2974,4.2936,4.2816,4.2788,4.305,4.3642,4.3927,4.4016,4.388,4.3433,4.2886,4.2189,4.1607,4.2227,4.3017,4.282,4.2704,4.2162,4.1524,4.0908,4.0756,4.0908,4.0982,4.0971,4.0984,4.0984,4.0719,4.0415,4.0032,3.98,3.9749,3.9749,3.9749,3.9697,3.9697,3.9697,3.9697,3.9697,3.9697,3.9697,3.9697,3.9697,3.9697,3.9697,3.9697,3.9697,3.9697,3.9697,3.9697,3.9697,3.9697,3.9697,3.9697,3.9697,3.9697,3.9697,3.9697,3.9685,3.9672,3.9672,3.9408,3.9132,3.8869,3.8554,3.8554,3.8718,3.9082,3.9471,3.9685,3.9559,3.9496,3.9471,3.9371,3.917,3.8718,3.8253,3.7914,3.7536,3.6257,3.5052,3.4223,3.3244,3.2102,3.1838,3.2077,3.2554,3.3131,3.4211,3.5441,3.5981,3.6392,3.6405,3.6417,3.6417,3.6417,3.6317,3.6267,3.6216,3.6191,4.2502,4.2898,4.3004,4.3085,4.3085,4.3085,4.3098,4.3085,4.3085,4.3042,4.3042,4.2986,4.2986,4.2986,4.2986,4.2986,4.2986,4.2974,4.2961,4.3073,4.3483,4.4121,4.4611,4.4904,4.4908,4.4864,4.4544,4.3884,4.3897,4.4389,4.4913,4.4713,4.4415,4.389,4.3001,4.2016,4.1927,4.2355,4.2341,4.2244,4.194,4.1743,4.1482,4.1008,4.0427,3.989,3.9839,3.9839,3.98,3.98,3.98,3.98,3.9852,3.98,3.98,3.9697,3.9697,3.9697,3.9749,3.9749,3.9852,3.98,3.9749,3.9852,3.989,3.9749,3.9697,3.9697,3.9697,3.9697,3.9697,3.9697,3.9697,3.9697,3.9697,3.9697,3.9584,3.9333,3.9132,3.8957,3.902,3.9132,3.9258,3.9584,3.9697,3.9697,3.9697,3.9697,3.9647,3.9546,3.9207,3.8755,3.8467,3.8014,3.6872,3.5717,3.4801,3.3709,3.2453,3.219,3.2717,3.3068,3.3382,3.4663,3.5943,3.6166,3.6417,3.643,3.643,3.6417,3.6417,3.6417,3.6417,3.6455,3.6417,4.2288,4.2439,4.3063,4.3474,4.3666,4.3666,4.3666,4.3666,4.3406,4.3184,4.303,4.2974,4.3042,4.3098,4.3098,4.3141,4.3085,4.3252,4.3042,4.3265,4.3721,4.4341,4.5047,4.5395,4.5743,4.5942,4.5793,4.5729,4.5843,4.6349,4.68,4.6633,4.622,4.5463,4.4749,4.3753,4.3451,4.4032,4.4274,4.399,4.3527,4.2957,4.2536,4.2025,4.1395,4.087,4.0732,4.044,4.0351,4.03,4.0313,4.03,4.03,4.0134,3.989,3.9749,3.9697,3.9697,3.9749,3.989,4.0096,4.0287,4.0338,4.03,4.0198,3.989,3.9736,3.9749,3.9697,3.9697,3.9697,3.9697,3.9697,3.9697,3.9697,3.9697,3.9697,3.9546,3.9371,3.9371,3.9396,3.9433,3.9471,3.9546,3.9659,3.9697,3.9697,3.9697,3.9697,3.9609,3.9396,3.9032,3.8881,3.8291,3.7287,3.6383,3.5454,3.4474,3.3307,3.3232,3.337,3.4035,3.4675,3.55,3.6367,3.6619,3.6681,3.6468,3.6455,3.6619,3.6681,3.6795,3.6726,3.6748,3.6587,4.1773,4.2305,4.3246,4.3903,4.4328,4.4396,4.4396,4.4328,4.3987,4.3504,4.3085,4.3141,4.3252,4.3432,4.3543,4.3683,4.3738,4.3738,4.3848,4.3971,4.4136,4.4559,4.5127,4.5715,4.6263,4.6606,4.7273,4.7539,4.7758,4.8201,4.8489,4.8301,4.7774,4.7236,4.6579,4.5647,4.5308,4.5877,4.6348,4.6163,4.5397,4.4833,4.4026,4.3355,4.2744,4.2199,4.1644,4.1309,4.1071,4.1047,4.106,4.1021,4.092,4.0681,4.0224,3.9839,3.9697,3.9697,3.9839,4.0134,4.0529,4.082,4.1034,4.1097,4.0958,4.0605,4.0032,3.9993,3.9749,3.9697,3.9697,3.9697,3.9697,3.9697,3.9697,3.9697,3.9697,3.9634,3.9559,3.9559,3.9572,3.9584,3.9609,3.9609,3.9697,3.9697,3.9697,3.9697,3.9697,3.9697,3.9471,3.9308,3.917,3.868,3.7764,3.6923,3.6119,3.5115,3.4035,3.3884,3.3922,3.509,3.6044,3.6508,3.691,3.7186,3.7149,3.6983,3.7036,3.7312,3.7274,3.7211,3.7142,3.7238,3.7398,4.1433,4.2486,4.3698,4.4587,4.5168,4.5315,4.5315,4.5168,4.4737,4.4068,4.3462,4.3657,4.3835,4.4013,4.4354,4.4722,4.4966,4.5101,4.506,4.5006,4.4966,4.5006,4.5235,4.5715,4.6515,4.7605,4.8532,4.9202,4.9664,4.9846,4.9816,4.9678,4.9287,4.8849,4.8188,4.7677,4.7456,4.7663,4.8032,4.8317,4.7691,4.6876,4.5841,4.4996,4.4368,4.3752,4.3155,4.2597,4.2193,4.2179,4.2296,4.2047,4.1756,4.1445,4.0782,4.0389,4.0134,4.0134,4.0185,4.063,4.1196,4.1631,4.1819,4.1855,4.1766,4.1332,4.0769,4.0211,4.0006,3.98,3.98,3.9749,3.9749,3.9749,3.9749,3.9749,3.9749,3.9749,3.9749,3.9749,3.9749,3.9749,3.9749,3.9749,3.9749,3.9749,3.9749,3.9697,3.9697,3.9697,3.9597,3.9534,3.9484,3.8881,3.809,3.7487,3.6722,3.5504,3.4525,3.4349,3.4582,3.5667,3.6584,3.7161,3.7525,3.7701,3.7825,3.7761,3.7888,3.8075,3.8068,3.8097,3.829,3.8433,3.8663,4.2489,4.3619,4.4983,4.5953,4.6465,4.6673,4.6687,4.6413,4.5887,4.5181,4.4763,4.5127,4.5315,4.4859,4.5342,4.5873,4.6476,4.658,4.6619,4.6605,4.6189,4.5661,4.5502,4.6125,4.7102,4.836,4.9708,5.0618,5.0647,5.076,5.0919,5.0726,5.016,4.989,4.971,4.9304,4.8916,4.9129,4.9114,4.9266,4.9025,4.829,4.7709,4.7128,4.669,4.6166,4.5588,4.484,4.4705,4.4532,4.4171,4.3608,4.3038,4.2488,4.1828,4.1345,4.1095,4.1045,4.1246,4.173,4.2341,4.2861,4.3095,4.3156,4.2937,4.2488,4.1789,4.0878,4.0552,4.0109,4.0032,3.9942,3.989,3.989,3.989,3.989,3.989,3.989,3.9903,3.9903,3.9903,3.989,3.9942,3.9942,3.9942,3.9942,3.9942,3.9942,3.9981,3.989,3.9839,3.98,3.9864,3.9007,3.8203,3.7977,3.7249,3.5981,3.4994,3.4851,3.519,3.6232,3.7048,3.7525,3.7864,3.8065,3.8177,3.8516,3.8723,3.8919,3.8958,3.9023,3.9342,3.9815,4.0261]}]]